GFSGBSN_925_thetae_000.txt.gz
Theta_e
308 308 307 306 306 307 307 307 310 312 313 314 314 314 312 312 311 312 312 313 314 315 316 315 314 313 314 317 317 318 318 318 318 318 316 315 315 316 317 318 317 315 315 315 315 314 314
308 308 308 309 309 308 307 308 311 313 314 314 315 314 312 312 313 313 314 314 314 315 315 315 314 314 317 316 318 318 319 318 318 318 317 316 315 315 317 318 317 318 317 317 314 315 315
308 309 311 311 310 308 308 309 311 313 314 314 314 314 314 314 314 315 316 316 316 315 314 314 314 315 323 315 318 318 319 318 318 319 316 317 316 315 316 319 318 318 318 315 315 316 315
309 312 313 312 309 309 310 310 311 312 314 314 314 314 314 316 317 317 317 317 316 316 315 315 315 316 316 318 319 318 318 318 319 319 319 318 318 316 317 317 318 318 315 316 315 315 314
310 314 314 313 311 311 311 311 312 312 313 314 314 315 316 316 317 317 317 317 316 316 316 316 317 320 319 318 318 318 318 318 318 319 319 319 318 316 315 314 312 312 314 315 316 314 314
311 314 315 314 313 312 311 312 312 312 313 314 315 316 316 317 317 317 316 316 316 316 318 318 318 318 317 317 317 318 316 315 315 316 317 319 314 313 311 311 314 316 314 312 316 315 315
311 314 315 315 313 313 311 312 313 313 312 314 315 316 316 316 316 316 317 320 319 314 317 314 314 315 315 316 317 316 315 315 315 317 318 315 314 314 315 315 316 315 315 316 316 316 317
309 313 315 316 314 313 312 312 313 313 313 313 315 315 316 316 317 321 324 321 323 322 319 315 314 314 315 315 316 314 314 315 316 315 313 314 316 316 315 316 315 314 318 317 315 316 318
308 312 315 316 315 313 312 311 313 314 315 312 314 315 316 316 317 322 320 323 324 324 323 315 315 315 315 315 316 315 313 314 316 316 313 315 316 315 315 315 315 314 318 317 317 316 317
306 310 313 316 316 314 312 311 312 314 314 315 311 314 316 316 318 323 322 321 323 328 319 316 317 317 316 315 317 316 315 315 315 316 315 316 314 313 315 316 314 316 315 317 318 318 320
306 308 310 314 316 314 313 312 312 314 314 315 312 314 315 317 324 322 323 319 325 329 322 318 316 316 316 315 315 316 316 316 315 315 314 316 313 313 315 314 315 316 315 318 319 318 319
307 307 308 311 315 315 314 313 312 314 314 317 315 316 316 320 320 322 320 319 327 325 328 318 317 318 317 316 316 316 317 316 317 319 317 315 314 314 314 316 317 316 318 319 319 318 320
306 307 307 309 314 315 314 313 313 314 314 315 320 319 319 322 323 318 319 325 326 320 322 319 318 317 317 316 317 317 318 317 317 317 318 319 316 315 317 317 316 316 318 318 318 318 320
306 307 308 309 313 315 314 314 313 314 314 315 322 322 318 319 320 319 327 321 323 323 319 318 317 317 318 316 317 318 318 318 316 317 318 323 321 319 316 318 318 318 319 317 324 318 319
306 307 308 309 312 314 314 314 313 313 315 316 323 325 319 319 318 323 320 319 316 319 317 317 318 318 319 318 316 318 317 318 317 316 320 320 321 318 317 317 318 320 319 318 318 307 314
307 307 308 310 312 314 314 314 313 313 317 318 324 328 319 319 319 327 315 316 316 315 317 319 320 319 320 319 320 319 318 317 318 316 316 320 323 320 319 319 318 319 317 319 315 316 326
308 306 307 310 312 314 315 314 314 313 319 322 328 319 319 317 326 317 314 313 314 315 317 319 320 321 321 321 321 320 319 318 317 317 317 318 320 319 317 321 321 316 318 319 321 318 323
307 306 307 310 312 314 315 315 314 313 317 321 324 316 320 324 319 316 315 317 314 317 318 319 319 319 320 320 321 321 322 319 317 317 320 318 314 316 319 316 317 318 319 318 315 321 315
308 306 307 309 312 314 315 315 315 314 315 318 319 319 324 324 312 309 317 318 317 319 318 319 319 318 319 320 320 320 320 318 316 318 318 317 313 314 316 315 316 319 318 317 316 310 316
310 307 307 310 313 314 315 315 315 315 315 319 314 314 315 315 316 316 318 319 318 317 317 318 319 318 318 320 318 318 320 319 317 318 316 314 316 315 316 316 318 319 319 317 316 308 317
312 309 310 312 314 315 315 315 315 315 317 322 314 314 316 313 315 315 318 320 320 320 318 317 319 319 319 317 316 320 319 318 317 316 317 315 316 316 316 317 318 319 319 319 318 315 315
312 312 312 313 314 315 315 315 315 315 321 317 315 317 315 316 318 316 313 318 319 317 319 318 319 319 318 321 319 321 319 318 318 317 317 315 313 315 318 318 318 318 318 316 315 315 314
313 313 313 313 314 314 315 314 315 315 322 319 319 318 313 310 312 311 312 318 318 318 318 316 317 316 313 319 317 316 316 316 316 317 314 315 308 309 318 313 314 317 314 313 313 312 312
313 313 314 314 315 315 315 314 314 315 322 321 318 316 307 308 304 312 318 317 317 317 318 317 315 311 316 315 313 310 308 309 312 313 314 308 306 307 313 314 320 315 312 312 312 312 312
314 314 314 315 315 315 315 314 314 314 319 321 320 318 306 306 307 314 318 317 316 315 317 318 318 315 313 308 307 306 305 305 305 314 316 312 309 311 312 317 315 314 313 314 314 313 313
314 315 314 315 315 316 315 315 315 315 315 321 320 319 310 306 309 317 316 316 310 312 310 317 315 314 308 304 303 304 305 308 312 312 313 309 304 305 311 315 317 310 310 313 314 314 313
314 314 315 315 315 315 315 316 315 315 315 319 321 320 317 307 313 316 312 312 313 309 311 307 316 309 308 308 308 311 308 311 311 306 305 304 308 307 300 307 307 308 310 312 309 311 310
314 314 314 315 315 315 315 315 316 315 315 315 319 320 318 309 312 317 317 316 315 310 308 310 311 306 306 309 309 307 312 307 310 310 309 308 306 310 307 313 315 311 312 312 310 308 309
315 315 315 315 315 315 315 315 316 316 315 315 316 318 318 316 312 318 318 318 319 315 312 309 311 310 306 306 306 300 310 309 304 314 311 314 310 309 308 309 308 309 311 309 310 310 308

GFSGBSN_925_thetae_003.txt.gz
Theta_e
308 307 308 309 310 309 308 308 310 312 313 314 314 313 312 311 311 311 311 312 313 314 315 315 314 314 316 314 316 317 318 318 318 318 315 313 313 315 317 317 316 315 314 314 314 314 313
308 310 311 312 310 309 309 308 311 313 313 314 314 313 312 312 312 313 313 314 315 315 315 314 314 316 318 314 317 318 318 318 318 318 316 314 315 314 316 316 316 316 316 315 315 314 313
310 313 313 311 310 310 310 310 311 313 314 314 314 314 313 314 314 314 315 315 315 315 315 315 315 316 319 315 317 318 318 318 318 318 316 316 315 314 315 317 316 316 316 314 315 315 314
312 314 313 312 312 311 311 311 312 313 314 314 314 314 314 315 316 317 317 317 316 316 316 316 316 318 315 318 318 318 318 318 316 318 318 318 318 315 315 315 314 313 312 313 313 313 313
313 314 314 313 313 311 312 312 312 313 314 314 315 315 316 316 317 317 317 316 316 316 316 316 318 319 318 318 318 318 316 315 315 317 317 318 317 313 312 310 311 310 313 314 314 313 315
313 314 315 313 313 312 312 312 312 313 314 314 315 315 316 316 316 316 317 316 316 316 317 319 319 315 316 316 317 316 315 315 314 315 316 315 310 310 309 309 312 314 313 312 314 314 314
312 314 316 314 313 312 312 313 313 312 313 314 315 315 316 316 318 319 321 321 318 313 317 313 313 314 314 315 317 316 314 314 314 313 315 313 312 313 314 313 315 314 315 316 315 314 316
310 314 316 315 314 312 312 313 314 313 312 314 314 315 316 317 321 320 322 320 320 320 316 315 313 313 315 315 314 314 314 314 315 314 312 314 315 314 314 314 314 315 317 315 314 314 316
308 312 315 316 314 313 312 312 313 314 313 312 314 315 315 316 319 320 321 324 325 325 314 314 314 314 315 315 315 315 313 314 315 314 314 314 315 313 314 313 313 313 316 316 316 315 315
305 309 313 316 315 314 313 313 313 313 315 312 313 315 316 316 322 321 320 321 323 327 313 315 316 316 315 314 315 315 314 315 314 314 314 315 312 314 313 314 313 315 313 315 316 318 319
305 307 309 314 315 314 313 313 313 314 316 312 312 314 315 317 323 320 322 318 323 325 316 316 315 316 315 314 314 315 316 315 315 316 313 316 312 313 314 315 314 316 315 315 318 317 318
306 306 307 311 315 315 314 313 313 313 314 316 315 314 316 320 320 321 319 319 326 321 323 317 316 316 316 314 314 317 316 314 315 316 316 315 312 314 315 315 316 315 317 316 316 316 319
306 306 307 309 314 314 314 313 313 314 313 318 318 318 318 321 320 318 319 322 322 317 320 318 317 316 316 315 316 316 316 316 316 314 317 318 318 315 315 317 316 315 316 316 315 316 319
306 307 308 309 313 314 314 313 313 314 314 319 321 317 317 320 320 319 324 318 319 320 318 317 316 316 316 314 315 316 317 317 315 316 317 321 318 319 317 317 318 318 317 315 319 317 318
307 306 308 310 313 314 314 313 313 315 314 320 322 321 317 320 319 324 315 315 314 316 316 317 317 318 318 318 316 317 317 317 316 315 319 319 320 317 318 318 317 319 318 316 315 305 312
308 307 308 310 312 314 314 314 313 316 316 320 324 323 320 318 320 322 312 315 315 314 316 318 318 318 319 320 319 317 318 317 317 316 315 319 322 318 317 317 316 317 316 318 314 315 322
309 307 307 310 312 314 315 314 313 315 321 323 328 312 320 323 324 312 311 310 314 315 316 319 319 320 320 320 319 319 319 318 317 317 315 316 319 316 315 318 319 317 317 316 318 315 319
309 307 307 309 311 313 315 314 314 314 319 325 318 315 323 321 318 311 313 315 314 317 316 317 317 318 320 319 320 320 321 319 316 317 318 316 313 314 317 314 315 317 317 315 318 317 313
309 307 306 308 311 313 314 314 314 314 318 320 317 316 319 319 313 306 315 317 316 317 317 318 318 318 318 319 319 319 319 317 315 317 318 315 312 313 314 313 313 318 317 316 311 308 315
309 308 306 308 311 313 314 315 314 314 318 322 311 312 313 311 311 314 316 317 318 316 317 316 317 317 317 318 316 318 319 318 315 317 314 314 314 313 315 313 315 318 317 316 314 307 314
311 310 307 309 311 313 314 315 314 314 319 321 310 311 315 312 313 316 316 318 319 319 316 315 317 317 317 316 316 320 318 317 316 315 315 313 316 315 314 315 316 317 318 318 317 315 317
312 311 309 310 312 314 315 315 315 315 321 316 315 315 311 315 316 314 311 317 319 317 318 317 318 317 318 319 317 320 319 317 317 315 316 313 312 316 315 315 316 317 316 315 315 315 313
312 312 311 311 313 314 314 314 315 316 321 317 316 315 310 307 308 310 311 317 317 317 316 315 315 314 313 318 316 315 314 314 314 315 313 314 308 309 310 311 310 312 311 314 313 311 311
312 312 312 312 313 314 314 314 314 319 320 318 318 311 307 307 301 310 316 316 316 316 317 316 313 310 313 312 311 309 307 307 309 310 312 307 306 306 307 313 315 313 311 310 311 311 309
312 313 313 313 314 315 315 314 314 316 320 318 319 314 305 305 306 313 315 315 314 313 316 316 317 312 310 306 306 305 304 303 303 313 313 307 309 311 317 315 311 314 312 312 311 311 311
313 313 313 314 315 315 315 314 314 314 319 319 319 316 308 305 309 315 314 314 308 309 308 316 313 311 306 300 303 304 305 307 312 310 309 306 300 305 310 315 317 311 308 309 312 314 311
314 314 314 314 314 315 315 315 314 314 316 321 320 318 314 304 310 313 310 310 310 307 309 305 315 308 306 307 308 303 307 309 311 305 304 303 307 310 310 311 308 307 307 309 314 312 308
313 314 314 314 314 314 315 315 315 315 314 318 319 318 316 306 310 316 315 313 311 308 307 309 309 305 306 308 304 306 299 305 309 308 307 308 308 306 307 310 311 308 312 313 311 308 308
314 314 314 314 314 314 314 314 315 315 315 315 318 318 317 314 311 317 318 317 317 313 309 307 310 307 305 308 306 300 306 307 303 314 308 312 309 307 310 309 307 306 311 309 309 308 307

GFSGBSN_925_thetae_006.txt.gz
Theta_e
308 309 311 311 310 309 309 308 309 311 312 313 314 313 312 311 311 310 310 311 313 314 314 314 314 316 316 313 316 317 318 317 318 317 314 313 313 314 315 315 315 314 313 312 313 310 311
309 312 312 311 310 310 310 309 311 312 313 314 314 313 312 311 311 311 312 314 315 315 314 314 315 317 316 314 316 317 318 317 317 317 315 314 314 313 314 315 314 315 315 314 314 313 313
312 313 313 312 312 311 310 310 312 313 313 314 313 312 312 312 313 314 314 314 314 314 315 315 316 317 314 315 317 317 317 317 315 317 315 315 315 314 314 316 313 314 316 311 312 312 314
314 314 313 313 312 312 311 311 312 313 313 314 314 314 314 314 315 315 315 315 316 316 316 315 317 319 315 317 317 316 315 315 315 317 316 317 317 313 313 313 311 311 310 311 312 312 311
313 314 313 313 312 312 312 311 312 313 313 314 314 315 316 316 317 317 316 316 316 315 316 317 319 318 316 317 316 316 315 314 315 316 317 317 314 310 309 309 310 308 312 313 312 312 314
312 315 314 313 312 312 312 312 312 313 314 314 315 316 316 316 316 316 317 317 316 316 317 316 317 313 314 314 316 316 315 315 314 314 314 311 308 308 308 308 310 314 312 313 312 313 313
311 315 316 314 313 312 312 313 313 312 313 314 315 315 316 318 321 322 321 320 313 312 315 312 312 313 313 314 315 315 313 314 313 310 312 311 311 312 313 313 313 313 313 315 313 313 315
310 314 316 314 313 313 313 313 313 312 313 314 315 315 316 321 319 320 321 319 318 321 314 313 312 312 314 314 313 312 314 313 313 312 311 312 313 313 312 312 312 313 315 312 313 313 315
308 311 314 315 314 313 313 313 313 314 313 313 314 314 315 319 320 321 322 324 325 324 311 313 313 314 314 314 313 313 312 313 313 312 312 313 313 312 312 312 314 313 314 314 315 313 314
305 308 311 315 314 313 313 313 313 314 314 312 313 314 315 318 320 320 319 320 323 324 312 313 314 315 314 313 313 313 314 314 313 313 313 314 311 312 314 314 313 316 312 314 314 317 318
305 306 308 313 315 314 313 313 313 314 315 312 313 314 316 319 321 320 320 318 324 320 312 314 314 315 313 312 313 315 315 313 316 315 313 313 312 314 316 315 314 316 314 315 316 317 316
306 306 306 310 314 314 313 313 313 313 315 314 314 314 317 321 321 320 318 320 323 316 318 317 315 315 314 313 314 314 314 312 314 314 315 315 312 313 314 314 315 314 316 313 314 314 318
306 306 307 309 313 314 314 313 313 313 314 318 317 315 317 320 317 318 320 319 318 316 317 317 316 315 313 313 316 315 315 314 315 313 317 317 317 315 314 317 315 314 313 313 315 314 318
306 306 307 309 312 314 314 313 314 314 315 320 317 318 319 320 320 319 321 316 317 318 317 316 315 315 315 314 316 315 316 316 314 314 316 320 315 318 316 317 317 317 316 313 316 316 316
307 306 307 309 312 314 314 313 314 315 316 321 320 317 318 319 319 324 314 313 313 314 315 316 316 317 317 318 316 315 316 316 316 315 318 318 319 316 317 316 316 318 317 315 314 303 311
308 307 307 309 312 313 314 314 314 317 317 322 324 317 319 319 323 317 311 314 314 313 315 317 318 317 318 319 318 316 317 316 316 316 314 318 321 317 316 316 315 316 314 316 313 315 318
309 308 307 308 311 313 314 314 314 317 320 323 326 310 319 323 320 309 310 309 314 315 316 318 319 320 319 320 318 318 318 317 316 316 314 315 316 314 314 316 318 316 315 315 315 314 315
309 308 307 307 310 312 314 314 314 316 320 325 313 313 321 320 314 308 312 314 314 316 315 316 316 318 319 318 319 319 320 318 314 316 318 315 311 313 315 314 315 315 316 313 311 313 311
309 308 306 307 309 312 314 314 314 314 320 321 315 314 317 315 311 305 314 316 315 316 316 316 317 317 316 317 318 318 318 316 314 316 317 314 311 311 310 312 312 317 316 314 309 308 314
310 309 307 306 309 312 313 314 314 314 320 318 310 314 312 310 309 313 315 316 317 315 315 315 316 315 316 316 315 318 318 317 314 316 313 312 312 311 311 311 311 316 317 315 314 316 314
310 310 309 307 309 312 314 314 314 314 319 317 309 312 313 311 312 314 315 316 318 317 315 314 316 316 316 316 316 319 317 316 314 314 314 312 316 313 313 313 313 315 316 315 315 314 317
310 311 310 308 310 312 314 314 314 315 320 315 314 314 310 312 314 313 310 316 319 317 316 317 317 317 317 317 316 319 318 316 316 315 315 310 311 314 313 313 313 314 314 314 314 314 314
311 311 311 309 310 312 314 314 314 317 320 316 313 312 311 305 306 309 310 315 316 315 314 314 314 313 312 316 314 315 313 313 313 315 312 313 306 309 309 310 309 309 309 312 313 311 311
311 312 311 311 312 313 314 314 314 319 318 317 316 309 307 307 301 309 315 315 315 315 315 314 312 309 312 310 309 306 305 303 308 311 311 306 304 305 308 312 317 311 310 310 310 309 308
312 312 312 311 313 314 314 314 314 317 318 319 317 312 305 305 304 311 314 314 313 312 315 315 316 310 308 306 306 304 304 302 303 309 310 306 307 310 316 315 312 314 311 311 310 309 309
312 312 312 312 313 314 314 314 314 314 320 318 316 313 307 305 308 312 313 312 307 308 307 315 311 309 305 299 302 303 305 307 311 310 306 305 300 304 310 314 316 310 308 308 311 311 310
312 312 313 313 314 315 315 314 314 314 318 319 318 317 312 304 308 311 309 310 307 306 308 304 313 306 305 301 306 302 307 307 310 304 302 304 306 315 315 313 310 307 306 308 314 312 310
312 313 314 314 313 314 315 315 315 314 315 319 318 317 315 304 308 314 312 311 309 307 307 308 308 303 306 309 305 306 297 304 307 308 306 306 304 302 306 310 310 306 310 313 310 310 309
312 312 313 314 314 313 314 314 315 315 314 316 318 317 316 311 309 316 317 315 313 311 307 303 309 306 304 305 305 300 303 301 305 314 306 310 308 310 312 308 306 307 311 308 308 308 307

GFSGBSN_925_thetae_009.txt.gz
Theta_e
308 310 312 311 311 311 311 310 309 310 311 312 313 313 312 311 311 310 310 311 312 313 313 314 314 317 315 314 315 316 317 317 317 317 314 314 315 315 316 315 315 315 313 312 312 310 311
310 313 312 312 312 311 311 310 310 311 312 313 313 313 311 311 310 310 311 312 314 314 314 314 315 318 314 316 316 316 317 315 316 318 315 315 314 313 316 315 316 315 315 314 313 313 313
312 313 313 313 312 312 310 310 311 312 313 313 313 312 311 311 311 312 313 314 314 314 314 315 316 318 314 316 317 315 314 315 315 317 316 315 314 315 315 317 314 314 315 313 313 312 314
312 314 313 313 313 312 311 311 312 313 313 313 313 313 313 313 313 314 314 314 314 315 315 315 318 316 316 317 316 315 314 314 315 316 316 316 315 314 314 313 312 313 313 317 314 315 313
312 314 313 313 312 312 312 311 312 313 313 313 314 314 315 315 315 315 315 315 315 315 317 317 318 315 316 316 316 315 314 314 315 316 316 315 312 312 312 314 315 313 314 315 315 313 316
311 315 314 313 312 313 312 312 312 313 314 314 315 315 316 316 316 316 315 315 315 316 316 314 314 314 314 314 314 315 313 315 314 313 315 315 312 314 314 314 314 316 314 315 315 315 317
310 314 315 313 313 313 312 313 312 312 313 315 315 315 315 317 318 317 318 319 313 314 313 312 312 312 312 314 314 313 312 314 312 313 316 313 316 315 314 313 313 314 314 316 315 314 317
309 313 315 314 313 313 313 312 313 312 312 314 315 315 318 319 321 320 320 319 316 318 313 311 311 312 313 313 313 313 314 314 314 314 313 315 315 312 312 312 313 314 315 314 315 313 317
307 311 314 315 313 313 313 313 313 313 312 313 314 314 316 319 320 321 321 323 324 321 313 313 312 313 313 314 313 314 312 313 312 314 313 316 313 312 313 314 317 316 315 315 316 315 315
305 307 311 314 314 313 313 313 312 314 313 313 314 314 315 320 318 317 319 320 323 319 314 314 314 314 313 312 314 314 313 313 315 313 314 312 311 314 316 316 315 318 314 316 316 319 321
306 306 307 313 314 313 313 313 313 314 314 312 314 314 318 318 318 319 318 318 326 315 316 314 315 314 311 313 312 316 313 315 315 315 315 313 314 316 318 315 314 319 315 316 317 319 319
306 306 307 310 314 313 313 313 313 313 314 313 314 315 320 320 320 320 317 322 321 318 317 316 314 314 315 314 315 314 314 313 313 316 317 315 313 314 315 314 315 315 316 314 315 318 324
307 306 307 309 312 314 313 313 314 313 316 316 315 315 317 319 317 318 320 317 320 319 316 316 315 314 313 315 316 315 315 317 318 315 320 318 317 316 314 318 317 318 316 321 325 326 325
307 306 307 309 312 314 314 313 315 313 318 318 318 317 318 319 318 319 319 318 319 317 316 314 314 315 316 315 316 316 317 318 316 316 319 320 319 318 317 317 318 319 318 323 321 324 323
307 306 307 309 311 313 314 313 315 314 318 320 317 316 317 319 320 322 316 318 316 315 314 315 316 317 318 318 316 316 316 317 316 316 320 321 319 316 316 316 316 319 322 316 317 308 322
308 307 307 308 311 312 314 314 314 317 318 322 317 317 319 320 324 315 315 314 313 313 315 315 318 317 319 319 318 317 317 316 316 315 314 318 321 316 316 315 316 318 315 320 320 323 322
309 308 307 307 310 312 313 314 314 317 320 323 321 315 319 323 316 311 315 311 313 315 315 317 318 319 318 319 318 318 318 316 315 316 315 315 317 316 314 318 319 319 319 317 317 319 325
309 309 307 306 308 311 313 314 314 317 320 324 311 318 317 321 314 308 313 313 314 316 315 316 316 318 318 318 319 319 320 317 313 315 318 315 315 316 316 314 315 316 316 314 318 316 317
309 309 307 306 307 310 312 314 314 317 319 320 315 316 315 315 315 309 314 315 314 316 315 316 317 317 316 317 319 318 318 315 314 316 317 315 315 315 311 314 313 318 317 313 312 313 319
309 309 307 306 307 310 312 313 314 316 319 316 311 318 313 310 309 314 315 316 317 314 315 315 315 315 316 317 317 319 318 316 314 315 313 314 314 313 314 311 313 316 316 315 317 320 318
309 309 308 307 308 310 312 313 314 316 319 315 310 314 312 313 315 314 314 315 317 317 314 314 317 316 316 316 317 319 317 316 314 314 315 315 319 315 314 314 314 315 316 316 317 318 319
309 310 310 308 308 311 312 313 314 317 319 314 315 315 310 311 311 313 310 317 317 316 315 317 317 316 316 316 315 317 317 316 316 314 315 311 315 314 315 312 312 314 314 314 315 316 316
310 310 310 309 309 311 313 313 314 318 319 314 312 310 312 305 307 312 312 315 316 315 314 314 315 314 312 316 314 314 313 312 313 315 314 314 314 313 314 311 312 314 310 313 314 313 314
310 311 311 310 310 312 313 313 314 319 317 317 313 308 310 310 305 311 314 314 314 314 316 313 312 311 311 310 308 307 304 305 309 311 311 309 310 310 316 313 318 314 310 311 313 312 311
311 311 311 311 311 313 313 314 313 318 318 317 314 310 307 306 306 311 313 313 312 311 313 314 314 309 307 308 309 308 308 305 306 309 309 308 310 313 315 316 314 314 313 311 312 312 310
311 311 312 312 312 313 314 314 314 315 318 317 314 311 307 306 311 311 312 311 310 309 310 313 310 307 306 304 308 310 312 309 312 310 306 307 304 314 313 318 319 314 308 308 310 315 312
311 311 312 312 313 314 314 314 314 314 319 317 317 315 310 307 308 310 312 312 308 308 310 307 312 309 306 307 311 313 316 307 314 308 305 308 308 312 314 315 315 310 308 307 316 316 310
311 312 312 312 313 314 314 314 314 314 317 318 316 315 313 305 309 312 310 310 309 308 312 309 311 307 307 310 311 311 309 310 310 309 308 310 312 310 309 312 313 306 309 314 313 311 310
311 311 312 313 313 313 314 314 315 315 314 317 317 315 314 310 310 315 316 312 312 310 309 304 310 308 309 308 305 305 308 302 307 316 306 313 311 313 312 313 308 307 311 311 308 309 307

GFSGBSN_925_thetae_012.txt.gz
Theta_e
310 310 312 312 313 312 312 312 310 309 310 311 312 313 313 312 312 311 311 310 311 312 313 313 315 316 316 320 318 316 316 316 317 316 318 320 319 319 317 317 317 317 317 317 316 315 315
309 312 313 313 313 313 312 310 310 311 312 312 313 313 312 311 311 310 310 311 312 313 313 314 316 316 319 318 317 315 317 316 318 319 319 319 319 319 319 319 319 319 319 318 317 317 317
310 312 313 313 313 313 311 311 311 312 313 313 313 312 311 310 310 310 311 313 314 314 314 315 316 316 319 318 316 316 315 316 316 318 320 318 318 320 321 321 319 319 319 320 318 318 318
310 313 313 313 313 312 311 311 312 312 313 313 312 311 311 311 311 313 314 314 313 314 315 316 318 316 318 317 316 316 315 315 316 317 319 317 318 319 320 318 318 319 320 320 319 319 319
310 314 314 313 313 313 312 312 312 313 313 313 313 313 313 313 314 314 314 314 315 315 316 316 319 321 318 316 317 316 314 317 317 317 317 315 317 319 318 320 319 318 317 318 319 319 320
310 314 314 313 313 313 312 312 312 313 314 314 314 315 315 315 315 315 315 315 315 316 315 314 315 318 317 316 315 314 314 316 318 319 320 319 320 320 319 317 316 317 317 318 318 319 319
309 314 315 313 313 313 312 312 312 312 314 315 315 315 315 316 315 315 315 317 319 320 317 317 317 316 316 316 315 316 314 317 318 320 320 319 320 320 319 319 318 318 318 318 318 318 320
308 312 314 314 313 313 313 312 312 312 313 315 315 316 318 321 319 319 319 322 321 319 317 315 315 316 314 315 318 318 317 319 319 319 319 319 319 317 317 317 317 318 318 318 319 318 320
307 310 313 314 313 313 313 312 313 313 313 313 314 316 318 320 320 321 325 325 323 318 318 317 316 317 316 318 319 319 318 318 318 318 319 319 317 315 318 320 321 320 319 321 321 320 320
306 307 311 314 313 313 313 313 313 314 313 312 313 314 316 319 320 320 322 321 322 318 319 317 317 317 316 316 318 317 316 317 318 318 318 318 317 319 320 320 321 321 319 320 321 322 322
305 306 308 313 313 313 313 313 313 314 313 313 313 316 316 318 321 321 321 320 325 321 322 317 318 315 318 318 317 319 316 319 319 318 319 317 319 320 321 319 320 322 320 321 321 323 323
306 306 307 312 314 313 313 314 313 313 313 313 314 320 320 320 321 320 317 322 324 328 321 319 318 319 320 319 318 319 319 318 318 320 319 319 318 320 320 319 319 320 321 321 322 325 327
306 306 308 311 313 313 313 314 313 313 314 314 314 316 319 317 323 318 319 325 324 324 319 318 318 319 320 320 320 319 321 322 321 321 322 320 321 320 320 321 321 322 322 325 329 329 328
307 306 308 310 312 314 313 314 314 314 317 317 316 317 319 318 318 320 322 328 323 321 320 317 318 319 320 320 320 320 320 322 320 320 322 322 324 322 320 321 322 322 323 327 326 326 324
308 306 307 309 312 313 313 314 315 315 318 318 318 317 320 319 320 319 326 329 325 321 318 319 319 320 321 320 320 321 321 321 320 321 323 323 322 320 319 319 320 322 324 320 324 319 328
308 307 307 308 311 313 314 314 316 316 319 318 319 321 323 320 322 322 327 319 319 317 318 319 321 320 322 322 322 322 322 319 320 319 319 321 323 319 319 319 320 321 319 324 322 330 319
309 308 307 307 309 312 314 314 316 318 320 321 319 321 320 322 316 323 327 321 319 318 319 321 321 322 322 322 322 322 321 319 319 319 319 318 320 319 319 322 322 322 322 321 320 323 322
309 309 307 306 308 311 313 314 316 319 322 325 320 325 318 318 324 320 322 320 316 320 319 321 321 322 323 322 323 323 323 321 318 319 320 319 321 318 317 318 318 319 320 319 320 319 321
309 309 307 306 307 310 312 314 315 320 320 321 324 324 316 318 330 327 319 319 319 320 319 321 322 321 321 322 324 322 322 319 319 320 321 319 320 316 317 320 319 321 319 319 319 319 321
309 309 307 306 307 310 312 313 314 319 319 317 323 333 323 319 318 322 322 321 321 318 319 319 320 320 322 322 322 323 323 320 318 319 313 316 320 318 314 314 316 316 315 317 318 322 319
309 309 308 307 307 310 312 313 314 318 317 317 322 325 320 328 323 322 321 321 321 321 319 319 320 321 322 323 322 323 322 320 318 315 319 320 319 319 317 316 316 316 316 316 317 318 320
309 309 309 308 308 310 312 312 314 317 317 318 324 324 318 319 319 321 319 321 321 319 320 320 321 320 319 319 317 320 317 317 315 319 318 318 319 317 317 315 315 316 316 315 316 317 318
309 309 310 308 309 310 312 313 315 317 317 320 315 314 322 312 319 324 322 321 320 320 319 319 320 320 320 318 318 319 318 318 318 318 319 320 320 319 323 315 316 321 317 315 315 316 316
310 310 310 309 309 311 312 313 315 317 317 318 316 316 327 324 321 322 319 320 320 319 321 318 318 322 317 315 315 315 314 315 317 317 317 316 319 316 322 319 324 316 314 314 315 315 314
310 310 311 310 310 312 313 313 314 318 317 316 312 316 320 318 320 318 320 320 319 318 319 318 318 315 316 317 320 321 316 316 315 313 315 316 318 318 319 318 316 315 314 314 314 315 314
310 311 311 311 311 313 313 313 314 318 317 315 312 311 316 314 323 317 319 319 321 322 321 318 314 312 315 319 320 323 320 315 315 315 310 312 313 321 318 319 320 317 313 311 313 317 314
311 311 311 311 312 313 314 314 314 317 317 317 315 313 316 323 315 316 321 320 318 320 322 319 318 317 315 319 322 325 321 314 317 319 316 314 313 317 317 319 317 314 312 312 319 320 315
311 311 311 312 312 313 314 314 314 314 318 317 315 315 317 318 316 315 314 317 316 319 324 318 320 318 318 316 318 319 319 318 316 314 315 318 320 317 316 316 318 311 312 317 315 313 310
311 311 311 312 312 313 314 314 315 314 315 317 319 314 313 319 318 315 316 313 316 316 318 317 319 318 321 320 314 312 313 310 320 320 313 317 315 316 315 318 314 314 315 312 312 312 308

GFSGBSN_925_thetae_015.txt.gz
Theta_e
312 310 311 312 313 313 313 314 314 312 310 310 311 312 312 312 312 312 312 311 310 311 312 313 314 316 318 324 319 318 317 318 320 319 320 320 320 319 317 317 317 316 316 316 316 315 316
310 311 312 313 313 313 313 313 311 310 311 311 312 312 313 312 312 312 311 310 311 312 313 314 315 316 324 321 318 318 317 318 320 320 319 319 319 319 318 317 319 319 319 319 318 318 318
310 311 313 313 313 313 312 311 311 311 312 312 313 313 312 311 311 310 310 311 312 313 313 315 316 319 324 320 318 317 317 318 319 320 320 320 319 319 320 320 320 320 320 321 320 320 320
310 311 314 313 313 313 312 311 311 312 312 313 313 312 311 310 310 310 311 312 313 313 314 316 317 322 322 318 318 317 317 317 318 320 320 320 320 321 322 321 320 320 321 322 321 321 321
310 312 314 314 313 313 312 312 312 313 313 313 312 312 311 311 311 312 313 314 314 315 315 317 321 326 319 316 317 317 317 318 319 321 319 318 321 321 322 321 321 320 322 320 321 321 321
309 312 314 314 313 313 312 312 312 312 313 313 313 313 313 313 314 314 314 315 315 316 316 318 321 321 317 318 316 316 317 318 321 321 321 321 321 321 321 321 321 320 318 318 319 321 319
309 312 314 314 313 313 313 312 311 313 314 314 315 315 315 315 315 315 315 318 321 323 319 320 318 318 317 316 316 317 318 319 320 322 322 321 322 322 321 320 319 318 318 319 320 320 319
308 311 312 314 313 313 313 312 312 312 314 315 315 315 316 316 315 315 321 325 325 322 318 317 318 318 318 318 318 319 319 320 321 321 320 319 321 320 319 319 319 320 320 321 321 320 320
307 309 311 314 313 313 313 312 313 312 313 314 315 317 319 321 318 320 326 326 325 323 319 318 318 318 318 319 320 320 320 319 319 319 318 321 320 318 320 320 321 322 321 323 322 321 321
306 307 310 313 313 313 313 313 313 313 313 313 314 314 319 319 323 325 325 325 327 325 321 317 318 318 318 319 320 320 319 320 319 318 319 320 320 320 320 322 322 323 321 321 322 322 323
306 306 308 313 313 313 313 313 313 314 313 313 314 315 317 318 323 322 324 327 330 330 325 318 319 319 319 320 320 321 320 320 320 320 321 321 321 322 322 322 321 323 322 322 323 324 323
306 306 308 312 313 313 313 314 313 314 313 313 315 319 317 319 327 325 324 328 331 331 324 320 319 321 321 321 321 321 321 321 321 320 321 321 320 322 322 321 321 322 323 323 325 326 327
307 306 308 311 313 313 313 314 313 314 313 314 315 319 322 323 324 325 326 329 322 329 320 320 320 321 321 321 322 322 322 323 324 324 324 322 322 322 321 323 324 323 325 329 330 330 330
307 307 308 310 312 313 313 314 313 314 314 315 315 319 321 326 325 323 327 325 329 323 320 320 320 321 322 322 322 322 323 324 322 323 323 324 327 322 321 323 324 323 325 330 327 328 325
307 307 308 310 312 313 314 314 314 317 317 316 317 325 326 325 323 325 326 331 325 321 320 320 320 321 322 321 322 323 323 323 321 323 325 324 325 321 321 322 322 324 325 322 327 325 328
308 307 307 309 311 313 314 314 316 318 317 317 320 320 323 319 320 327 331 324 323 320 320 320 322 322 323 322 323 324 323 321 321 320 321 322 326 320 321 321 322 323 321 326 324 328 321
308 307 307 307 310 312 314 315 317 318 317 319 320 322 326 322 322 327 331 324 321 320 321 322 322 322 323 323 323 324 323 321 321 321 320 319 321 322 320 322 322 324 324 322 320 322 324
309 308 307 307 309 311 313 314 319 319 320 322 322 325 324 324 325 327 327 322 317 321 322 323 323 323 324 324 324 324 324 324 320 321 322 320 321 320 318 320 321 321 322 320 321 319 320
309 309 307 306 308 311 313 314 319 319 324 325 323 326 323 325 332 332 323 322 322 322 322 323 324 324 324 325 326 324 324 321 321 322 323 320 322 320 319 322 321 320 320 318 318 319 319
309 309 307 306 308 310 312 313 317 319 321 323 325 332 325 325 324 324 324 323 323 321 322 323 323 323 324 324 324 325 325 322 321 321 314 318 320 319 319 317 316 316 316 316 317 321 321
309 309 308 307 308 310 312 313 316 318 318 322 325 328 325 329 327 325 324 323 323 322 322 322 323 323 324 325 324 325 324 323 320 316 320 321 320 319 318 316 315 316 316 316 316 316 319
309 309 308 307 308 310 311 313 316 317 316 323 323 325 323 326 324 324 321 323 322 321 322 322 323 322 322 324 320 322 320 318 317 319 319 319 322 319 319 317 315 316 315 315 316 316 317
309 309 309 308 308 310 311 313 316 317 318 323 321 322 325 317 325 325 324 323 322 322 322 321 322 321 323 320 320 320 320 319 318 319 320 321 322 319 322 319 318 323 319 315 316 316 317
309 309 310 309 308 310 312 313 316 317 319 323 322 322 330 327 326 325 322 322 322 322 322 321 320 322 321 319 318 318 318 318 319 320 319 322 321 322 324 320 327 319 316 316 316 316 315
310 310 310 309 309 311 312 313 316 317 317 321 317 322 325 329 324 323 322 322 322 321 322 322 320 320 319 320 322 320 317 315 318 317 318 319 321 320 323 320 317 317 316 316 316 317 315
310 310 310 310 310 311 312 313 315 318 316 320 317 318 322 321 328 322 323 323 325 325 324 321 318 318 320 323 323 324 323 317 319 318 314 317 319 323 320 321 321 319 316 314 315 318 317
310 310 311 311 311 312 313 313 314 317 317 322 320 314 321 328 320 321 324 324 322 323 324 323 321 321 320 323 322 327 322 317 318 320 315 317 317 324 319 321 318 315 314 314 318 320 316
310 311 311 311 312 313 313 314 314 315 317 321 319 314 323 323 320 319 319 321 322 322 327 323 322 322 324 320 322 324 322 320 319 316 318 318 321 318 318 320 319 314 314 319 317 317 315
311 311 311 312 312 313 314 314 314 314 317 318 320 314 319 322 322 320 318 318 319 319 321 322 321 322 322 324 322 323 324 316 321 321 316 318 318 319 318 319 315 314 315 315 315 315 312

GFSGBSN_925_thetae_018.txt.gz
Theta_e
310 311 311 312 313 313 312 313 314 314 311 310 310 310 311 312 312 312 312 311 311 310 311 312 313 314 318 326 320 318 318 319 319 321 321 320 320 319 318 318 317 316 316 315 315 315 316
310 310 312 313 313 313 313 313 312 311 311 311 311 311 312 312 312 312 311 311 310 311 311 313 314 316 324 324 318 318 318 319 320 319 319 320 320 319 317 317 318 317 317 317 317 317 317
310 311 312 313 313 313 313 312 311 311 311 312 312 312 312 313 312 311 311 310 311 311 312 314 315 319 325 322 318 318 318 318 319 320 321 320 319 318 319 319 320 319 319 319 319 319 318
310 311 313 314 313 313 313 312 311 311 312 312 312 312 312 312 311 311 310 311 311 313 313 315 316 321 325 319 318 317 317 318 318 320 320 319 319 321 322 321 319 319 320 321 320 321 320
310 311 313 314 313 313 313 312 311 312 312 312 312 312 311 310 310 310 311 312 313 314 315 316 318 326 324 317 317 318 317 318 319 320 320 319 320 320 320 319 320 321 321 322 322 321 322
310 311 313 314 313 313 313 312 311 312 312 313 313 312 311 311 311 312 313 313 314 315 316 320 322 325 320 318 317 316 317 318 320 321 320 320 321 321 321 321 321 320 320 319 319 321 319
310 310 313 314 313 313 313 312 312 311 313 314 314 313 313 313 313 314 314 316 321 322 322 320 318 319 317 316 315 317 317 319 321 321 322 321 321 323 321 320 318 319 318 319 321 320 319
309 309 312 314 313 313 313 312 312 312 313 314 315 315 315 315 315 315 319 324 324 322 320 319 318 318 317 318 318 318 318 321 320 321 322 319 321 320 320 319 319 319 320 320 321 320 319
308 308 311 313 313 313 313 313 312 312 313 314 315 317 316 316 315 315 322 327 325 327 319 318 319 318 319 320 319 319 320 320 320 321 318 322 320 318 319 320 321 321 321 324 322 321 321
308 307 309 313 313 313 313 313 313 313 312 313 315 318 320 319 319 324 326 324 327 325 320 316 318 318 318 320 319 319 319 320 319 319 318 321 320 319 320 321 322 322 323 322 321 322 323
307 306 308 312 313 313 313 313 313 313 313 313 314 315 318 318 324 324 326 326 329 331 328 319 318 319 318 320 320 320 319 319 320 319 320 321 320 322 323 323 321 323 322 322 322 323 323
307 306 307 311 313 313 313 314 313 314 313 313 317 318 318 319 329 326 326 330 330 337 329 319 319 320 319 320 321 320 319 321 321 319 321 321 321 322 322 321 321 321 324 324 324 325 333
308 306 307 310 312 313 313 314 313 313 313 313 318 319 321 327 329 327 328 330 323 332 320 320 320 320 321 321 321 322 322 322 324 323 324 322 323 322 321 323 324 324 325 334 337 337 336
308 306 308 310 312 313 313 314 313 313 313 314 315 317 324 328 328 324 329 327 331 323 320 319 320 321 322 322 322 322 323 323 322 324 324 324 327 323 322 323 323 324 324 336 331 334 329
308 307 307 310 311 313 313 314 313 314 314 315 316 325 327 329 325 328 329 332 328 321 321 320 320 321 322 322 322 323 324 323 321 324 327 324 325 321 321 321 321 324 326 320 327 326 331
308 307 307 309 311 313 313 314 315 316 316 316 322 322 323 321 324 329 333 332 325 321 320 320 321 322 322 321 322 323 323 322 321 320 321 321 327 321 320 321 323 322 320 327 331 331 325
308 307 307 307 310 312 313 315 316 318 317 317 325 321 328 319 322 326 333 330 322 320 322 321 322 322 323 322 323 324 324 322 322 321 320 320 321 323 320 322 321 323 324 322 320 325 327
308 308 307 307 309 311 313 315 318 318 317 320 325 324 327 321 322 325 330 324 317 321 323 324 323 322 323 323 324 324 324 325 321 321 322 318 321 328 319 319 319 320 321 320 330 323 329
309 308 307 306 308 311 313 314 318 319 318 325 323 329 326 327 332 338 325 323 322 322 322 322 324 324 324 325 326 324 326 322 322 323 324 320 324 327 322 323 321 319 319 318 319 323 322
309 309 307 306 308 311 312 314 318 319 321 323 328 331 324 325 328 326 326 324 324 323 323 323 324 323 324 325 324 325 325 323 322 320 315 320 320 319 323 318 316 316 316 316 317 326 324
309 309 307 306 308 310 312 313 317 319 320 319 328 329 323 328 327 325 324 323 324 324 323 323 323 323 324 325 325 325 325 323 321 316 319 321 321 320 319 316 316 315 315 316 316 317 319
309 309 308 307 308 310 312 313 317 317 317 322 329 326 326 326 326 325 322 324 323 322 323 322 323 323 324 326 323 324 323 321 320 319 320 320 324 322 320 317 316 316 315 316 316 316 316
309 309 309 308 308 310 312 313 316 317 317 324 324 325 326 322 326 328 327 324 323 323 323 322 322 323 325 323 322 321 320 320 318 321 320 322 327 323 325 319 319 326 321 317 316 316 316
309 309 309 308 309 310 311 313 316 316 321 327 326 324 333 331 328 325 324 323 323 323 322 322 322 325 322 318 318 319 319 320 319 320 320 323 322 322 324 320 324 318 315 316 316 316 315
309 310 310 309 309 311 312 313 317 316 319 323 321 327 328 324 327 324 323 322 323 322 323 323 322 321 320 320 325 318 320 316 319 318 318 320 323 320 325 321 318 316 317 316 316 317 316
309 310 310 310 310 311 312 313 316 317 319 322 316 323 327 324 331 323 323 324 326 327 325 322 320 320 320 327 324 323 327 320 321 318 316 319 323 325 319 322 320 319 316 315 315 318 318
310 310 310 310 311 312 313 313 314 317 319 324 321 319 328 331 323 324 326 327 324 326 326 323 322 322 322 323 319 332 326 318 322 322 316 316 319 321 320 320 319 315 315 315 317 320 317
310 310 311 311 311 312 313 313 313 316 317 324 319 316 327 327 322 322 322 324 323 325 330 324 324 326 329 319 323 327 323 324 322 319 318 317 319 317 319 319 320 315 315 317 318 317 316
310 311 311 311 312 313 313 314 314 314 316 321 322 318 322 326 324 322 320 320 319 321 324 325 322 324 325 325 325 325 316 316 320 325 316 321 322 324 320 320 317 316 315 315 315 316 313

GFSGBSN_925_thetae_021.txt.gz
Theta_e
311 310 311 311 312 313 313 312 312 312 312 311 311 310 310 311 311 312 311 310 310 310 310 310 311 313 319 326 323 317 318 318 318 317 321 322 320 316 316 315 315 312 312 312 312 313 313
310 311 310 312 313 313 313 313 313 311 311 311 311 311 311 312 312 312 311 311 311 310 310 310 312 315 321 323 319 318 318 318 318 320 322 321 318 316 316 317 314 314 312 312 313 314 315
310 310 311 312 313 313 313 313 312 311 311 311 312 312 312 312 312 312 311 311 311 310 311 312 314 317 324 326 320 318 318 318 318 319 319 319 319 316 317 317 318 316 315 314 315 314 316
309 310 311 313 313 313 313 313 312 311 312 312 312 312 312 312 312 311 311 311 310 311 312 314 315 321 324 319 318 317 317 317 318 319 320 320 319 318 320 317 317 317 316 316 316 315 316
309 310 311 313 313 313 313 312 312 311 312 312 312 312 312 312 311 311 310 310 311 313 313 315 317 324 325 318 316 317 317 317 318 319 320 319 319 319 318 316 316 317 316 319 318 317 317
309 311 311 314 313 313 313 312 312 311 312 312 312 311 310 310 310 310 311 312 313 314 316 317 320 323 323 318 317 316 317 317 319 320 319 318 317 317 315 315 318 318 317 319 318 318 317
309 311 312 313 313 313 313 312 312 312 312 313 313 312 311 311 311 312 313 315 319 321 321 320 320 323 317 315 315 316 317 317 319 320 319 318 318 318 318 318 317 317 317 318 317 318 318
309 310 312 312 313 313 313 313 312 312 313 314 314 314 314 313 313 313 317 323 322 322 320 321 319 318 317 316 316 316 318 319 320 320 319 318 319 318 318 318 319 318 319 321 318 318 317
309 309 311 312 313 313 312 313 312 312 313 314 314 315 315 315 314 314 315 324 325 324 318 318 318 317 318 318 318 317 319 319 319 319 320 319 318 318 318 320 320 321 321 320 320 318 318
309 308 309 311 313 313 312 313 313 313 312 313 314 317 316 316 315 316 321 323 327 327 316 317 318 317 318 319 319 318 319 319 319 319 319 319 318 319 319 321 319 324 322 322 321 320 320
309 308 307 310 313 313 313 313 313 313 312 313 313 317 319 317 320 328 325 326 326 330 320 317 319 317 318 319 318 318 318 320 319 319 319 319 320 322 323 321 320 323 321 321 321 320 321
308 307 307 309 312 313 313 313 313 313 313 313 316 316 318 320 323 327 325 327 327 330 321 320 318 319 317 320 320 317 318 319 320 319 318 319 319 320 320 321 320 319 322 323 323 321 323
308 306 307 309 312 313 313 314 313 313 313 313 318 317 321 327 330 326 323 328 323 327 322 318 319 320 320 320 321 320 319 320 322 321 321 320 321 321 320 322 322 321 323 324 326 326 326
308 307 307 309 311 313 313 314 313 313 313 314 318 318 326 328 328 325 329 326 330 324 320 318 319 321 321 321 321 321 321 321 320 324 324 324 325 320 321 321 321 323 323 320 329 325 323
308 307 307 309 311 312 313 314 314 313 313 314 315 321 328 325 318 322 326 328 329 323 320 320 320 322 321 321 322 322 321 321 319 319 325 326 323 320 319 319 319 322 320 319 323 322 319
308 307 307 308 310 312 313 314 315 313 314 315 321 324 326 324 317 327 327 329 326 320 320 320 321 321 322 320 322 323 323 321 320 319 319 320 323 320 319 319 321 320 318 322 319 322 323
308 307 307 307 309 311 313 314 316 316 315 316 323 320 328 324 318 322 327 332 322 320 322 323 323 321 323 321 321 323 323 321 321 320 316 318 322 320 318 318 319 320 322 320 319 317 320
308 307 307 307 308 311 313 314 317 317 316 317 326 321 327 324 320 322 325 327 316 321 322 323 323 322 323 322 325 325 325 323 320 321 320 317 319 316 320 318 318 319 320 320 315 320 315
308 308 307 306 307 311 312 315 317 317 317 322 324 326 327 328 319 319 325 323 322 321 322 322 324 324 323 325 324 327 325 322 322 320 321 319 319 318 321 322 320 317 318 318 320 313 316
308 308 307 306 307 310 312 314 318 318 317 323 326 322 324 324 324 328 327 323 324 322 323 323 323 323 324 324 324 326 324 323 320 317 315 319 319 317 318 317 315 315 315 314 317 315 316
309 309 307 306 308 310 312 314 317 318 319 321 325 325 320 319 319 323 325 324 324 323 322 322 322 323 324 324 324 326 324 323 321 315 319 318 319 319 318 316 315 314 314 313 314 314 314
309 309 308 307 308 310 312 314 317 317 319 321 328 328 322 321 318 324 322 324 324 323 322 323 322 322 323 324 323 325 323 321 321 317 319 318 318 317 316 317 315 314 314 315 314 315 316
309 309 308 307 309 311 311 314 316 316 316 324 326 325 325 323 321 323 323 324 324 323 322 323 322 321 318 320 318 318 317 317 319 319 319 320 313 312 317 316 315 313 316 315 315 315 315
309 309 309 308 309 311 311 314 316 316 321 325 325 327 320 319 324 324 325 324 323 322 322 323 321 319 319 315 312 312 311 313 319 317 320 315 315 310 309 307 305 317 314 315 315 314 313
309 309 309 309 310 311 312 314 317 317 322 322 323 327 317 313 325 325 322 323 321 322 322 322 321 318 316 319 312 310 309 306 312 316 317 318 311 306 310 313 312 316 316 315 315 314 316
309 309 310 310 311 312 312 313 317 318 321 317 318 326 321 314 318 325 322 321 321 322 321 321 319 319 320 310 306 310 313 313 316 317 313 316 310 308 311 307 306 312 315 314 314 312 316
309 310 310 310 311 312 312 313 316 317 323 322 315 322 328 319 321 322 323 321 322 321 319 320 321 320 317 307 313 312 314 316 317 315 309 312 313 307 305 303 309 314 314 314 312 310 315
309 310 310 311 311 312 313 313 314 316 322 323 316 323 324 317 319 321 321 322 323 320 315 318 314 313 308 314 311 311 310 311 314 315 312 308 309 307 311 313 311 313 314 311 310 314 313
310 310 311 311 312 312 313 313 313 315 318 323 319 321 322 321 320 320 319 319 320 322 319 318 314 320 316 313 308 310 312 314 312 312 314 315 312 311 311 310 310 313 312 313 312 312 310

GFSGBSN_925_thetae_024.txt.gz
Theta_e
314 312 311 310 311 311 312 313 312 312 312 311 311 311 311 310 311 311 311 311 310 311 310 310 310 312 317 324 320 317 316 316 316 315 317 318 320 316 315 314 312 310 311 311 311 312 311
313 311 310 310 311 312 313 312 312 312 311 311 311 311 311 311 311 312 312 311 310 310 310 310 311 314 318 323 318 319 317 317 316 317 320 320 319 317 316 313 311 311 311 311 311 313 314
312 310 309 310 312 313 313 312 312 312 311 311 311 312 312 312 312 312 311 310 310 310 310 311 313 316 322 323 320 318 316 317 317 319 318 318 318 317 316 316 312 311 312 312 313 314 314
311 309 309 311 312 313 313 312 312 312 311 311 312 312 312 312 312 312 311 311 310 310 310 312 315 319 321 315 317 317 317 317 317 319 319 319 318 317 316 315 315 315 313 314 315 313 315
311 309 309 311 313 313 313 312 312 312 311 312 312 312 312 312 312 311 311 310 310 311 313 314 317 321 317 319 317 317 316 316 318 319 319 318 318 317 314 313 312 314 314 316 317 313 315
310 309 310 311 313 313 312 312 312 311 311 312 312 311 311 311 311 310 310 311 312 313 316 317 318 321 321 321 316 316 316 316 317 318 317 316 313 314 312 313 315 315 315 315 315 315 315
310 309 310 311 313 313 312 312 312 312 312 313 312 311 310 310 310 310 311 314 315 318 319 314 317 322 319 319 316 316 316 316 318 318 318 317 316 316 315 315 315 316 316 316 316 317 317
310 309 310 311 312 313 313 312 312 312 313 313 313 313 312 311 311 312 314 320 318 322 314 318 320 319 319 314 314 315 316 317 318 319 318 316 317 316 316 318 319 318 318 318 317 317 315
309 309 310 310 312 313 313 312 312 312 313 313 314 314 313 313 313 313 314 320 322 323 322 317 318 317 316 318 316 315 318 318 318 318 318 317 317 317 319 318 320 321 319 320 319 318 316
309 309 309 310 312 313 312 312 312 313 312 313 314 314 314 314 314 317 315 317 327 328 313 316 316 316 317 317 317 317 317 318 318 318 317 317 317 318 319 319 318 323 320 320 319 317 317
309 309 309 310 311 313 312 313 313 313 312 313 313 317 315 314 318 324 326 326 327 325 314 314 317 316 317 319 317 317 317 319 318 318 317 319 320 320 320 320 319 321 320 320 320 319 319
309 309 308 309 311 313 313 313 313 313 312 312 313 317 318 316 322 327 325 323 325 323 318 319 317 317 316 318 317 316 317 317 318 318 316 318 318 319 319 319 319 319 321 321 321 319 321
309 308 307 308 311 312 313 313 313 313 312 313 317 316 319 324 328 327 320 320 319 321 319 317 318 317 317 319 319 317 318 319 321 319 319 320 320 319 319 321 319 317 321 321 324 322 323
309 307 306 308 311 312 313 313 313 313 313 315 317 317 324 329 326 323 326 318 327 323 319 317 318 319 319 320 319 320 319 320 318 322 319 322 323 319 319 319 320 321 320 318 329 322 320
309 307 306 308 311 312 313 313 313 312 313 314 317 321 326 323 319 320 319 323 326 322 319 319 319 320 321 320 319 320 319 319 318 318 323 322 321 319 318 318 319 321 318 317 319 317 317
308 307 307 308 310 312 313 314 313 312 313 314 319 324 323 324 317 323 323 324 326 319 321 318 320 320 320 320 321 321 321 320 319 318 317 319 321 319 318 319 318 316 316 320 315 319 322
308 307 307 308 310 312 313 314 314 313 314 316 324 314 324 323 319 316 323 327 323 320 322 322 321 319 321 319 319 322 322 320 319 319 314 319 319 318 320 317 318 318 319 317 315 314 318
308 307 307 307 309 312 313 315 315 315 315 317 320 317 327 325 311 317 322 325 319 319 320 321 322 323 320 320 324 324 324 321 320 320 317 316 316 315 320 317 317 317 319 316 313 316 313
308 307 307 307 309 312 313 316 316 316 316 318 318 322 327 327 311 311 320 322 320 320 320 321 322 322 322 323 325 325 323 320 317 318 320 316 315 315 319 319 318 317 317 318 315 310 314
308 307 307 306 309 311 313 316 317 317 318 324 320 319 318 318 316 318 325 321 322 321 321 321 322 321 322 323 323 324 323 322 317 315 314 317 317 315 318 319 314 314 314 316 315 312 314
308 308 306 306 309 311 312 316 318 317 317 319 321 320 314 314 315 322 323 321 323 322 321 321 321 322 322 323 324 324 322 321 319 314 317 315 317 317 315 314 314 314 313 312 313 312 313
308 308 306 307 309 311 312 316 317 318 317 320 325 324 317 313 314 319 321 322 322 322 321 322 321 321 321 322 321 323 321 320 319 316 318 316 315 313 313 316 315 313 312 313 314 313 314
309 308 307 307 310 311 313 316 316 318 319 320 321 323 317 317 313 318 320 321 322 321 321 321 320 318 317 319 316 315 315 316 317 316 319 316 310 308 310 313 312 311 314 315 314 313 314
309 308 308 308 311 311 313 316 316 315 318 326 325 322 316 316 318 318 323 322 321 320 322 321 318 316 318 314 310 308 309 313 316 316 316 312 311 305 305 303 302 311 312 313 313 314 314
309 309 308 309 311 311 313 316 316 319 321 323 323 323 313 309 320 322 321 321 320 319 320 321 320 315 313 313 307 308 307 308 311 315 317 313 305 306 303 309 306 313 315 314 313 313 315
309 309 309 310 311 312 313 316 317 321 320 319 324 326 312 312 315 322 319 320 318 318 317 319 317 317 312 304 303 309 310 307 315 316 312 312 305 303 309 301 302 306 314 312 311 312 315
309 309 309 310 311 312 312 315 316 322 321 316 319 325 321 315 318 320 318 319 317 316 316 318 319 318 310 301 311 305 314 312 315 312 308 309 304 306 297 300 306 307 313 311 312 310 313
309 310 310 311 312 312 312 313 316 320 321 317 321 324 321 313 318 319 318 320 319 315 313 315 313 310 308 307 304 312 304 309 311 313 310 309 309 306 303 301 309 309 312 311 309 311 311
310 310 310 311 312 312 313 313 314 317 322 318 321 322 322 315 317 318 318 318 320 318 315 313 311 314 311 309 308 311 305 311 307 312 311 311 308 309 310 310 308 309 311 309 310 310 308

GFSGBSN_925_thetae_027.txt.gz
Theta_e
313 314 314 311 310 310 311 311 312 312 312 312 311 311 311 311 310 310 311 311 311 310 310 309 310 311 317 322 318 318 318 316 318 317 314 315 317 316 315 312 311 310 310 311 310 309 309
312 314 314 311 310 309 311 312 312 312 312 312 311 311 311 311 311 311 311 311 311 310 310 310 311 314 317 315 316 318 317 316 315 315 316 316 318 317 315 313 310 310 310 310 311 311 312
312 313 313 311 309 310 311 312 312 312 312 311 311 311 311 311 311 311 311 311 310 310 310 310 313 316 320 316 317 317 316 316 317 316 317 319 318 316 314 311 310 309 310 311 312 312 313
313 312 312 310 309 311 312 312 312 312 312 311 311 311 311 311 311 311 311 311 310 310 310 312 314 318 317 315 316 318 317 315 316 317 319 318 316 315 314 312 312 313 311 312 313 313 312
313 312 312 309 309 311 312 312 312 312 312 311 311 311 311 312 312 311 311 310 310 310 312 314 316 320 314 315 318 317 316 316 317 317 317 317 317 314 312 311 311 311 313 315 316 313 313
313 312 311 309 310 311 313 312 312 312 311 311 311 311 311 311 311 311 310 311 313 313 314 316 318 318 316 317 316 316 316 316 317 317 316 314 312 313 311 310 312 314 315 313 314 314 313
312 313 311 309 310 311 312 312 312 312 311 311 312 311 310 310 310 310 310 314 315 317 317 313 315 317 320 317 315 315 315 316 317 315 317 315 315 316 315 314 315 315 315 315 315 315 313
312 313 310 309 310 311 312 312 312 312 312 312 312 311 310 309 310 310 313 316 316 321 315 317 319 318 318 318 314 314 316 316 317 317 317 315 317 316 316 318 318 317 315 317 317 316 314
312 313 310 309 310 311 312 312 312 312 312 313 313 312 311 310 311 312 314 318 323 318 321 318 315 315 315 316 315 315 316 317 317 317 317 316 316 317 317 317 320 320 318 319 319 315 313
312 312 309 309 310 311 312 312 312 312 312 313 313 313 312 312 313 314 313 317 326 325 313 315 316 315 316 316 316 316 317 317 317 317 315 316 317 318 318 318 319 323 320 319 318 315 315
312 312 309 310 310 311 312 312 312 312 312 313 314 314 314 314 319 322 324 325 328 322 316 312 316 315 316 317 315 315 316 318 317 317 315 319 319 319 319 319 318 320 319 318 318 316 317
313 310 309 309 309 311 312 312 312 312 312 312 314 315 314 315 318 325 325 324 323 320 315 315 316 316 316 317 316 315 316 316 316 316 315 318 317 318 318 318 318 318 320 319 319 318 320
313 309 309 309 308 311 312 312 313 312 312 312 314 318 316 321 327 327 323 316 315 322 317 316 317 315 316 318 317 316 318 318 319 317 319 319 319 317 318 321 318 317 319 320 323 321 322
312 309 309 308 308 311 312 313 313 312 312 314 317 317 319 326 328 324 322 313 323 322 317 316 317 315 318 318 318 319 319 318 316 318 318 320 321 319 317 318 319 320 318 318 328 321 319
311 309 309 307 308 311 312 313 313 312 312 316 316 316 324 323 323 323 314 316 322 321 317 317 318 318 320 319 319 318 318 317 317 317 321 320 320 318 317 317 318 320 317 316 317 314 317
309 309 308 307 309 312 312 313 313 312 312 317 319 322 323 324 321 321 318 323 325 320 318 317 319 318 319 319 320 320 320 319 318 315 316 319 321 318 317 318 317 315 316 319 313 317 321
309 308 307 308 310 311 313 313 313 312 313 315 323 310 323 324 320 313 317 322 327 318 321 318 318 319 319 318 319 320 321 319 319 319 314 318 316 316 319 316 318 317 317 315 314 313 316
309 308 307 308 310 311 312 313 313 312 314 319 315 314 326 322 310 313 320 324 321 319 319 321 321 320 319 320 323 322 322 320 318 320 315 316 314 315 319 315 316 316 317 313 309 314 311
308 307 307 308 310 312 312 315 313 313 315 320 315 322 326 319 309 311 316 322 319 319 319 321 321 321 321 323 323 323 322 319 315 317 318 315 314 315 318 317 315 318 316 315 311 309 314
308 307 307 308 310 312 313 316 314 314 315 321 316 318 316 316 311 313 320 321 321 319 321 320 320 320 320 323 321 322 322 320 314 313 313 314 315 313 316 316 314 313 313 315 313 311 312
307 307 306 307 310 312 313 317 315 315 317 322 317 316 314 315 318 321 320 320 321 321 320 319 320 321 321 323 323 322 322 320 316 314 314 313 315 316 313 313 313 313 312 312 313 312 312
307 306 306 308 311 312 315 317 316 316 320 319 321 319 314 310 313 318 319 322 321 321 321 321 319 320 320 319 319 322 320 318 315 315 316 313 313 311 314 314 313 313 311 309 309 311 312
307 306 306 309 311 312 315 316 317 316 317 317 318 320 314 312 313 315 318 321 321 320 320 319 319 317 316 318 316 314 314 315 315 315 317 312 309 306 306 310 308 306 308 312 313 312 311
307 306 308 310 311 313 316 316 317 316 316 322 324 317 315 314 311 313 320 320 320 319 321 319 316 316 316 310 308 308 308 312 315 315 313 310 307 300 303 302 302 308 309 311 311 312 313
307 307 309 311 312 314 316 316 316 318 318 323 323 318 311 308 316 320 320 320 318 317 319 320 318 314 310 307 306 308 305 307 310 313 313 310 304 305 303 305 305 309 313 312 312 311 312
308 308 310 311 312 313 315 317 318 317 318 321 324 318 312 314 318 320 319 318 317 316 316 319 316 313 308 301 303 305 306 307 313 316 311 307 302 303 305 300 300 305 312 311 310 311 312
309 309 310 311 312 313 315 318 321 320 320 321 323 323 317 314 316 319 317 317 314 313 314 318 318 316 307 300 301 304 311 308 313 311 309 308 302 303 296 299 304 305 311 310 311 307 311
309 310 311 311 312 312 314 316 320 318 316 319 322 323 319 312 317 317 317 317 315 313 313 313 312 309 303 306 303 305 301 308 310 311 311 310 311 309 305 303 310 307 310 311 308 309 310
309 310 311 311 312 312 313 315 319 319 318 321 321 320 319 314 316 317 316 317 318 314 313 310 313 311 309 305 302 305 303 309 305 310 309 310 307 308 308 309 306 306 310 308 308 310 309

GFSGBSN_925_thetae_030.txt.gz
Theta_e
315 314 313 313 313 312 310 309 310 311 312 312 312 312 311 311 311 311 311 312 312 312 309 309 310 311 316 320 316 316 317 316 317 315 314 313 314 315 315 313 311 311 310 310 308 308 309
315 314 313 312 314 312 310 309 310 312 312 312 312 311 311 311 311 311 311 311 311 311 309 310 310 313 315 315 315 317 317 316 317 316 314 313 315 315 316 313 310 309 308 309 309 309 310
315 314 313 312 314 312 309 309 311 312 312 312 312 311 311 311 311 311 311 311 311 310 310 310 312 315 318 316 316 316 316 316 315 315 316 314 315 316 313 312 310 309 310 310 310 311 312
315 314 313 312 313 312 308 310 311 312 312 312 312 311 311 311 311 311 311 311 310 310 310 311 314 317 318 314 315 316 318 316 315 316 316 317 317 315 312 310 311 311 310 310 311 312 311
315 314 313 313 312 311 308 310 312 312 312 312 311 311 311 311 311 311 311 311 309 309 312 314 315 318 316 314 316 318 315 314 315 315 316 316 314 312 311 310 310 310 311 313 315 312 312
315 314 314 313 312 310 309 311 312 312 312 312 311 311 311 311 311 311 311 311 312 312 313 315 317 317 314 314 318 315 315 315 316 315 315 314 311 312 310 309 312 312 313 312 314 313 312
315 315 314 313 312 310 309 311 312 312 312 311 311 311 311 311 311 311 310 313 313 314 316 314 314 314 318 317 313 314 314 315 315 314 316 314 314 314 313 312 312 313 314 314 313 313 311
315 315 314 312 311 309 309 311 312 312 312 311 311 311 310 310 310 310 312 312 313 317 319 316 316 317 317 317 316 313 315 316 316 316 316 314 315 315 316 315 315 314 314 316 316 313 312
316 315 314 312 311 309 310 311 312 312 312 311 312 312 310 309 311 311 314 316 320 321 320 318 317 315 313 316 315 313 315 316 316 317 315 315 315 315 317 317 318 319 317 318 317 314 311
317 316 314 312 311 308 310 311 312 312 312 311 312 312 310 310 311 312 312 314 327 321 312 314 315 315 315 315 316 315 316 316 315 315 314 316 317 316 316 317 317 320 318 317 316 313 316
318 316 314 312 311 309 310 311 312 312 312 311 312 313 311 311 316 315 318 325 327 316 315 313 315 314 315 315 314 315 315 316 315 316 315 319 318 318 317 318 317 319 317 317 316 316 316
318 317 313 312 310 309 310 311 312 312 312 311 312 313 312 313 317 321 326 324 318 319 316 315 315 315 316 316 315 314 316 314 314 316 315 317 316 316 317 317 316 316 319 317 317 316 319
314 317 313 312 309 310 310 311 312 312 312 311 312 313 313 315 324 327 324 313 314 319 316 316 315 315 316 317 315 316 317 317 316 318 319 318 318 316 317 319 317 316 318 319 322 319 322
307 316 312 312 309 310 309 311 312 312 312 311 312 315 313 321 328 326 319 311 317 319 317 314 314 315 317 317 317 317 318 317 315 315 317 319 320 318 316 318 319 317 317 319 326 322 320
304 316 312 310 309 309 309 311 312 312 312 311 314 314 320 324 325 324 311 312 315 319 316 316 315 317 318 318 318 317 317 316 316 317 319 319 319 317 316 316 317 318 316 314 317 314 316
305 314 312 309 309 308 310 312 312 312 311 312 315 316 322 324 324 318 312 314 321 321 317 315 316 317 319 318 319 318 319 318 316 314 315 318 321 316 316 317 315 315 315 317 312 317 320
313 313 311 309 309 308 310 312 312 312 312 316 319 313 321 325 319 310 312 315 324 320 318 317 317 318 318 317 318 320 319 319 318 318 315 316 315 315 317 316 317 317 316 312 313 311 314
311 312 309 309 307 309 311 312 312 312 313 317 309 313 325 322 310 310 318 322 321 318 317 320 319 318 317 319 321 320 320 319 316 319 315 314 312 315 318 315 315 315 316 311 308 312 310
312 311 309 307 307 310 311 312 313 312 314 319 318 321 322 314 310 310 314 320 319 318 319 320 321 320 320 321 322 321 321 318 314 316 315 313 314 316 315 312 313 316 315 311 308 308 313
312 309 308 307 308 310 312 312 314 312 315 317 316 320 315 311 309 312 316 321 320 318 320 318 319 319 320 322 319 321 321 319 313 313 313 312 313 313 315 313 313 314 315 313 311 309 310
310 309 307 308 309 310 312 314 314 312 315 319 313 316 315 317 318 312 316 319 320 320 319 317 319 320 320 322 322 321 321 319 313 313 314 311 314 314 313 312 312 311 311 313 313 311 312
309 307 307 308 309 311 313 316 313 313 316 318 320 315 308 310 316 317 316 319 319 320 320 320 319 319 319 319 318 320 318 317 312 315 315 311 312 310 315 312 311 312 310 309 309 309 310
308 307 307 308 311 312 314 316 314 314 318 315 317 315 311 309 313 315 317 320 319 319 319 317 317 316 317 318 315 313 312 312 313 314 314 310 308 307 309 307 305 306 308 309 309 309 308
307 307 307 310 311 312 315 316 315 315 318 319 320 315 313 309 309 316 318 319 319 318 319 318 315 315 314 308 307 307 308 311 314 313 310 307 305 299 302 301 303 307 308 309 309 310 308
307 306 309 311 312 315 315 316 316 315 318 324 322 316 310 305 309 315 318 318 317 316 318 318 317 312 308 305 307 311 306 308 309 311 307 306 303 303 302 304 304 307 309 311 311 310 310
306 309 311 311 314 315 315 316 316 316 317 322 322 319 312 311 315 316 317 316 315 315 315 318 314 310 305 299 303 306 310 311 312 315 309 305 301 303 300 301 300 304 307 309 310 311 309
309 311 311 312 314 315 316 316 316 316 317 321 323 320 314 314 315 316 316 316 312 312 313 315 316 315 306 299 300 303 307 306 310 310 309 307 301 302 296 298 303 303 309 309 311 309 309
311 311 312 312 314 315 318 320 317 317 318 320 320 321 316 311 316 316 316 314 313 312 312 312 312 309 303 306 303 303 301 307 309 309 311 310 311 311 303 299 309 305 311 311 309 307 309
311 312 312 312 313 314 317 319 319 320 319 321 319 317 317 313 314 315 315 315 316 312 311 309 313 311 309 305 298 301 305 307 305 309 308 310 307 306 307 308 306 304 308 307 306 307 308

GFSGBSN_925_thetae_033.txt.gz
Theta_e
318 316 316 315 314 312 312 313 310 309 310 311 312 311 312 311 311 310 311 310 309 312 312 310 311 311 314 319 317 314 316 317 314 314 314 313 314 315 319 316 313 313 310 309 309 312 317
319 317 316 315 314 312 312 313 311 309 310 311 312 311 312 311 311 311 311 311 311 311 311 310 311 312 314 315 313 316 317 316 316 314 313 313 315 315 317 313 313 311 310 310 309 311 311
320 319 316 315 314 312 312 313 311 309 310 311 312 312 311 311 311 311 311 311 311 311 310 310 312 313 318 316 315 316 315 316 316 315 314 313 314 316 315 314 311 310 312 311 311 312 312
322 319 317 316 314 313 312 312 310 308 310 312 312 312 311 311 311 311 311 311 311 311 310 311 313 315 319 313 314 315 315 316 315 316 315 315 314 315 315 311 312 312 312 313 312 312 311
318 320 317 316 314 313 312 312 310 309 311 312 312 312 311 311 311 311 311 311 311 310 312 313 314 317 318 314 315 316 315 314 313 314 315 314 315 315 312 314 315 314 314 315 314 312 313
313 320 318 316 314 313 312 311 309 309 311 312 312 311 311 311 311 311 311 310 311 312 313 315 316 318 314 314 316 315 314 314 316 315 315 314 313 314 313 314 316 316 315 314 315 314 313
308 313 319 316 315 314 312 311 309 309 311 312 312 311 311 311 311 311 310 312 312 314 315 315 314 315 315 316 314 313 314 315 315 317 318 315 317 317 315 313 312 313 315 315 314 313 319
307 309 319 317 315 314 313 311 308 310 312 312 312 311 311 311 311 311 311 311 312 315 319 316 316 316 316 316 315 312 314 316 317 317 316 317 318 315 316 314 315 315 317 317 316 313 317
306 307 315 318 315 314 313 311 308 310 312 312 311 311 311 311 311 311 311 313 319 320 322 317 317 316 314 315 315 314 314 315 316 316 316 319 316 315 317 317 320 318 319 318 318 315 315
307 305 311 318 315 314 313 311 308 311 312 312 311 311 312 311 310 311 311 312 314 321 315 314 315 315 314 314 315 313 315 316 316 316 316 318 316 316 317 319 318 321 318 317 316 317 320
307 305 308 317 316 315 313 311 309 311 312 312 311 311 312 309 311 311 313 315 325 315 318 314 314 314 313 315 314 315 315 315 316 316 316 319 317 318 319 317 316 321 318 318 317 319 320
307 304 305 312 317 315 312 311 309 311 312 312 311 312 312 311 313 313 322 324 318 321 320 315 314 314 316 315 314 314 317 315 313 318 318 317 315 317 317 316 316 318 320 319 319 320 324
305 303 304 308 317 315 312 310 309 310 312 312 311 311 312 311 317 322 325 314 318 322 316 315 314 315 316 316 316 317 317 318 319 322 321 319 318 316 317 320 318 319 322 325 328 329 327
304 304 303 307 316 315 312 310 310 310 312 312 311 312 312 313 317 326 316 313 318 317 317 313 313 315 318 316 317 317 318 319 316 317 319 321 322 318 316 319 321 318 322 328 325 328 326
302 303 302 306 313 315 312 309 310 311 312 312 311 312 312 312 314 318 312 316 317 316 316 315 315 317 317 317 318 317 317 317 316 316 321 322 321 316 315 316 318 319 318 317 320 315 322
302 303 302 304 312 314 311 309 309 311 312 311 312 312 315 319 323 315 314 315 316 318 316 313 315 316 319 319 319 318 318 317 316 315 316 319 322 316 315 316 316 318 316 321 318 321 319
301 302 301 303 306 313 310 309 310 311 312 311 315 316 318 324 320 312 316 314 321 322 317 315 316 318 318 319 319 319 319 318 317 317 316 316 319 318 317 318 319 319 318 315 316 316 316
301 301 302 302 305 312 309 309 311 312 312 313 309 315 322 318 313 311 316 315 321 318 317 319 316 317 318 318 320 320 321 319 316 318 319 315 317 321 319 314 315 315 317 315 318 314 314
302 301 302 305 310 312 309 308 311 312 311 316 313 321 318 310 315 312 313 319 319 317 318 319 320 318 319 321 322 321 320 316 314 315 318 315 318 321 319 315 315 317 316 312 311 313 316
301 300 301 303 312 309 308 310 312 312 313 317 317 321 318 310 309 313 318 318 320 318 318 317 319 319 321 322 320 322 321 317 312 314 313 314 314 319 322 317 314 316 317 312 315 318 315
300 301 302 309 311 309 307 311 312 312 314 317 313 318 317 318 314 311 313 318 319 320 318 317 319 319 321 322 321 321 320 317 313 314 314 314 317 314 313 313 312 311 313 314 314 313 318
301 302 304 311 309 307 309 311 312 312 314 316 317 315 308 312 315 314 315 319 319 319 319 319 320 319 318 321 320 322 320 316 313 315 315 312 317 311 315 312 311 313 311 311 313 312 312
302 303 309 310 307 308 310 311 313 311 315 314 316 311 312 308 314 313 315 318 318 319 318 316 318 317 318 318 316 314 313 314 314 316 314 312 313 313 315 308 307 313 313 312 311 310 313
304 309 310 307 307 309 311 312 315 312 316 318 318 312 311 310 313 313 316 319 318 318 320 317 315 317 313 311 309 311 311 313 313 311 310 309 307 305 312 305 311 310 309 309 311 311 309
309 310 307 307 308 310 312 314 315 313 316 323 320 314 309 307 309 314 317 318 317 316 318 318 316 311 309 308 313 315 312 313 311 310 308 307 307 307 314 310 307 308 306 310 313 312 310
308 307 307 308 310 311 314 315 314 314 316 321 322 315 310 310 311 314 317 316 317 316 316 316 312 308 306 305 310 315 319 315 313 315 310 306 305 313 306 310 311 308 306 310 310 317 310
307 306 309 311 312 314 315 316 314 314 317 321 321 315 315 315 315 314 317 317 313 313 315 314 313 314 307 306 311 313 314 308 313 312 313 314 310 313 303 313 310 306 306 309 315 315 309
307 310 311 313 314 315 315 316 315 315 317 322 320 321 316 313 315 315 315 313 313 314 317 314 315 312 308 313 314 311 312 311 311 310 313 315 315 314 305 310 315 306 311 315 314 308 309
311 311 312 313 314 316 316 316 316 315 316 320 317 316 316 314 315 314 314 314 315 311 313 310 315 313 313 311 305 305 310 308 308 316 308 314 312 314 311 314 309 306 311 309 307 309 310

GFSGBSN_925_thetae_036.txt.gz
Theta_e
323 321 319 318 316 315 314 313 312 312 310 309 310 311 311 311 311 311 310 310 310 309 313 312 310 309 315 321 318 314 316 316 312 313 318 318 317 316 315 317 318 318 317 314 314 320 325
317 322 321 319 317 316 315 313 312 313 311 309 309 311 311 312 311 311 310 310 311 311 313 310 310 311 316 319 314 317 317 316 315 315 317 318 316 317 320 319 318 317 314 312 313 317 322
314 317 322 320 318 316 315 313 312 313 312 308 310 311 311 312 311 311 311 311 311 313 311 310 311 313 319 319 315 319 317 317 317 316 318 317 317 318 320 320 313 314 314 315 317 320 320
312 313 320 322 319 317 316 314 312 312 312 308 310 311 312 312 311 311 311 311 311 312 310 310 312 314 320 316 316 316 317 318 317 317 317 317 317 318 319 315 315 315 316 317 317 319 315
309 311 314 320 322 318 316 314 313 311 311 308 310 311 312 311 311 311 311 311 311 310 310 312 314 318 320 315 316 317 317 317 317 317 317 316 317 319 317 317 315 316 316 316 316 316 318
307 308 310 316 321 320 317 314 313 311 311 309 311 312 312 311 310 311 311 311 310 311 313 314 317 323 321 318 317 317 315 315 319 318 318 318 319 318 318 317 317 317 315 315 315 316 317
307 307 309 309 320 321 318 315 313 312 311 309 311 312 312 311 311 311 311 314 317 320 317 320 317 319 317 317 316 316 315 318 319 320 319 319 320 318 317 317 317 317 319 318 317 318 318
306 306 307 307 313 320 319 316 314 313 310 309 311 312 311 311 311 311 313 316 316 320 320 317 317 317 316 317 318 316 315 318 319 318 320 321 320 319 319 318 318 319 319 321 319 317 320
305 305 306 307 309 317 319 316 314 313 310 309 311 312 311 311 311 310 314 314 319 317 326 319 318 317 317 317 318 317 317 319 318 319 321 320 320 319 320 320 320 321 321 321 321 319 321
305 304 305 307 305 312 318 317 314 313 310 309 311 312 311 311 311 314 314 312 314 316 322 317 317 317 315 318 317 316 317 319 320 319 321 321 319 320 321 321 322 322 321 321 320 321 321
304 304 305 306 305 307 317 318 315 313 310 310 311 311 311 311 314 314 315 313 317 320 317 316 317 315 317 318 317 318 318 319 318 320 320 322 321 321 321 321 320 323 320 321 321 322 323
304 304 304 306 306 306 317 318 315 313 310 310 311 311 312 311 313 315 319 324 323 327 320 317 317 317 318 318 317 318 320 319 319 321 321 321 320 321 321 320 321 322 324 324 324 324 324
303 303 304 305 305 305 311 317 315 313 309 310 311 311 311 313 314 323 319 324 325 323 317 318 317 318 318 318 318 319 320 320 321 323 323 322 322 321 321 323 322 323 323 321 324 325 323
302 302 303 305 304 303 309 316 316 312 309 310 311 311 312 313 315 323 322 326 322 316 318 317 317 318 318 318 319 320 322 321 320 321 322 321 323 321 320 323 322 322 322 320 317 321 322
302 302 303 304 304 303 308 314 316 312 309 310 311 311 313 314 314 318 323 327 320 320 319 318 317 318 320 319 318 321 322 321 321 322 321 322 322 319 319 321 321 322 322 322 325 321 326
302 301 302 303 303 303 308 313 316 311 309 311 313 313 314 315 313 317 325 323 320 321 318 317 317 318 320 320 318 320 322 321 321 320 322 323 323 320 319 320 320 323 320 323 323 323 318
300 301 301 302 303 303 307 312 315 310 309 311 314 317 320 318 318 324 325 321 319 324 320 318 317 320 320 321 319 318 321 321 320 320 322 323 322 322 320 321 322 322 323 320 320 321 317
299 300 299 301 302 302 306 311 313 309 310 312 315 320 323 321 326 327 322 319 321 321 322 319 319 319 320 321 322 319 320 320 320 321 323 321 324 326 323 319 319 320 322 321 319 318 321
299 299 300 301 302 301 302 307 312 309 311 314 318 323 318 315 327 325 320 320 324 320 322 322 321 321 322 323 323 323 324 320 319 320 323 321 324 326 324 321 320 321 321 319 318 320 320
299 299 300 301 301 302 302 303 311 309 312 316 319 325 325 320 318 322 320 320 322 321 322 322 323 324 325 325 324 326 325 320 317 319 312 317 323 323 323 322 321 322 321 319 319 320 317
297 299 300 301 300 302 303 307 310 309 311 318 321 322 323 326 320 320 320 320 322 324 322 322 324 324 325 327 325 326 324 318 318 316 319 321 323 321 318 317 317 317 318 319 318 318 319
300 300 301 299 301 302 305 309 309 310 312 320 322 322 319 323 318 319 319 320 322 323 323 323 325 324 325 326 324 326 324 321 322 319 321 318 322 319 320 317 316 317 317 316 318 318 318
300 301 298 301 301 302 307 311 308 311 313 320 321 315 320 315 318 319 320 321 321 325 322 321 324 325 326 324 322 323 320 320 319 322 322 321 321 319 318 314 314 321 318 317 317 318 318
301 299 299 300 302 306 310 309 308 311 315 320 322 318 324 321 318 316 318 322 323 323 325 321 322 325 319 317 318 318 319 318 317 316 316 318 318 317 320 313 327 313 312 313 317 317 316
299 301 303 303 306 310 309 307 310 311 315 323 319 320 321 323 319 317 320 323 323 322 323 323 320 318 317 317 323 323 324 324 320 315 314 314 316 317 327 316 314 312 311 311 313 313 314
301 303 304 306 309 309 307 309 311 312 314 321 318 314 321 323 320 317 321 323 325 326 324 319 314 313 313 318 324 329 328 324 322 321 314 312 314 320 316 332 335 314 312 313 314 315 312
303 305 307 309 308 307 309 310 312 312 314 321 318 315 321 326 317 321 321 324 323 324 325 318 316 317 314 323 335 330 326 315 320 320 320 321 320 325 320 327 319 313 310 313 316 315 314
306 307 309 307 308 309 311 312 314 312 315 321 319 316 323 324 321 320 319 321 320 324 327 319 320 319 320 329 331 324 329 317 317 315 319 321 324 325 317 327 326 311 314 319 317 316 313
308 307 307 309 310 311 313 314 315 312 314 320 320 316 318 322 321 316 315 316 317 317 322 319 324 321 323 326 323 320 322 314 320 324 314 320 319 320 318 319 313 312 316 315 314 315 315

GFSGBSN_925_thetae_039.txt.gz
Theta_e
313 315 322 323 321 319 317 315 315 313 312 312 310 309 310 311 312 312 311 311 311 311 311 312 310 308 315 322 318 320 317 317 312 315 317 317 316 317 317 316 317 318 320 318 319 322 324
312 314 314 320 323 321 318 316 315 314 312 313 311 309 310 311 312 312 311 311 311 311 311 311 310 310 319 320 316 319 320 317 315 317 317 318 318 317 319 319 320 319 319 317 321 323 324
308 311 313 314 321 322 320 318 316 314 312 313 312 309 310 311 312 311 311 311 311 311 311 310 308 314 319 320 317 321 320 319 319 317 319 318 318 319 321 321 318 317 317 317 317 321 324
309 308 310 313 316 321 322 319 317 315 313 312 312 309 311 311 312 311 311 311 311 311 310 309 310 317 320 318 317 318 320 320 319 319 319 320 319 320 321 320 316 317 317 319 320 322 323
307 308 308 308 311 316 321 321 318 316 314 312 312 309 311 312 312 311 311 311 311 310 309 310 316 320 322 318 316 318 318 319 319 319 319 318 320 321 321 320 316 317 317 319 321 321 321
306 306 308 308 307 312 318 321 320 317 314 312 311 309 311 312 311 311 311 311 313 310 313 315 318 324 324 319 318 319 318 318 321 321 321 320 321 322 321 319 319 318 319 318 317 318 319
305 303 306 307 308 309 313 320 321 317 315 313 311 309 311 312 311 311 311 315 319 322 318 319 320 319 319 319 318 319 317 318 321 322 323 322 321 320 319 319 319 318 317 316 317 317 317
305 305 304 306 306 306 309 318 321 319 315 313 311 309 311 312 311 311 314 317 318 322 324 318 317 319 318 318 319 319 317 319 320 321 320 320 320 320 319 318 318 317 320 319 319 317 318
305 305 305 304 306 307 307 312 319 320 316 313 311 309 311 311 311 311 315 316 319 320 327 320 317 318 319 318 319 319 318 319 320 320 320 322 322 321 319 319 319 319 320 322 321 319 319
305 305 304 305 305 305 305 306 318 319 317 314 311 310 312 311 311 315 316 315 316 319 327 320 319 318 318 319 319 318 318 319 319 319 320 323 322 321 320 319 320 322 322 321 321 322 321
304 305 304 304 303 304 305 306 313 318 318 314 310 310 312 311 318 317 318 315 318 326 327 318 317 318 318 319 318 318 318 319 319 318 320 322 321 320 319 322 322 324 322 322 320 320 322
303 304 304 304 302 303 305 305 308 317 318 314 310 310 312 312 314 318 319 319 322 331 328 317 318 318 319 318 318 318 318 319 320 320 318 322 322 322 323 322 321 323 323 323 322 321 325
302 304 304 303 303 304 304 305 306 315 318 314 310 310 311 314 317 317 319 328 329 327 319 317 319 319 319 319 318 318 318 319 318 319 321 322 322 323 322 322 323 322 323 326 326 324 324
300 303 303 303 303 304 304 304 306 316 317 313 310 311 312 315 316 323 323 331 328 321 320 318 318 318 318 318 318 317 318 318 318 320 320 321 325 322 322 323 323 323 322 324 322 321 321
300 302 303 303 303 304 305 305 304 312 316 312 310 312 314 314 317 321 327 332 326 320 319 318 318 318 318 318 318 318 319 318 318 320 321 324 322 322 322 322 321 323 321 324 324 329 325
299 300 302 302 302 303 304 304 303 309 315 310 312 314 315 316 317 320 329 327 324 319 318 318 319 318 319 319 318 318 319 318 320 322 323 322 323 321 321 322 322 323 323 323 322 323 321
299 299 302 301 301 303 303 303 304 310 314 310 314 318 316 318 317 324 330 326 323 319 321 319 319 319 318 319 318 318 319 321 322 322 323 321 321 324 322 322 320 324 323 322 322 323 322
299 297 301 300 301 302 303 302 303 310 314 310 317 320 319 319 318 324 327 324 320 321 323 320 320 319 319 320 320 319 318 320 322 322 322 323 322 322 322 322 322 322 323 323 324 320 321
296 298 300 299 300 302 302 302 305 309 312 312 320 323 321 317 322 330 324 323 321 321 324 321 319 319 320 321 322 320 319 324 323 324 322 324 320 321 323 323 322 322 321 321 321 321 321
297 298 299 298 299 300 302 302 305 309 311 314 321 326 322 324 318 325 326 323 321 323 322 321 319 320 320 320 321 322 322 323 322 323 313 320 320 321 323 321 323 325 323 322 321 324 320
299 298 297 297 299 299 300 301 303 308 311 314 321 321 322 326 325 326 324 322 321 323 323 323 322 322 322 323 322 325 324 323 322 317 320 323 324 322 321 321 321 321 320 321 321 321 323
297 299 297 299 298 298 301 302 302 304 310 313 324 322 322 322 323 326 323 323 320 322 324 324 320 322 323 324 325 325 326 325 324 323 324 322 324 323 324 322 321 321 320 319 318 319 319
298 297 297 299 298 299 301 300 302 302 308 313 320 320 325 325 326 324 324 321 320 324 325 324 322 322 324 326 327 326 325 324 324 326 326 325 324 323 321 318 318 322 320 318 318 318 319
297 298 300 300 300 300 300 300 302 304 306 315 321 322 327 328 328 322 321 320 321 325 325 325 325 325 325 322 323 323 322 322 322 322 324 325 325 323 322 318 326 316 314 314 316 317 317
296 299 299 300 300 300 300 301 301 307 308 313 319 322 324 331 324 320 321 321 322 325 325 326 323 323 323 324 325 325 326 325 321 319 317 319 321 322 328 319 317 315 313 314 314 315 315
300 299 299 300 299 300 302 302 303 309 310 309 315 323 324 330 326 319 319 320 326 328 327 322 321 319 320 326 329 327 326 322 325 324 316 316 318 321 319 328 330 319 315 315 315 317 314
299 300 300 300 300 301 304 306 307 310 308 310 319 321 322 323 319 320 320 323 322 325 327 323 322 321 320 330 334 331 328 322 325 326 323 324 324 327 324 329 324 317 314 315 317 319 316
300 300 300 303 304 306 307 309 310 308 310 310 322 322 325 326 323 324 320 321 325 324 329 324 324 323 325 329 334 330 332 323 322 320 323 324 328 326 327 327 326 314 315 317 320 315 316
300 302 304 305 306 308 310 308 308 309 311 312 323 321 324 325 324 321 320 320 321 323 325 323 325 325 326 328 331 331 327 319 327 324 318 323 322 324 321 321 316 314 314 315 315 315 315

GFSGBSN_925_thetae_042.txt.gz
Theta_e
311 312 315 319 322 323 322 320 318 316 315 313 312 312 310 309 311 311 312 311 311 311 311 311 311 308 313 322 320 319 318 317 314 314 317 318 316 316 316 317 317 317 318 319 319 320 325
309 309 311 315 319 320 323 323 319 318 316 314 312 313 311 309 311 311 312 311 311 311 311 311 310 308 318 320 317 320 321 318 315 315 318 318 317 317 317 319 317 318 318 319 320 322 323
309 309 309 310 315 317 319 323 322 319 317 315 313 312 312 309 311 312 312 311 311 311 311 310 309 313 318 318 318 319 321 320 317 317 319 318 318 318 319 321 321 319 318 318 320 322 325
306 306 308 309 311 313 315 320 322 321 318 316 313 312 311 309 311 312 311 311 311 311 310 309 309 316 320 317 318 318 320 321 321 320 319 319 320 319 320 322 319 316 318 320 321 320 322
306 306 306 308 309 309 311 315 321 322 320 317 314 312 311 309 311 312 311 311 311 311 310 310 316 320 321 319 318 318 319 320 320 320 320 320 320 321 321 321 320 318 318 320 321 321 322
305 306 306 306 307 308 308 310 316 320 321 318 315 312 311 309 311 312 311 311 313 312 313 315 317 321 323 320 317 318 319 319 320 321 321 320 321 322 322 322 318 319 317 319 321 321 320
306 305 305 303 305 307 308 308 312 318 321 319 315 313 311 309 311 311 311 315 319 321 318 318 319 317 319 319 319 319 319 318 320 322 323 322 322 323 322 320 320 320 319 320 318 319 318
306 306 305 305 304 305 306 306 308 316 320 320 316 313 310 310 312 311 312 320 319 322 325 322 316 318 318 319 320 318 318 319 321 322 323 324 321 321 321 320 320 319 321 321 317 317 317
305 306 306 306 305 303 304 305 307 310 319 320 317 313 310 311 312 311 314 315 317 320 326 323 321 314 318 319 319 319 318 318 320 322 322 323 321 322 320 319 318 319 324 324 322 318 316
304 304 305 305 305 304 304 305 306 307 316 319 317 313 310 311 312 315 317 317 316 318 329 322 320 316 318 319 319 318 319 318 320 320 322 323 323 323 322 319 319 322 324 322 322 321 319
301 303 304 305 305 305 304 304 304 305 312 318 317 313 310 311 317 319 319 317 317 321 334 320 319 318 319 319 319 318 319 318 320 320 320 325 324 323 323 321 321 323 323 324 321 320 325
301 301 303 304 305 304 303 303 303 304 308 317 317 314 310 311 313 317 320 324 323 333 328 318 317 318 319 318 319 318 318 319 319 320 321 323 322 323 321 321 321 324 323 323 322 323 327
302 301 302 303 304 304 303 302 302 304 305 314 317 313 310 314 317 315 316 324 330 329 319 319 318 318 318 319 318 318 318 318 319 320 321 321 320 322 322 321 322 321 321 328 331 333 330
297 301 300 302 303 304 303 302 302 303 305 310 316 313 310 313 316 319 322 330 329 321 323 318 318 318 319 319 318 317 319 317 318 318 319 321 324 322 321 321 325 324 322 331 331 333 329
298 299 300 302 301 305 303 301 303 303 304 310 315 311 312 313 315 319 327 330 325 323 320 320 318 319 319 318 318 318 317 317 318 318 320 323 324 323 322 321 323 324 323 323 323 331 335
297 299 299 301 301 304 304 301 303 304 304 312 311 313 313 314 315 320 328 327 324 322 321 319 318 319 319 318 318 318 318 319 317 318 323 324 328 325 323 321 321 320 321 325 323 325 324
296 297 299 300 300 303 304 302 303 305 304 312 312 315 313 315 317 322 328 326 325 323 322 320 319 318 319 319 318 318 318 318 318 320 321 322 325 326 323 322 319 324 323 320 319 326 329
297 298 298 299 300 303 303 302 303 304 305 311 313 317 317 319 321 318 325 323 321 324 322 321 320 319 319 320 319 317 318 319 320 321 322 322 323 327 324 322 322 321 322 323 335 325 327
297 297 297 298 298 302 302 302 303 304 306 311 315 319 319 320 322 321 320 322 322 323 323 322 322 320 319 320 320 319 320 325 325 321 322 323 324 326 322 322 323 322 320 320 322 327 326
297 297 297 298 298 299 301 301 303 303 307 311 317 322 322 323 319 318 322 322 324 324 321 322 322 319 320 322 322 322 321 324 324 324 315 323 323 321 324 320 322 324 322 320 322 332 326
296 296 296 297 297 299 301 301 303 302 305 312 318 320 322 324 324 319 325 322 324 324 321 322 321 319 321 322 322 321 321 325 323 317 320 323 321 320 318 319 320 322 322 321 321 322 325
296 296 296 297 297 300 301 302 302 302 306 310 319 321 322 321 322 320 322 326 324 322 321 323 322 321 321 322 320 321 323 326 323 324 323 323 325 324 325 323 321 321 320 319 319 320 318
297 297 297 296 298 298 300 301 301 301 306 310 313 318 322 321 323 321 325 325 325 324 323 321 322 323 324 324 325 327 326 327 324 326 326 325 328 329 329 321 318 321 320 319 318 319 319
297 296 298 298 298 298 299 300 300 301 303 307 312 320 324 325 322 322 324 325 325 323 326 324 325 325 326 325 325 325 325 325 326 325 325 327 329 332 331 319 326 318 316 314 315 314 315
297 297 299 299 298 298 299 300 301 300 302 303 308 319 327 325 321 321 323 326 327 324 325 326 326 326 326 327 329 327 327 322 323 321 322 324 327 328 330 324 320 318 316 315 315 315 315
297 298 298 298 298 298 298 300 301 300 300 303 303 306 318 326 324 322 325 326 325 328 327 325 325 326 326 332 335 331 332 325 325 322 317 318 324 330 325 330 327 321 315 315 315 320 316
298 298 298 299 298 298 299 300 301 300 301 301 305 306 313 327 325 323 323 325 326 325 328 325 323 324 325 335 328 337 332 322 328 329 323 325 327 326 326 330 327 318 315 315 321 324 317
298 299 300 299 299 299 300 300 300 301 302 301 308 309 314 325 325 324 323 324 325 320 326 326 328 326 334 334 339 336 332 330 327 323 325 326 330 327 331 327 326 315 315 319 321 318 317
299 300 299 299 299 300 300 300 301 301 301 304 309 310 313 323 327 323 322 322 324 325 328 327 329 327 328 332 333 337 326 322 330 330 320 327 325 330 326 327 319 315 315 316 317 316 317

GFSGBSN_925_thetae_045.txt.gz
Theta_e
311 311 311 314 317 321 322 322 323 320 318 316 315 313 311 312 309 309 311 311 311 311 310 311 310 309 311 319 321 316 319 317 316 315 314 315 316 315 314 313 313 314 315 316 326 324 325
309 309 308 309 312 315 319 320 323 323 320 318 316 314 311 312 309 309 311 311 311 311 311 311 310 309 316 320 312 319 321 317 314 313 316 316 316 314 315 315 317 316 315 317 318 320 324
308 308 308 308 309 310 315 318 320 322 322 319 317 314 312 311 309 309 311 311 311 311 311 310 310 311 316 316 310 314 317 320 316 315 314 317 317 316 316 318 320 317 316 317 319 323 324
307 306 306 305 308 309 311 315 316 320 322 321 318 315 313 311 310 310 311 312 311 311 311 310 310 313 319 311 315 318 318 319 320 316 317 318 319 319 318 317 319 318 315 317 320 320 323
306 306 306 305 305 308 309 310 312 315 320 321 320 317 314 311 309 310 311 311 311 311 311 310 312 315 323 319 320 317 318 318 321 321 320 320 319 319 319 319 318 316 316 319 321 320 324
306 306 305 306 306 306 307 308 309 312 318 320 321 318 314 312 309 310 311 311 311 311 314 312 314 317 318 320 320 317 318 318 319 320 320 319 318 319 318 318 320 318 318 317 319 319 322
307 306 306 305 305 305 305 307 308 309 313 318 320 319 315 312 309 311 311 316 316 318 315 318 318 317 314 317 319 317 318 318 319 320 322 323 319 319 319 320 319 318 318 317 317 318 318
306 307 306 305 305 304 302 306 307 307 310 316 319 319 315 312 309 311 311 316 320 318 323 319 318 318 316 317 320 319 318 317 318 322 324 323 323 322 321 321 320 320 320 320 319 316 315
304 305 306 305 305 305 304 304 304 305 308 314 319 319 315 312 310 311 312 313 312 314 323 323 321 322 318 317 319 319 316 316 318 322 322 324 322 322 321 322 321 323 323 321 322 322 317
303 303 304 305 306 306 305 304 303 305 307 310 318 319 314 311 310 312 316 317 313 314 326 324 321 322 316 314 319 318 318 316 317 321 322 323 322 322 322 323 322 324 322 323 322 322 320
303 303 302 303 305 305 305 305 303 305 305 307 317 318 314 311 313 316 319 321 317 319 328 324 321 317 314 317 319 318 318 316 318 319 321 324 323 322 323 323 322 321 321 323 323 323 323
301 303 302 302 303 304 305 305 304 305 304 306 315 318 314 310 310 313 318 319 321 330 329 322 319 317 318 318 319 317 316 317 318 319 321 320 320 322 322 322 322 322 321 323 324 325 323
300 302 301 302 301 302 304 304 304 304 303 305 312 317 314 311 314 318 318 319 326 331 320 319 317 317 317 318 318 317 317 316 316 319 323 321 320 322 322 321 322 322 322 326 326 327 327
299 299 299 300 302 302 303 304 304 302 302 304 307 316 314 311 312 315 320 325 330 323 322 319 317 318 318 318 318 318 317 316 316 316 318 322 323 322 322 321 323 321 324 323 330 330 326
299 299 299 299 301 302 302 303 304 303 302 303 305 313 312 313 309 313 322 329 322 324 319 321 318 318 318 318 319 317 316 316 316 315 316 325 325 324 323 323 321 324 324 324 326 325 322
299 298 297 297 298 302 301 303 304 303 302 304 309 312 313 313 310 314 324 322 324 322 322 322 320 318 319 318 318 317 317 316 317 316 318 323 327 324 324 323 321 322 320 322 321 320 321
298 298 297 298 298 299 301 301 305 302 302 304 311 315 314 313 315 319 321 323 322 322 321 324 320 319 319 319 318 316 318 317 317 319 321 322 322 324 323 325 321 321 321 321 319 322 322
297 297 297 297 297 299 301 300 304 302 302 306 312 316 314 313 317 317 319 319 319 321 322 324 321 321 319 318 320 317 318 317 317 320 321 322 322 326 326 322 321 319 321 323 319 321 320
296 297 297 297 296 299 300 300 303 303 303 307 314 316 314 315 313 316 317 318 319 322 321 324 322 321 320 319 322 319 319 324 322 320 321 322 321 323 323 322 322 321 320 319 320 320 321
296 296 295 294 296 298 300 300 302 303 303 308 314 316 317 316 310 312 317 317 319 320 321 322 323 321 321 320 320 321 324 324 323 320 315 322 323 321 320 318 318 322 321 320 319 317 319
294 295 295 295 296 298 299 300 303 303 303 308 313 315 319 322 317 314 315 316 319 322 321 322 324 321 321 321 321 321 325 324 323 317 321 321 321 319 318 320 320 320 321 321 321 321 320
295 294 294 294 298 298 299 300 302 303 303 306 315 316 319 320 319 319 316 317 319 320 322 323 323 321 320 320 320 321 324 325 323 321 321 321 322 321 323 322 319 317 318 318 317 317 318
295 295 295 296 297 298 298 298 300 303 303 306 309 313 318 318 320 320 318 318 318 321 322 322 321 322 320 320 320 324 319 322 322 322 320 323 322 318 323 315 315 313 316 316 317 317 316
296 296 296 296 297 297 296 297 302 303 303 305 308 313 320 319 321 320 317 316 320 321 324 322 320 322 322 321 321 321 320 323 324 323 322 323 323 316 316 313 312 316 314 313 313 313 312
296 296 296 296 297 297 297 301 302 302 302 304 306 311 319 312 320 320 316 317 320 321 322 324 325 323 321 323 323 323 319 316 322 322 321 324 318 318 314 315 317 316 314 315 314 314 313
296 296 297 297 297 298 299 302 302 302 302 303 303 303 306 319 320 319 316 317 321 323 323 325 324 320 324 326 320 323 322 322 323 319 318 319 319 312 315 316 312 317 314 314 313 316 315
296 297 296 298 298 298 299 300 299 300 301 303 303 303 305 315 319 316 316 320 323 322 322 324 324 324 323 312 320 317 319 322 322 320 316 312 314 312 309 311 316 318 314 314 312 314 315
297 297 296 299 298 298 298 298 299 300 300 301 302 304 305 312 316 319 317 319 322 320 319 323 323 323 323 321 319 316 316 317 320 324 319 316 317 311 316 319 320 313 314 314 316 313 313
298 297 297 298 299 298 299 299 298 300 301 300 302 303 304 310 315 317 321 322 320 318 322 321 325 324 325 324 320 315 322 313 317 317 320 320 321 318 318 317 317 312 315 314 314 314 314

GFSGBSN_925_thetae_051.txt.gz
Theta_e
309 310 310 311 311 313 315 318 319 320 322 321 322 319 317 315 313 311 310 308 309 311 311 310 310 309 309 312 311 310 319 317 315 314 313 311 314 315 314 312 311 310 314 315 317 321 321
309 309 308 309 310 310 310 312 315 318 319 320 321 321 319 317 314 312 310 309 309 311 311 310 310 309 314 311 311 315 318 316 315 314 313 312 314 313 314 313 315 316 316 320 322 323 323
308 308 308 308 307 307 308 308 311 314 317 318 320 320 320 318 315 313 310 309 309 311 311 310 310 309 313 308 311 321 314 313 314 314 312 314 314 315 315 315 316 317 314 321 323 323 324
307 308 308 307 308 306 306 306 308 310 314 316 319 320 320 320 317 314 311 309 308 311 311 310 310 310 311 309 311 311 314 316 316 315 313 314 315 314 316 315 316 317 312 318 320 323 323
306 306 307 308 307 307 307 305 306 309 310 313 317 319 320 320 319 314 312 308 309 311 311 311 310 313 317 312 314 315 317 316 316 317 317 315 316 316 315 316 316 314 312 317 318 319 322
305 306 306 307 307 307 307 306 305 307 308 310 312 317 319 320 319 315 312 308 310 313 313 312 312 312 309 314 316 316 317 317 316 316 317 318 313 315 314 315 318 318 317 315 317 319 321
304 306 305 305 306 307 307 306 305 305 307 308 309 312 317 319 319 314 311 309 311 315 313 314 310 309 310 314 318 316 317 315 317 317 318 320 317 319 319 318 318 318 317 317 317 316 320
306 303 305 305 305 306 307 306 306 305 305 307 308 311 317 319 318 314 310 310 311 312 315 314 315 314 315 316 318 317 315 315 316 317 321 317 318 318 319 320 320 319 319 318 317 317 318
303 305 303 305 304 305 306 306 306 305 304 305 307 309 315 319 318 312 309 310 315 314 313 317 317 318 318 317 319 319 314 314 317 320 320 319 318 319 320 319 320 319 319 319 319 318 315
300 302 305 305 304 304 305 306 306 306 305 301 305 307 314 318 314 310 313 315 315 316 316 316 323 320 319 318 315 315 315 314 318 318 320 319 318 319 320 321 319 320 319 319 320 317 315
299 300 303 304 304 304 304 305 306 306 305 304 303 306 314 317 310 313 316 313 314 315 309 312 321 318 317 314 315 314 316 314 315 319 318 318 320 320 320 320 319 320 319 319 320 320 319
299 299 300 303 304 303 303 303 305 305 305 305 305 306 313 314 313 311 312 312 316 317 313 317 319 319 313 312 313 315 315 314 314 318 318 317 318 318 318 320 320 320 319 319 320 319 320
299 298 299 299 304 304 304 302 304 305 305 305 303 306 311 314 312 313 313 317 323 319 314 320 320 314 313 311 312 316 315 314 314 318 319 318 319 319 320 320 318 318 317 319 320 321 322
299 298 299 299 300 304 303 303 302 304 305 305 303 306 308 313 314 313 317 322 324 319 320 320 315 313 312 314 314 316 315 314 313 315 317 319 320 320 320 320 321 321 318 318 322 323 320
300 299 298 298 298 300 303 302 302 302 305 304 304 306 308 312 314 312 319 325 317 318 320 316 315 314 314 316 315 315 313 313 312 313 315 319 320 321 321 321 319 322 322 318 321 320 320
301 300 299 298 298 299 303 302 302 301 303 304 305 306 309 312 315 312 319 320 319 318 320 321 315 315 315 315 316 314 314 314 314 312 314 318 319 322 322 321 319 319 318 319 318 321 323
302 300 299 298 298 298 301 302 301 301 302 304 304 308 308 313 313 313 317 318 318 317 317 322 324 320 316 315 315 314 315 315 314 313 313 318 317 318 320 320 318 318 318 317 317 315 319
302 301 299 299 298 298 299 302 301 301 301 304 303 307 311 313 316 313 315 316 315 317 317 319 321 323 323 315 316 315 316 315 312 315 316 317 317 319 319 319 319 318 318 319 317 318 316
302 301 300 298 298 298 299 302 301 301 301 304 304 306 312 312 316 315 313 314 316 317 318 318 321 322 320 317 316 316 316 316 318 316 318 318 319 319 319 317 319 322 320 319 317 313 317
303 301 299 298 298 298 298 301 299 299 302 303 305 307 312 313 313 314 314 315 317 315 316 316 317 319 321 320 316 317 317 322 318 317 317 317 319 318 319 318 317 321 320 317 317 316 316
303 301 299 298 298 298 301 300 299 299 301 303 305 305 309 313 314 316 313 314 317 317 315 315 315 317 320 322 318 318 322 322 319 316 317 317 319 317 316 316 316 317 317 317 318 316 317
302 300 299 298 298 298 300 299 299 298 302 303 305 308 309 311 311 314 314 314 315 316 315 315 316 320 317 320 320 319 321 320 320 319 318 316 317 316 320 317 317 318 316 315 315 316 316
302 300 298 298 298 298 299 297 298 299 300 303 302 305 308 310 311 312 314 312 313 315 315 314 314 315 316 320 318 316 317 318 317 318 316 316 317 314 317 313 315 315 314 315 315 314 314
300 299 298 298 298 298 298 297 296 298 299 302 302 306 311 309 312 312 311 313 312 313 314 313 313 313 315 317 317 316 316 318 319 318 317 316 314 310 312 311 313 315 313 314 313 311 309
299 298 298 298 299 299 298 297 297 297 300 301 301 305 311 304 313 312 312 312 312 312 313 313 313 313 312 318 319 320 315 318 318 318 320 316 312 312 313 314 313 316 311 311 312 313 312
298 298 298 299 299 298 297 297 297 298 299 299 300 304 306 311 313 314 313 313 313 312 312 312 312 315 320 317 313 320 322 322 323 318 315 314 312 314 308 314 316 315 313 310 311 313 311
299 299 299 298 297 297 297 297 298 298 299 299 302 304 305 308 311 314 315 315 312 312 313 312 318 321 318 310 314 315 316 319 320 318 316 313 311 315 307 311 312 311 311 310 312 311 311
297 297 296 296 296 296 296 295 297 296 298 300 299 303 304 306 307 311 311 314 313 313 314 314 320 318 314 317 315 312 309 316 315 316 315 318 316 310 309 308 317 311 311 310 309 310 310
297 296 296 296 295 295 295 296 297 296 298 299 301 302 302 303 307 305 306 307 309 311 312 314 316 318 317 318 313 311 313 306 314 317 315 316 316 316 314 313 312 313 312 311 310 311 310

GFSGBSN_925_thetae_054.txt.gz
Theta_e
309 309 309 308 309 310 311 311 314 317 318 320 321 321 321 320 318 315 313 310 309 308 310 311 310 310 309 309 308 309 317 316 313 314 312 311 314 313 314 312 311 308 311 314 314 320 322
307 308 308 309 308 308 309 309 309 311 315 318 319 320 320 321 319 317 314 312 309 308 309 311 310 310 312 308 309 313 316 315 315 313 312 311 313 312 314 313 313 314 314 319 321 321 322
307 307 307 308 308 308 308 307 308 308 310 314 316 317 319 320 320 318 316 313 310 308 309 311 310 309 312 308 310 318 316 313 313 314 311 312 313 314 314 315 314 316 314 321 323 322 324
306 306 306 307 307 308 307 307 306 305 308 310 313 316 318 319 319 320 317 314 311 308 309 311 311 310 309 308 310 309 315 312 315 315 313 312 314 313 315 314 314 315 310 320 320 323 321
305 306 306 306 306 307 307 307 307 306 305 308 309 312 317 319 320 320 319 315 311 308 311 312 311 312 312 312 310 313 311 315 316 315 314 314 314 314 314 315 314 312 312 315 320 320 322
306 307 305 306 306 306 306 307 307 307 305 306 308 310 312 317 318 319 318 315 309 312 312 312 311 312 308 312 313 316 316 317 315 315 316 316 312 314 313 314 316 318 319 316 316 318 321
303 305 308 305 305 305 305 306 307 307 306 304 307 308 310 311 317 318 317 311 307 313 313 315 313 309 307 315 317 315 315 315 316 315 317 319 317 316 317 316 317 317 318 316 314 315 319
300 302 305 307 305 304 305 305 306 306 306 306 304 307 309 311 317 317 314 309 310 311 314 312 314 312 311 315 318 316 314 314 315 315 319 316 318 316 317 319 318 318 319 318 316 316 316
300 300 302 304 306 305 304 305 306 306 306 306 305 305 307 311 316 316 314 311 311 314 313 313 313 314 314 316 317 316 312 312 315 315 318 318 318 317 320 318 319 318 319 319 318 316 314
301 301 299 301 303 306 306 304 305 306 306 306 305 303 306 311 315 314 311 312 314 314 312 313 318 318 317 317 317 317 313 314 317 316 318 318 317 317 319 319 318 319 318 318 319 318 316
302 301 301 300 301 303 305 304 304 305 306 306 305 302 304 311 311 311 313 310 313 313 309 310 321 317 317 314 313 313 314 313 316 318 317 317 319 319 319 318 317 318 318 320 319 318 318
303 302 301 300 300 302 301 305 303 303 305 305 305 305 304 309 313 313 314 313 314 318 314 312 318 317 317 312 313 313 314 313 312 318 318 315 317 317 317 319 318 318 319 317 317 317 319
303 303 302 301 300 300 302 305 305 302 304 305 305 305 306 311 313 314 315 314 322 320 312 316 318 314 313 311 311 314 314 313 314 317 318 317 318 318 319 319 318 317 316 319 321 321 321
303 304 303 301 300 300 301 302 305 303 303 305 305 305 304 308 313 313 315 319 321 316 317 317 315 312 312 310 312 313 312 314 312 313 314 317 320 319 319 319 318 319 317 318 321 321 318
304 304 304 302 301 300 300 301 305 304 302 304 305 305 305 307 312 312 318 323 316 317 318 316 314 313 312 313 311 314 313 312 311 313 314 317 318 320 320 320 318 321 319 316 319 318 319
304 304 304 302 301 300 300 300 301 304 302 303 305 304 305 307 310 311 317 318 318 315 319 320 316 313 313 313 314 312 312 312 313 311 313 315 317 320 320 319 318 318 317 319 316 322 323
304 304 304 303 301 300 299 300 300 304 302 302 305 305 304 307 312 314 316 316 317 316 316 319 323 322 314 314 314 313 313 313 312 312 313 315 313 316 319 319 318 318 318 315 315 314 318
305 304 304 304 302 300 300 299 301 304 302 302 304 304 306 308 315 315 317 314 315 317 316 317 319 321 322 314 314 314 314 314 311 312 314 316 313 315 318 318 316 316 317 316 317 318 315
305 304 304 304 302 301 300 299 299 302 302 302 304 302 309 309 312 314 315 315 314 316 316 316 318 320 320 318 315 314 314 314 312 313 315 316 315 315 315 315 318 320 318 317 315 312 316
303 304 304 304 302 301 299 299 300 303 301 302 304 303 310 309 310 311 314 315 314 315 315 315 316 316 320 320 316 315 315 317 315 313 316 315 316 314 316 315 315 321 319 317 317 315 316
302 304 304 304 302 301 300 299 299 302 301 302 303 303 308 311 309 312 311 313 314 315 314 314 316 316 319 321 318 316 319 321 318 317 316 315 316 316 314 314 315 315 316 315 316 315 317
303 301 305 303 302 301 300 299 299 302 302 302 303 303 308 308 307 310 313 313 313 314 315 315 316 316 315 318 318 319 320 319 319 315 316 314 316 315 318 316 315 318 316 314 314 315 314
302 301 305 303 302 300 299 299 299 302 302 303 301 304 307 308 309 308 311 312 312 314 314 314 313 314 314 316 316 317 316 316 317 318 316 314 314 313 318 313 315 315 315 314 314 313 314
301 300 304 302 301 300 299 299 300 301 301 300 301 304 308 307 310 308 308 312 312 312 314 314 314 313 313 315 315 315 315 315 316 317 314 313 313 309 311 311 314 316 313 313 313 312 310
302 300 303 301 300 299 298 298 301 301 300 301 301 303 307 306 309 309 309 309 310 311 313 314 313 312 310 312 312 316 316 318 318 316 318 313 310 311 314 314 313 314 311 311 312 311 309
302 302 301 300 299 298 299 300 299 300 300 301 302 302 306 309 309 309 309 309 311 310 310 311 311 310 314 314 311 315 319 321 322 319 314 312 310 312 308 312 313 312 312 308 309 311 309
302 301 300 299 299 299 300 299 299 299 299 301 301 301 304 306 308 310 310 310 309 310 309 309 310 313 314 304 309 313 317 318 319 320 317 313 309 310 305 310 313 312 311 309 312 312 308
301 299 299 298 299 299 299 298 299 299 299 300 300 300 302 306 306 309 307 310 310 310 308 309 314 314 311 314 313 315 309 316 316 317 318 320 317 310 308 309 318 310 309 311 309 309 308
298 298 298 299 299 299 298 298 299 299 299 300 299 300 302 304 306 304 304 305 306 309 310 309 311 313 313 315 310 307 310 306 313 318 313 320 317 317 316 316 312 310 310 309 307 309 309

GFSGBSN_925_thetae_057.txt.gz
Theta_e
308 307 307 308 308 309 308 309 309 310 313 315 317 318 321 320 319 321 318 316 313 310 308 308 310 310 309 309 309 309 315 316 313 312 311 311 314 315 316 314 312 311 312 314 314 317 322
307 307 307 307 307 308 308 308 308 308 308 310 313 316 317 318 319 319 320 318 315 312 310 308 310 310 311 309 308 310 315 314 314 313 312 311 314 313 315 315 315 314 314 319 322 322 323
309 306 306 306 306 307 307 307 307 307 306 307 308 312 315 317 317 319 319 319 317 314 311 308 309 310 311 310 309 313 314 314 314 314 311 311 312 314 315 317 315 316 317 319 324 323 325
306 309 307 306 306 306 306 307 307 307 307 305 305 309 311 314 317 319 319 319 319 315 312 309 310 310 310 309 308 309 313 314 313 314 313 312 312 314 316 315 316 317 313 319 321 324 322
303 305 307 308 305 306 306 306 306 307 307 307 304 307 308 311 315 319 319 319 319 315 310 311 311 310 312 310 309 312 310 311 314 314 314 313 314 315 316 317 317 317 317 317 321 323 323
303 302 303 304 308 306 305 305 306 306 306 306 306 304 307 309 312 316 317 318 318 310 312 312 311 312 312 311 312 315 315 313 315 315 317 316 315 318 317 318 319 320 320 318 318 319 323
303 302 302 303 304 306 306 305 305 305 306 306 306 305 306 307 310 312 317 317 307 311 313 315 313 312 308 312 316 315 315 314 315 317 319 319 320 321 320 319 318 318 319 318 316 316 323
304 303 302 301 302 304 307 306 305 305 305 306 306 306 304 307 309 315 316 312 308 311 315 313 314 313 312 314 317 316 314 316 316 317 319 319 322 320 316 318 319 319 320 320 318 317 318
303 303 303 302 302 302 305 308 305 304 305 306 306 306 304 306 309 314 315 315 311 310 316 315 313 314 314 314 316 315 313 313 315 316 320 321 320 316 319 319 320 319 320 320 320 318 315
303 303 303 303 302 301 302 304 307 304 304 305 305 305 305 305 311 314 313 313 312 313 318 313 314 315 316 316 316 315 312 315 317 317 317 319 317 318 318 320 319 319 318 319 320 321 321
303 303 303 303 303 302 300 301 302 307 303 304 305 305 305 304 310 310 312 314 313 311 313 311 320 315 316 316 314 317 313 314 318 318 319 319 319 319 320 319 318 320 318 320 320 320 321
303 303 303 303 303 302 301 301 302 303 305 303 305 305 305 304 307 311 312 314 313 320 318 311 318 319 319 317 313 313 314 313 315 318 317 316 316 317 318 318 317 318 320 318 319 320 324
303 303 303 303 303 303 302 301 301 301 305 303 304 305 305 305 309 311 313 314 322 321 314 314 321 316 316 315 312 314 315 316 318 320 320 317 318 317 318 320 318 318 320 323 326 326 324
304 304 304 303 303 303 303 301 301 301 301 304 303 305 305 304 309 312 314 318 320 316 317 315 315 316 314 311 312 313 315 317 312 315 317 319 319 319 319 320 321 320 321 326 322 324 321
304 304 304 304 304 303 303 302 301 301 301 304 302 305 305 304 307 311 316 320 316 316 316 316 312 316 315 311 313 314 316 317 314 315 318 319 318 318 319 320 319 321 322 318 322 320 325
305 305 304 304 304 304 303 302 301 301 301 304 303 305 305 304 305 310 316 316 317 315 318 319 319 314 317 313 314 315 315 313 314 314 316 318 319 320 320 319 318 320 318 323 321 324 324
303 305 305 304 304 304 304 302 301 301 302 304 303 305 303 303 307 312 315 314 314 315 316 318 322 323 314 314 314 314 315 313 314 312 314 316 317 317 320 321 321 321 320 318 318 319 322
303 303 305 305 304 304 304 302 301 301 301 304 303 305 302 303 309 312 313 313 313 315 316 317 318 320 321 314 315 315 315 315 311 314 316 317 318 321 320 318 316 318 321 320 325 321 318
303 303 302 305 305 304 304 302 301 301 300 303 304 304 303 304 308 311 312 313 313 315 317 317 318 318 320 319 315 315 314 313 312 315 318 318 317 319 317 317 319 321 319 318 317 317 320
303 303 303 304 305 305 304 302 301 300 301 302 303 305 306 306 307 309 311 312 315 313 315 316 317 316 319 319 317 315 315 315 313 314 315 316 317 319 319 318 318 322 321 318 321 323 323
302 303 303 303 303 305 304 302 301 300 301 302 302 305 306 308 306 308 310 311 312 315 313 315 316 317 319 318 319 316 319 320 317 317 316 319 320 317 315 314 316 318 320 319 320 321 323
303 302 303 303 303 305 304 302 301 300 302 301 302 304 304 308 306 307 310 312 312 313 314 315 317 316 317 318 318 318 317 319 319 316 316 315 319 317 317 315 315 316 316 317 318 317 317
302 303 303 303 304 304 303 302 300 300 302 301 301 301 304 307 308 306 309 310 312 312 313 313 314 315 315 316 316 315 316 318 319 318 318 317 318 318 320 315 316 319 318 316 316 315 318
302 302 303 303 303 304 302 301 300 300 301 301 301 302 306 306 308 307 306 310 311 312 313 312 314 314 313 312 313 315 315 315 317 317 317 317 316 315 318 313 323 320 313 314 317 316 313
302 303 303 303 304 303 302 300 300 300 299 301 301 303 306 303 308 308 306 309 311 312 313 313 313 313 311 312 313 314 316 319 318 317 316 314 314 315 321 320 317 314 313 315 317 317 313
303 303 302 303 304 302 301 300 300 300 302 301 301 302 304 307 308 307 307 306 311 311 311 312 311 311 312 312 311 315 321 321 322 319 313 311 312 320 313 320 322 319 313 310 312 317 312
301 301 300 302 303 302 300 300 300 300 301 301 301 302 303 306 307 308 309 308 308 309 311 310 312 312 312 309 314 317 317 320 325 321 319 317 314 319 314 321 318 312 312 310 319 319 312
301 300 303 303 302 301 300 300 300 300 301 301 301 301 303 306 306 308 307 309 309 309 310 309 312 312 312 313 314 315 315 318 320 318 319 320 319 319 314 318 322 312 309 316 318 310 312
303 303 302 301 300 300 299 299 300 301 301 300 300 301 301 304 306 304 304 305 306 309 309 309 311 312 313 315 313 312 315 311 318 320 315 322 319 321 319 322 316 311 315 311 309 313 311

GFSGBSN_925_thetae_060.txt.gz
Theta_e
309 308 307 307 307 307 308 308 309 308 308 309 311 312 315 316 318 319 318 319 320 318 315 312 309 308 312 314 314 310 310 316 313 315 314 314 314 317 318 317 318 318 318 319 320 323 320
307 308 308 307 307 307 307 308 308 308 307 307 308 308 311 314 316 317 318 318 319 319 317 314 311 308 313 313 310 310 315 315 314 315 315 313 317 318 319 319 319 319 319 320 324 323 324
305 305 306 309 307 306 306 306 307 307 307 307 307 305 307 310 313 315 317 319 318 319 319 316 312 311 313 313 311 312 314 315 315 315 315 314 315 318 320 320 319 320 320 321 326 326 327
304 304 304 305 307 308 306 306 306 306 307 307 307 307 304 308 310 313 316 318 318 318 319 316 310 312 313 312 311 311 314 316 315 315 315 315 315 319 320 320 320 319 319 320 326 327 327
303 303 303 303 304 305 307 306 306 305 306 306 306 307 305 306 308 311 313 317 318 318 316 311 312 314 314 311 313 312 311 317 317 315 316 314 316 321 321 320 319 318 320 319 325 327 327
305 303 303 303 302 303 304 306 306 305 305 306 306 306 306 304 307 310 312 314 317 316 313 313 313 316 314 314 313 316 313 314 318 318 318 319 320 322 321 321 319 318 320 319 319 324 326
304 305 304 304 303 302 303 304 306 306 305 305 306 306 306 304 306 309 312 317 317 316 315 315 316 316 313 314 316 317 317 315 316 320 321 322 322 323 320 320 322 321 320 320 320 321 325
301 302 303 304 304 303 303 303 303 306 305 305 305 306 306 305 306 309 314 317 316 314 317 314 314 315 315 315 317 319 316 318 318 321 321 323 323 321 321 321 322 322 320 320 321 321 321
302 302 302 303 304 304 303 303 302 304 307 305 305 305 305 305 305 311 314 317 314 313 318 316 316 315 314 315 316 318 318 317 319 321 321 321 322 321 322 322 323 322 322 321 321 322 321
302 303 303 303 303 303 304 303 302 303 305 305 304 305 305 305 306 312 315 315 314 314 320 315 316 317 314 315 317 316 318 317 318 321 320 321 321 321 321 322 322 322 321 321 321 321 322
303 303 303 303 303 303 303 303 302 302 303 305 304 305 305 305 311 313 315 314 314 316 311 313 317 315 316 314 315 316 316 317 318 319 320 320 321 321 321 321 321 321 321 322 322 323 324
304 303 303 303 303 303 303 303 303 301 300 303 305 304 305 305 306 312 313 315 315 322 314 313 320 320 318 316 316 317 316 316 317 319 320 320 320 321 321 321 320 321 323 323 324 324 325
304 304 304 304 303 303 303 303 303 302 301 301 303 304 305 305 308 311 314 316 322 318 312 313 321 320 318 316 316 317 317 318 318 320 321 320 320 320 321 322 322 322 323 326 327 326 325
304 304 304 304 304 304 303 303 303 303 302 301 302 304 304 306 306 312 314 320 318 310 313 316 318 319 319 315 316 317 318 318 318 318 319 321 321 320 321 322 322 323 323 324 324 324 323
305 305 304 304 304 304 304 304 303 303 302 301 302 304 304 305 305 311 316 319 311 312 314 313 316 321 317 315 316 318 319 318 318 319 319 320 319 320 321 322 322 324 324 323 326 326 327
305 305 305 304 305 304 305 304 304 303 302 301 303 304 304 305 306 307 315 314 312 313 315 319 316 320 321 314 316 318 318 318 318 318 318 320 320 321 322 322 322 324 322 324 325 325 324
304 304 306 305 305 305 305 304 304 303 302 301 303 305 304 305 305 308 314 313 313 314 317 319 319 321 318 317 315 318 318 317 318 318 319 319 320 324 323 323 323 323 324 323 323 323 324
302 303 303 306 305 305 305 304 304 303 302 302 302 304 304 304 305 308 312 312 311 313 317 318 319 321 323 316 315 315 317 317 317 318 319 320 320 321 321 321 321 322 323 324 324 323 324
301 302 302 304 305 303 306 305 304 303 302 303 303 304 305 305 306 307 310 312 311 313 315 318 318 319 322 323 317 316 316 317 317 318 319 320 320 321 321 321 322 322 322 322 322 322 323
301 301 302 303 303 303 302 305 304 303 302 303 304 305 306 306 307 307 309 310 311 311 314 316 317 318 319 320 321 318 317 317 317 318 318 319 320 320 321 319 319 321 321 321 321 324 321
301 301 302 302 303 303 303 305 305 303 302 302 304 307 306 305 307 307 308 310 311 312 313 316 318 318 318 319 322 321 318 321 316 317 318 320 320 320 319 318 318 318 318 319 320 320 320
303 303 302 302 302 303 303 303 304 303 302 302 304 307 308 307 307 308 309 310 310 311 312 315 316 317 318 320 320 320 319 322 322 320 320 320 320 321 320 319 318 318 318 318 319 319 322
302 302 303 302 302 303 303 304 304 302 302 301 301 305 308 307 307 307 310 308 310 311 313 313 315 317 318 317 317 317 316 317 318 321 322 321 321 322 321 320 320 322 321 319 319 321 322
302 303 303 302 302 303 303 302 304 302 301 302 302 305 308 308 308 306 306 307 308 310 312 313 314 315 314 313 313 315 316 316 318 321 322 323 322 323 322 321 331 320 320 320 320 320 321
301 302 302 302 303 303 303 302 303 302 301 301 302 305 306 310 307 307 306 306 308 310 311 312 315 314 314 313 314 312 316 318 320 320 322 322 323 325 331 324 321 319 317 320 321 321 321
304 302 302 302 303 303 303 302 303 301 301 301 302 303 308 309 308 306 307 306 309 312 313 312 313 315 315 317 317 313 312 314 322 323 318 319 320 325 321 326 332 320 320 319 319 323 320
305 303 302 303 303 303 303 303 302 301 301 301 302 304 306 307 306 307 309 308 308 311 314 313 315 315 314 317 322 320 315 317 321 325 324 322 321 327 325 328 324 320 317 316 322 324 320
302 303 302 304 303 302 303 302 301 300 302 301 302 303 306 307 307 308 307 308 309 312 315 314 316 315 317 318 318 319 325 318 321 320 323 324 325 327 325 331 330 316 315 320 322 321 320
301 301 301 302 302 303 302 301 300 300 301 301 302 302 304 307 308 306 306 308 307 309 312 315 312 314 315 316 318 317 324 322 318 321 321 326 323 326 323 325 323 317 321 319 319 320 318

GFSGBSN_925_thetae_063.txt.gz
Theta_e
308 309 309 309 308 307 307 307 308 308 308 308 307 308 309 311 312 315 317 318 318 318 318 319 318 315 313 317 318 316 313 311 313 316 318 317 316 316 318 319 319 318 318 319 319 320 323
305 305 305 306 308 309 307 307 307 307 308 307 307 307 307 307 310 313 314 316 317 318 318 319 319 317 315 317 314 315 317 321 318 318 317 316 316 317 320 320 320 320 320 319 320 322 323
305 305 304 304 304 305 309 307 306 306 306 307 307 307 307 304 307 310 312 313 316 316 318 318 318 315 317 318 315 315 315 317 318 317 318 315 317 319 320 320 320 320 319 320 320 323 322
305 304 304 304 304 304 305 307 308 306 306 306 307 307 307 307 305 307 311 312 315 316 318 318 317 315 319 315 315 314 315 317 318 317 317 316 317 320 321 320 320 319 319 320 322 323 324
305 305 304 303 303 303 303 304 305 307 306 306 306 306 306 306 305 306 309 311 313 315 317 316 316 318 318 314 314 313 313 316 318 317 317 317 318 320 321 320 320 319 319 321 325 323 324
304 304 305 305 304 303 303 302 303 304 306 306 305 306 306 306 306 305 308 310 312 315 316 316 316 317 317 316 315 314 314 315 320 319 320 320 321 322 322 322 321 320 318 321 319 324 323
303 303 303 304 305 305 305 304 303 302 304 307 305 305 306 306 306 305 310 315 319 322 319 316 317 314 316 315 315 316 314 316 319 321 321 321 322 323 323 323 321 322 321 320 322 322 322
302 302 302 302 302 303 305 305 304 303 302 303 306 305 305 306 306 305 311 316 316 317 316 316 317 316 316 316 319 318 315 317 319 322 321 323 323 322 322 321 321 321 321 320 321 321 322
303 303 303 303 303 303 303 304 304 304 302 303 304 305 305 306 305 305 312 314 316 316 319 315 315 316 315 314 317 319 317 318 319 320 321 323 323 321 322 321 322 322 322 323 323 324 322
303 303 303 303 304 303 303 304 304 304 303 301 304 305 305 305 304 306 313 313 316 317 319 312 318 317 315 314 316 316 317 318 319 320 321 322 321 321 321 322 322 323 321 321 321 321 322
304 304 304 304 304 303 304 303 304 304 303 302 302 305 305 305 308 313 314 314 317 318 310 314 317 316 316 316 314 315 317 317 318 320 321 321 320 322 322 322 322 322 323 322 322 324 325
304 304 304 304 304 304 303 304 302 303 304 302 302 304 305 305 306 308 315 316 319 320 312 314 319 318 319 317 316 316 316 318 317 319 320 321 320 321 321 321 321 321 322 322 323 324 328
304 304 304 304 304 304 304 304 304 303 303 302 302 302 304 306 308 307 311 317 318 314 311 312 320 320 319 319 317 317 317 319 318 319 321 320 321 321 321 322 322 322 323 326 328 331 328
304 304 304 304 304 305 304 304 304 304 303 303 302 301 303 306 307 308 313 319 314 310 311 316 318 322 321 318 317 318 319 319 318 317 321 321 322 321 321 321 324 324 323 327 331 330 330
304 304 304 305 305 305 305 305 304 304 303 303 302 303 304 306 307 307 310 317 314 311 311 311 317 322 322 318 316 317 318 318 318 318 321 321 320 320 320 321 322 325 325 325 327 325 325
304 304 305 305 306 305 305 305 304 304 303 303 303 303 304 306 307 308 309 316 311 310 309 312 314 318 322 318 316 317 317 317 318 317 319 320 322 320 320 321 322 325 324 325 324 328 327
305 305 305 305 306 306 305 305 305 304 303 303 303 305 304 306 306 309 310 313 314 310 311 313 315 313 319 320 316 318 318 318 318 318 319 320 321 322 323 323 322 323 326 324 326 327 328
303 304 305 305 306 306 305 305 305 305 304 303 304 306 304 305 306 309 309 311 312 311 312 315 320 315 319 321 317 317 318 319 317 318 320 320 321 324 323 320 320 323 323 324 326 324 324
302 302 303 302 303 303 305 305 305 305 304 304 305 305 305 306 308 311 308 310 310 312 311 314 318 320 320 322 320 317 317 319 318 319 320 320 320 323 322 323 322 322 324 324 324 324 325
301 300 300 301 302 302 303 305 305 305 304 303 304 305 307 308 308 309 308 308 310 311 312 314 315 318 322 324 322 320 318 317 319 319 319 321 320 322 323 322 321 321 321 322 323 328 324
300 299 300 300 301 302 303 302 305 305 304 303 304 307 307 309 310 309 308 308 308 309 312 313 315 316 321 322 321 322 319 319 318 317 319 320 321 320 320 320 320 320 320 320 322 322 324
300 300 300 300 301 302 302 303 306 305 304 303 304 307 308 309 309 309 309 308 308 309 311 314 315 315 317 321 321 322 320 320 318 319 320 320 322 321 320 319 319 319 318 319 318 318 319
301 301 301 301 301 301 302 302 302 305 304 303 303 305 309 308 310 310 311 307 307 309 310 311 312 315 317 320 319 318 318 318 320 322 320 322 324 323 324 320 320 324 319 319 319 319 319
301 302 301 302 302 302 302 303 304 303 303 301 304 306 309 309 310 311 308 308 307 309 310 311 312 315 316 315 314 315 316 316 317 318 322 321 322 325 327 326 329 321 320 320 320 319 319
301 302 302 302 303 303 302 303 303 302 303 301 303 307 309 311 309 307 308 308 307 309 309 311 313 313 315 314 315 314 316 317 317 318 320 324 324 327 330 328 321 320 320 320 320 320 320
302 303 302 301 302 302 302 303 303 302 303 302 304 305 309 311 309 308 308 308 309 309 310 311 313 315 315 316 316 313 315 315 319 319 319 321 325 329 327 327 329 321 320 320 320 324 321
304 304 302 302 303 302 303 303 303 301 302 302 304 305 308 309 307 308 309 308 308 310 312 312 316 317 316 319 322 316 313 310 317 324 325 325 327 331 328 328 323 320 320 320 325 325 320
304 304 302 302 303 302 302 303 303 303 301 302 304 305 308 308 308 308 309 308 308 310 313 312 316 317 319 320 318 316 322 314 315 317 325 325 327 331 328 332 331 320 319 322 324 322 322
303 303 303 302 303 303 303 303 302 302 301 302 305 305 306 309 309 308 310 308 309 308 311 312 315 314 315 315 318 317 324 324 316 324 320 327 324 327 325 325 323 320 322 321 322 323 323

GFSGBSN_925_thetae_066.txt.gz
Theta_e
306 307 307 308 308 309 309 309 307 307 308 308 308 308 307 307 307 309 312 313 315 316 317 317 318 318 318 320 319 318 314 315 314 313 316 319 317 317 316 318 319 319 318 317 318 318 319
306 306 306 305 305 306 307 309 309 307 307 307 307 307 307 307 307 305 308 311 313 314 316 316 318 318 320 320 317 316 317 319 316 316 317 318 317 317 316 318 320 319 320 319 319 319 319
307 306 305 304 304 304 304 304 306 309 307 306 306 306 307 307 307 305 306 308 311 312 315 316 317 317 319 317 316 317 317 317 319 319 318 317 317 316 319 320 320 320 319 319 319 320 320
305 306 307 305 304 304 304 304 304 305 307 307 306 306 306 306 306 307 304 306 310 312 314 316 317 316 319 315 316 317 317 316 317 319 318 317 316 318 319 320 321 320 320 319 320 321 322
304 303 304 305 306 305 304 303 303 302 304 305 307 306 306 306 306 306 305 305 307 310 312 314 316 318 318 314 316 316 316 316 316 319 318 317 317 318 320 320 321 319 319 319 320 323 323
304 304 304 304 303 304 306 305 304 303 302 302 304 307 306 305 306 306 306 304 308 311 314 316 317 318 316 315 316 316 315 315 316 319 318 318 318 319 320 320 322 322 321 321 320 323 323
303 303 303 303 303 303 303 305 306 305 303 302 302 304 306 305 305 306 306 310 315 320 317 320 317 316 313 317 315 315 316 315 316 320 320 319 319 320 321 322 323 322 321 321 322 323 324
303 303 304 304 304 303 303 303 305 306 305 303 302 302 305 305 305 305 306 311 312 317 318 318 320 318 316 316 318 317 317 315 317 321 320 320 321 320 321 322 321 322 321 321 321 322 321
303 303 304 304 305 304 305 304 304 302 304 304 303 302 302 306 305 305 307 309 311 316 317 313 313 312 315 315 317 318 317 315 317 320 321 322 322 322 321 322 321 321 320 322 324 322 321
302 303 303 303 304 304 304 304 304 304 303 304 303 302 303 306 305 307 307 309 310 315 318 309 312 315 313 314 314 316 318 315 317 318 319 321 321 322 322 322 321 322 321 323 322 322 322
302 302 303 304 304 304 304 304 304 303 304 304 303 302 302 305 307 310 312 313 315 318 311 311 314 317 317 315 314 315 316 318 316 318 319 321 321 322 322 321 321 323 323 324 322 321 323
302 303 304 304 304 305 305 305 304 304 303 304 304 302 302 306 306 307 310 311 316 320 309 312 319 318 318 315 314 315 317 319 317 318 320 320 321 321 321 321 322 321 322 323 323 323 326
303 304 304 304 304 304 305 305 305 304 303 303 303 303 303 306 307 307 308 311 318 313 308 310 318 319 317 318 316 316 317 320 318 318 321 320 320 320 320 321 321 321 322 326 329 330 330
303 303 304 304 304 304 304 305 305 305 304 303 303 303 303 305 306 308 309 314 315 310 311 315 314 319 319 320 319 318 317 318 319 317 319 320 322 321 321 321 322 322 322 328 332 335 335
303 303 304 304 304 304 305 305 305 305 304 303 303 303 304 304 305 307 310 315 313 312 311 311 316 319 322 320 319 319 319 318 318 318 320 320 321 320 321 321 321 324 326 324 332 331 336
303 303 304 304 304 304 305 305 305 305 305 303 304 304 304 304 305 307 310 311 310 311 311 312 312 318 321 321 319 318 319 319 318 318 319 319 324 321 321 321 320 321 324 327 328 334 329
302 302 303 304 304 305 305 305 306 306 305 304 304 305 304 304 306 309 310 310 311 310 311 311 311 312 312 318 319 318 318 318 319 319 319 319 322 323 322 321 321 321 325 327 326 326 331
302 302 302 304 304 304 305 304 305 306 305 304 304 306 305 305 308 308 309 310 309 308 311 312 313 313 314 316 319 318 318 319 317 318 319 320 323 325 322 321 321 321 323 327 330 329 329
302 302 303 303 302 303 304 305 306 306 305 305 304 305 304 306 309 308 309 308 309 309 311 312 313 314 318 320 319 321 318 319 319 318 319 321 321 324 324 323 322 320 322 323 325 326 328
303 302 302 302 302 302 304 305 305 306 306 305 304 305 307 307 308 309 309 308 309 309 309 312 313 314 317 320 321 322 320 318 321 321 319 321 322 323 327 326 323 322 321 325 326 331 329
300 301 300 300 301 302 302 302 303 306 306 304 303 306 308 308 308 310 308 308 309 308 309 311 313 313 316 318 319 320 321 318 318 319 320 323 324 323 320 321 321 322 321 320 320 324 328
299 300 300 301 301 301 301 301 303 305 306 305 300 307 308 307 308 308 309 310 309 308 308 309 313 314 316 320 318 317 318 319 320 319 320 321 324 323 324 321 321 321 321 320 320 320 321
300 301 301 301 301 301 300 300 300 302 306 305 301 305 308 307 309 309 310 311 309 309 308 309 310 314 316 317 321 320 319 319 320 322 321 322 323 323 324 321 321 321 322 320 320 321 320
301 301 302 302 302 301 300 300 300 301 303 303 302 306 310 310 310 310 308 308 309 309 310 308 310 315 315 315 318 318 317 317 318 319 320 325 324 322 327 323 326 321 321 319 320 320 319
301 302 302 302 302 302 301 300 300 301 302 303 303 307 309 311 310 309 308 310 309 310 309 310 310 311 317 317 319 318 317 318 319 318 319 320 327 326 327 326 323 320 321 321 321 321 320
301 301 301 301 301 302 301 301 301 302 302 303 303 305 309 312 310 308 309 309 310 311 310 310 310 315 317 318 317 319 320 319 318 319 318 319 326 328 330 326 328 324 321 320 321 323 321
301 301 301 302 303 302 302 302 302 302 303 300 304 305 309 310 310 310 310 310 310 310 312 311 311 316 318 319 319 319 318 316 318 323 322 323 325 327 326 327 326 322 321 320 324 325 323
302 303 303 303 303 302 302 302 302 303 303 301 304 304 308 309 309 308 309 310 310 311 312 312 313 315 318 320 320 318 321 316 314 315 323 324 326 327 327 326 328 322 321 321 323 325 325
303 304 304 303 301 302 303 302 303 303 303 301 304 304 307 309 309 308 308 308 310 310 312 312 313 315 315 317 317 318 327 325 316 314 317 324 323 325 325 326 326 322 323 322 324 327 325

GFSGBSN_925_thetae_069.txt.gz
Theta_e
306 307 306 306 306 306 307 308 309 309 308 307 307 307 307 307 307 307 306 305 309 311 313 314 313 316 317 319 320 315 317 315 314 311 312 313 316 316 315 314 314 315 316 315 315 314 314
308 307 306 305 305 305 306 306 305 306 307 308 307 306 306 306 307 307 307 305 305 308 311 312 315 316 318 319 313 315 317 316 315 314 314 315 316 316 315 314 314 317 317 316 316 315 315
306 306 307 307 306 305 304 304 304 304 304 306 307 307 306 306 306 306 306 306 304 305 309 312 315 316 316 316 309 313 315 315 318 317 315 316 317 316 314 315 318 318 318 316 316 316 315
305 305 305 305 305 305 305 305 304 303 303 303 305 306 306 306 305 306 306 306 306 303 305 311 312 315 316 312 312 315 315 315 316 317 318 318 318 316 315 316 318 318 317 317 316 316 317
304 304 305 304 304 304 303 304 305 305 303 302 302 304 305 306 305 305 305 305 305 302 306 309 313 315 319 315 315 314 313 315 317 316 318 319 317 316 316 316 317 317 318 317 317 317 319
304 304 304 303 303 303 303 303 303 306 305 304 303 302 302 305 305 305 305 305 300 306 310 314 316 316 317 316 315 315 316 315 315 316 318 317 315 315 315 315 319 319 321 317 317 320 322
303 303 303 303 303 303 304 304 303 303 304 305 304 303 302 302 306 305 305 305 311 314 313 319 318 316 312 315 315 316 316 314 315 316 318 316 315 317 316 316 318 319 320 319 318 321 322
302 302 303 305 305 305 305 305 304 304 303 304 305 304 303 301 303 305 305 306 308 310 313 317 319 318 315 317 317 316 315 315 314 314 318 318 318 317 317 318 320 321 320 319 321 321 321
301 301 303 304 305 305 305 305 305 304 304 303 303 304 303 302 304 305 305 305 304 305 313 315 315 317 319 317 318 316 315 314 314 314 319 319 319 318 319 319 320 320 320 319 322 322 320
301 301 302 303 304 304 304 304 304 304 304 304 303 301 303 302 304 304 306 306 310 308 316 313 313 312 312 311 316 315 315 315 314 314 318 319 319 320 320 320 320 320 319 320 323 322 320
301 302 302 303 303 303 303 304 304 304 304 304 303 304 303 302 306 307 309 308 310 313 314 308 309 313 312 311 313 313 314 315 314 315 318 319 320 320 321 321 321 321 323 323 324 321 320
301 301 302 303 303 304 304 304 304 304 304 304 303 303 304 303 305 305 305 306 310 317 315 310 317 317 316 311 313 313 313 313 314 314 315 317 316 318 320 320 320 320 321 322 322 321 322
301 301 302 303 303 304 304 304 304 305 305 304 304 303 304 303 305 305 307 308 317 314 308 307 319 318 317 314 313 314 313 314 315 316 315 316 317 317 319 319 320 320 320 323 324 324 323
300 301 302 303 303 304 304 304 305 305 305 305 304 303 303 304 302 305 307 310 315 312 310 311 314 318 317 317 314 314 313 314 316 316 316 317 319 318 319 319 320 320 320 324 328 328 331
301 302 302 303 303 303 304 304 304 305 305 305 304 304 305 304 302 305 310 312 309 310 309 309 309 313 318 317 318 315 315 315 317 317 316 317 318 319 318 319 319 322 321 322 330 329 332
301 301 302 302 303 303 304 304 304 305 305 305 306 305 304 303 303 305 309 311 309 308 309 310 310 312 320 320 319 318 318 317 317 317 317 318 320 319 319 319 319 320 322 326 331 334 336
301 301 302 302 303 303 304 304 304 304 305 305 306 305 303 303 305 305 307 308 309 308 309 310 310 311 312 313 320 318 318 318 316 316 316 316 318 320 320 320 321 320 320 325 328 328 328
300 301 301 302 302 303 303 304 304 304 305 306 306 305 303 304 306 305 306 306 307 307 308 308 310 310 312 313 314 318 318 317 316 317 316 316 321 322 319 318 320 319 320 325 327 328 328
301 301 302 302 302 302 303 303 304 304 305 306 306 304 304 304 306 305 306 306 307 307 308 308 308 309 310 312 314 320 319 318 317 316 317 318 322 323 321 321 319 319 320 321 326 326 327
301 302 303 302 303 303 303 304 304 304 305 306 302 304 305 306 305 304 305 306 308 307 309 309 308 308 310 313 313 321 322 318 318 317 318 318 320 321 321 324 322 321 321 320 322 322 324
300 300 301 301 301 302 303 304 302 303 305 306 301 304 304 308 306 306 305 306 306 308 307 308 309 309 310 313 316 319 323 323 318 319 318 318 320 319 319 322 323 322 321 319 321 324 325
299 299 299 300 300 300 300 302 302 303 304 306 299 305 304 305 307 306 306 308 308 308 308 308 308 309 310 313 315 320 322 322 320 317 317 318 320 320 320 321 321 323 321 319 319 318 319
299 299 299 300 300 300 300 300 301 303 305 307 300 303 305 305 307 307 306 307 309 308 307 307 307 308 309 310 317 319 318 318 319 319 317 319 320 322 322 320 321 321 320 321 321 318 318
300 300 300 300 300 300 301 300 301 302 302 302 299 303 306 307 307 307 306 306 307 308 308 308 306 308 307 315 318 318 318 318 317 319 318 322 320 321 322 319 323 319 319 320 320 319 317
300 301 302 301 301 301 301 301 301 302 302 303 299 304 305 307 305 308 306 307 306 306 309 307 308 306 307 316 317 319 319 319 317 318 320 319 323 320 323 322 321 321 319 320 320 319 317
301 301 302 302 302 302 302 302 302 301 302 302 299 302 305 307 307 306 307 306 307 306 307 308 308 305 309 313 315 318 321 320 320 319 317 318 319 322 321 322 322 321 320 319 319 319 318
301 301 301 302 302 302 302 302 302 301 301 301 300 300 305 307 307 307 308 308 307 307 307 307 307 310 313 309 313 313 315 317 318 318 318 315 317 318 319 324 322 321 319 319 321 318 319
302 302 302 301 302 302 302 302 302 301 301 301 301 300 304 307 307 308 308 308 308 308 308 307 308 309 310 314 313 312 308 316 315 319 319 319 320 319 319 323 324 320 319 320 318 317 319
302 303 304 303 302 302 302 301 302 301 301 301 300 302 305 308 308 309 308 308 309 309 309 307 308 311 311 313 315 312 312 308 312 310 318 321 320 321 321 320 319 319 320 319 321 321 321

GFSGBSN_925_thetae_072.txt.gz
Theta_e
308 307 306 306 305 305 306 306 306 305 306 307 308 307 307 306 306 307 307 306 306 305 304 306 310 313 315 317 319 309 316 314 314 311 310 310 314 315 315 313 312 312 312 314 313 312 312
306 306 308 308 307 306 306 306 304 304 303 304 306 306 307 306 306 306 306 306 305 305 305 304 310 313 315 315 309 311 314 315 313 312 312 311 313 315 315 314 312 313 315 315 315 314 314
305 305 305 304 304 304 305 306 305 305 303 303 303 305 306 306 306 305 305 305 305 305 305 303 307 312 314 313 307 308 310 312 315 315 313 314 314 315 314 315 314 317 317 315 315 315 315
305 305 305 305 304 304 304 303 303 305 305 304 303 302 303 305 305 305 305 305 305 305 304 303 306 312 314 309 307 310 309 314 311 312 316 317 316 314 314 313 315 316 316 316 315 315 316
305 305 305 304 304 303 303 303 303 303 303 305 304 304 303 302 303 305 305 305 304 304 304 305 309 313 314 313 316 316 315 313 315 316 316 316 317 315 315 314 314 315 316 317 317 318 316
304 304 304 304 303 303 303 303 303 303 302 302 304 305 304 302 301 303 305 304 303 304 305 309 313 314 313 312 314 315 315 313 313 314 315 316 314 314 312 313 315 316 317 317 317 316 314
303 303 303 303 303 304 305 305 305 304 304 303 302 303 305 304 302 302 305 304 305 312 311 315 316 314 311 313 316 315 314 314 313 313 315 316 315 317 314 313 315 316 317 317 317 318 321
302 302 302 302 303 304 305 306 305 305 304 303 303 301 304 304 302 302 304 304 305 305 306 307 312 315 316 316 318 317 314 313 313 314 316 317 318 317 315 315 316 316 317 318 318 319 319
301 301 301 302 303 303 304 305 305 305 305 304 304 303 301 303 302 302 304 304 304 305 307 309 312 315 316 316 319 317 314 312 313 313 316 318 319 317 316 316 317 317 318 318 318 319 318
300 300 300 302 303 303 303 303 304 304 304 304 304 304 303 303 302 302 305 306 306 307 309 309 313 310 312 314 316 313 312 313 313 314 313 316 318 318 317 317 317 318 318 318 319 321 321
299 299 300 301 302 301 302 303 303 304 304 304 304 304 304 303 302 304 307 305 307 308 298 304 309 311 312 312 311 315 312 313 313 313 313 316 318 319 319 319 319 319 319 321 322 321 319
299 299 300 300 301 301 302 303 304 304 304 304 304 304 303 304 304 302 300 303 309 314 307 308 311 311 312 312 311 312 313 312 313 313 312 314 315 317 318 319 319 319 320 321 319 319 322
298 299 299 300 301 301 302 303 304 304 304 304 305 304 304 305 303 302 306 308 313 312 306 306 314 316 312 311 310 312 312 313 315 314 314 313 314 315 315 317 318 319 318 321 322 323 322
298 298 299 300 300 301 302 303 304 304 304 305 305 305 304 304 303 303 304 311 313 309 308 308 309 309 316 312 310 311 312 310 311 314 314 314 316 314 316 316 319 319 319 322 324 324 325
297 298 299 300 301 301 302 303 303 304 304 304 305 305 305 304 303 303 306 308 309 308 310 309 308 307 310 316 314 312 312 312 311 313 315 314 315 316 316 317 318 319 320 320 327 328 327
298 299 299 300 300 301 302 303 303 304 304 304 306 306 305 304 303 303 306 308 307 306 307 308 310 309 309 314 314 313 313 313 313 313 314 316 317 316 316 318 317 319 320 327 328 330 330
298 298 299 300 301 301 302 302 303 303 304 304 306 306 305 304 303 303 305 306 307 306 306 308 308 310 310 311 312 313 316 316 313 315 315 316 316 317 318 318 318 319 320 324 328 328 329
298 299 299 300 300 301 301 302 302 303 304 304 306 306 304 303 305 304 303 306 306 306 307 307 309 309 309 309 311 314 314 315 315 314 316 316 317 318 317 318 318 317 319 320 326 330 328
299 299 300 300 300 301 301 302 302 303 304 305 306 303 303 303 306 305 303 303 305 306 306 307 308 308 308 309 311 315 313 318 317 315 315 315 318 319 317 318 318 318 318 320 324 324 327
299 299 300 300 301 301 302 302 302 303 303 305 300 303 304 304 303 305 305 304 305 304 305 306 307 308 307 308 309 315 315 320 320 318 318 316 318 317 317 318 320 320 320 319 322 323 324
300 301 301 302 302 301 302 303 303 302 303 305 298 302 304 307 305 305 305 305 305 307 306 307 306 308 309 309 310 315 321 320 321 318 319 317 319 317 318 319 320 319 320 321 320 321 323
299 299 299 299 299 300 300 301 302 303 303 305 298 303 303 305 305 305 306 305 305 305 306 307 307 308 309 308 308 311 319 320 322 319 318 317 318 319 320 319 319 320 321 321 321 318 322
298 299 299 299 299 299 298 300 299 301 303 305 303 300 304 305 306 306 305 305 305 306 305 305 306 306 306 307 308 316 316 318 319 319 319 317 318 318 319 319 320 322 321 322 321 320 318
298 298 299 299 300 300 299 299 300 300 302 303 301 303 305 307 305 307 306 305 305 306 306 307 306 306 306 313 313 316 316 318 318 318 317 320 318 317 316 318 325 320 320 321 322 320 319
300 300 300 300 301 301 300 300 300 299 300 303 300 303 305 306 305 306 306 305 304 304 307 305 306 305 304 309 314 314 314 316 315 317 318 318 320 316 319 321 321 320 319 320 320 319 318
301 301 301 300 300 301 302 301 301 300 300 302 299 301 304 306 305 304 305 305 306 305 305 305 305 305 306 310 312 315 316 317 318 318 317 319 318 318 315 321 320 318 318 318 318 320 317
301 301 302 301 301 301 300 302 301 301 301 301 299 300 301 303 304 304 306 306 305 305 305 304 305 306 306 306 307 309 312 316 317 317 319 314 315 316 314 318 318 318 318 318 321 319 317
302 302 302 302 302 302 301 302 301 300 301 301 301 299 300 300 306 305 306 305 305 306 305 304 306 306 307 306 307 307 307 311 315 316 317 318 318 317 315 317 320 318 318 320 317 316 317
301 301 301 303 302 302 301 301 301 301 301 301 301 299 300 303 306 307 306 306 305 306 306 305 306 306 307 308 309 308 306 304 311 314 315 317 315 316 315 316 316 319 320 319 318 318 318

GFSGBSN_925_thetae_078.txt.gz
Theta_e
306 305 304 304 305 305 306 307 307 307 305 305 305 304 302 303 305 305 305 305 304 304 305 304 304 304 309 310 310 305 312 312 311 312 310 309 311 311 314 312 310 310 311 310 309 309 310
305 304 304 305 304 304 305 306 304 303 303 304 304 305 304 303 302 303 304 304 304 304 304 305 304 306 312 310 305 309 312 313 314 311 310 308 309 311 313 313 312 312 311 311 311 312 312
304 304 304 304 303 303 303 303 303 303 304 303 303 302 304 304 303 303 301 301 302 303 304 304 304 307 310 306 304 308 310 310 309 311 309 309 310 313 313 314 313 313 314 311 311 312 312
303 304 304 303 303 303 303 303 303 303 303 303 303 302 302 304 304 303 302 301 300 300 302 304 305 307 308 305 303 303 303 307 306 305 307 313 313 311 313 313 313 313 312 313 311 312 313
303 302 302 303 303 303 303 303 303 303 303 303 303 303 302 301 301 304 303 302 299 300 304 305 306 308 308 305 310 308 313 312 312 310 309 312 312 313 314 313 313 311 312 311 311 312 315
303 303 302 302 302 302 303 303 302 302 303 304 304 304 303 303 301 303 304 301 302 306 305 306 309 307 305 305 310 314 313 314 310 311 313 312 313 313 312 312 317 314 314 312 313 313 313
304 303 303 302 302 302 302 303 303 302 303 304 305 305 304 303 302 302 303 302 302 302 303 307 309 308 308 311 313 314 313 312 311 311 313 312 313 315 315 314 312 312 313 315 312 312 315
303 302 302 301 302 302 301 302 302 302 303 303 304 305 305 304 303 301 302 303 304 303 305 305 304 304 306 308 309 309 312 312 312 312 312 313 315 315 314 314 314 314 314 314 312 313 313
302 302 301 301 301 300 301 301 302 302 303 303 303 303 304 304 303 301 302 302 303 304 308 307 306 306 305 306 307 306 310 311 312 312 312 313 314 314 314 314 315 315 315 315 314 313 313
302 300 299 300 300 300 300 300 302 302 302 302 303 303 304 304 303 302 302 304 304 305 307 303 306 306 306 307 308 307 309 309 311 313 312 313 312 314 315 315 314 315 313 315 314 315 316
300 298 300 299 300 299 299 300 301 301 301 301 303 303 304 304 301 303 305 303 302 305 298 301 307 307 309 305 307 312 310 309 306 312 312 313 313 314 316 315 314 316 313 314 314 315 316
300 299 299 299 299 298 298 299 299 299 300 301 302 303 304 304 305 303 302 302 307 308 300 301 307 312 312 311 311 312 311 309 309 311 311 311 312 312 313 314 314 316 315 316 317 316 319
299 298 298 298 298 298 299 299 297 299 300 301 302 303 304 304 303 303 303 305 310 309 304 304 307 307 306 312 312 310 312 311 310 312 313 312 311 311 315 313 314 315 316 319 319 321 322
298 299 299 298 298 298 298 299 297 299 300 300 301 303 304 305 304 303 303 307 310 307 306 305 307 307 306 309 310 310 311 310 309 311 307 310 312 312 312 316 317 316 316 319 324 322 321
298 298 298 298 298 298 298 298 297 298 300 301 301 303 305 305 305 303 302 305 305 306 306 307 307 308 306 310 312 311 309 310 309 309 312 312 312 311 312 313 315 316 318 316 321 323 324
297 298 298 297 297 297 297 297 297 298 300 300 302 304 305 305 305 303 304 301 303 305 306 306 307 309 310 308 311 313 312 311 310 308 310 313 314 312 313 312 313 315 316 321 320 327 328
297 296 296 296 297 297 297 297 299 299 299 301 303 305 305 305 305 304 305 301 301 301 302 306 307 308 308 309 309 313 313 311 310 314 313 310 313 314 313 313 313 315 316 320 321 320 322
295 296 296 297 297 297 297 298 299 299 299 301 303 304 305 305 306 303 305 303 302 303 304 303 306 306 307 307 308 312 313 313 311 315 317 311 311 314 314 314 313 313 315 319 321 324 320
296 297 297 297 297 298 298 298 299 299 300 302 304 304 305 305 307 305 304 304 302 303 304 305 306 306 306 306 307 309 311 312 315 316 318 318 316 313 315 314 314 317 316 318 321 321 323
297 297 297 298 298 298 299 299 299 299 300 302 298 303 304 306 305 306 305 304 305 301 302 304 306 305 306 307 306 308 308 308 310 313 318 317 320 315 314 313 313 317 316 317 320 319 320
298 298 297 298 298 299 299 299 299 300 300 302 298 301 303 304 306 305 305 304 305 304 302 302 303 305 305 306 306 306 306 306 311 315 317 317 319 315 315 313 313 318 318 318 318 317 319
298 299 299 299 300 300 300 300 300 300 300 302 297 301 303 302 305 306 305 305 306 305 304 303 303 304 304 305 305 305 306 308 309 316 317 317 318 316 316 314 314 315 316 316 317 318 318
298 297 297 297 297 298 298 299 301 300 301 302 299 299 304 304 304 306 306 305 306 305 304 304 303 304 305 305 303 303 303 304 305 307 314 318 315 316 318 317 317 319 317 316 317 317 318
297 297 297 297 297 297 297 298 298 301 301 301 300 301 304 306 305 306 305 305 306 305 305 304 304 304 304 303 304 304 304 305 306 306 307 315 315 314 316 317 320 317 315 316 317 316 316
298 298 298 298 298 298 298 298 298 298 298 302 301 302 303 305 306 305 305 305 304 305 305 304 304 303 303 302 305 306 305 309 310 310 312 314 316 317 320 320 317 316 318 319 319 318 316
298 298 298 299 299 299 299 299 299 298 298 299 298 301 303 304 305 305 306 305 305 305 305 304 304 303 303 304 306 309 309 309 313 316 313 312 315 318 317 322 322 315 314 316 317 319 317
299 299 300 300 300 300 300 300 299 299 299 299 299 298 300 303 304 305 306 306 304 304 304 303 304 304 304 305 308 309 308 309 312 316 316 317 316 320 319 319 319 316 315 316 320 319 317
301 301 301 301 300 301 301 300 300 300 299 300 300 298 299 300 303 304 304 304 303 303 304 303 305 303 304 306 308 308 303 307 309 309 315 314 314 316 317 319 320 315 319 321 316 316 318
302 302 302 302 301 301 301 301 301 301 300 300 300 300 299 302 303 303 303 303 303 303 303 304 305 303 303 304 303 303 303 298 307 308 309 311 312 313 314 315 313 314 318 317 317 317 317

GFSGBSN_925_thetae_081.txt.gz
Theta_e
306 304 305 305 305 304 304 305 305 304 304 303 304 304 304 304 303 302 302 302 302 303 303 304 304 306 306 307 305 303 306 311 311 315 310 310 313 314 317 314 312 313 313 313 312 311 311
305 304 304 303 303 304 305 304 304 303 304 304 303 303 302 302 304 304 303 302 301 301 300 301 303 306 310 305 302 305 309 312 312 310 309 309 311 312 314 315 314 314 312 313 313 314 314
304 303 303 303 304 303 303 303 303 303 303 303 303 302 302 302 301 303 303 303 303 302 300 300 302 307 307 305 301 306 309 309 311 311 309 308 309 313 313 315 313 314 315 315 315 315 315
303 303 303 302 302 302 303 303 303 303 303 303 302 302 303 302 302 301 300 303 304 301 301 302 304 306 305 303 303 303 302 304 304 303 306 310 311 312 313 313 314 315 314 316 313 313 314
304 304 303 302 302 302 302 302 302 302 302 302 303 304 304 304 303 303 301 303 301 302 306 306 306 305 306 304 308 306 308 309 311 309 306 312 312 315 314 315 315 314 315 314 314 313 314
303 304 305 304 302 301 301 301 302 302 302 302 303 304 304 304 304 303 302 300 301 305 306 306 306 305 304 303 309 312 313 313 311 312 311 312 315 317 316 316 317 316 316 314 315 314 315
301 302 304 303 302 301 302 301 301 301 301 301 302 303 304 304 304 304 302 301 304 303 303 306 306 306 307 309 310 313 313 313 311 312 313 314 316 318 318 317 314 316 315 315 315 314 315
301 301 302 302 302 301 302 302 300 301 301 301 302 302 302 304 304 304 302 302 304 303 306 304 303 305 306 307 307 308 310 313 312 313 313 314 318 316 315 316 317 315 315 316 315 314 315
301 300 301 301 301 301 302 301 301 300 300 301 302 302 302 303 304 304 301 301 304 303 307 306 306 306 305 304 306 306 308 312 312 313 314 314 316 315 315 315 317 318 318 318 316 314 315
299 299 300 300 300 301 301 299 300 300 301 301 301 301 303 303 304 302 301 304 304 305 307 305 305 306 305 306 306 305 305 308 313 314 313 313 313 314 315 315 316 317 316 316 317 317 317
300 300 300 299 299 299 297 299 299 299 300 301 300 301 303 303 302 302 304 302 302 305 301 301 308 305 306 305 306 310 306 307 305 312 313 315 314 313 315 315 315 316 315 316 317 317 316
298 298 299 299 299 297 298 298 297 298 299 299 300 301 302 304 304 304 304 303 306 309 300 302 309 312 308 308 309 311 310 309 308 307 309 311 311 313 313 314 315 316 316 316 316 317 319
296 298 299 299 298 298 298 298 298 297 297 298 299 300 301 304 304 303 303 304 308 308 304 305 306 307 307 311 312 311 312 310 311 309 309 310 311 312 313 314 315 316 318 319 323 323 318
298 299 299 299 298 298 298 298 297 297 297 297 299 300 301 303 304 303 303 305 309 306 307 306 307 307 306 308 310 311 312 312 310 310 308 310 310 313 313 315 316 317 318 318 318 323 320
295 297 299 298 297 298 298 297 297 297 297 297 299 300 302 302 304 304 304 305 305 306 306 307 306 307 308 308 311 312 311 311 310 310 310 310 309 310 312 315 316 317 318 316 320 324 326
297 296 297 297 297 299 298 297 298 297 296 297 300 301 301 302 304 303 305 304 303 304 305 306 306 308 309 308 311 313 312 311 311 313 310 313 314 313 312 312 314 317 317 319 319 320 323
296 297 297 297 297 296 295 296 297 297 297 298 300 302 301 302 304 304 305 304 302 301 301 306 307 307 308 309 309 313 313 311 312 315 313 312 313 316 314 314 314 314 317 320 319 321 321
295 295 295 295 296 296 296 297 296 297 298 299 300 302 302 303 305 302 306 304 302 303 303 302 305 306 307 307 308 309 312 311 314 315 317 316 315 314 313 314 313 314 315 317 324 325 323
296 295 296 296 296 296 297 297 297 297 298 299 301 301 302 304 304 304 306 305 303 302 303 305 305 305 306 306 305 307 310 310 313 313 313 312 319 317 314 312 312 314 316 316 317 320 324
295 296 296 297 297 297 297 297 297 298 298 299 300 302 302 304 303 305 305 307 306 303 302 304 305 305 306 307 307 307 307 307 307 306 315 313 315 320 319 316 315 315 317 317 319 322 321
296 297 298 298 298 298 298 299 298 298 298 300 299 300 302 304 304 305 305 305 305 305 303 302 303 305 306 306 306 306 306 306 306 309 316 315 312 313 317 316 318 318 315 316 320 320 322
297 298 299 299 299 299 299 298 298 299 299 301 298 302 301 303 304 305 305 305 305 305 303 303 303 303 304 306 306 305 305 306 306 307 306 311 315 316 317 317 318 318 317 314 317 317 318
298 297 296 296 297 298 298 299 300 299 299 300 300 299 303 304 305 306 306 305 305 305 304 303 303 303 304 305 305 305 304 304 304 305 306 307 315 318 317 317 317 319 317 316 316 317 318
297 296 297 297 298 299 298 298 297 298 300 300 298 301 304 306 304 306 306 305 305 305 306 305 304 304 304 303 304 304 304 305 305 305 305 309 312 315 317 318 324 318 316 316 317 317 318
296 297 297 297 297 298 298 298 298 297 298 301 300 301 302 304 304 304 306 306 305 306 306 305 304 304 304 304 305 306 307 307 307 306 307 308 309 316 319 321 317 319 319 320 319 319 317
297 297 297 298 298 298 298 298 298 298 297 296 299 300 302 303 304 304 305 306 306 306 306 305 305 304 304 306 308 309 309 309 311 312 308 307 308 316 318 320 319 318 317 317 318 322 318
298 298 298 299 299 299 299 299 298 298 298 297 297 297 297 302 303 304 305 307 305 305 305 305 305 305 304 308 307 307 307 307 308 313 314 313 315 316 316 318 319 317 316 317 321 322 318
299 300 300 300 301 301 300 300 299 299 298 299 297 298 296 299 301 304 304 305 304 304 305 304 305 305 306 308 308 310 309 308 307 307 314 316 317 317 316 319 320 316 319 321 320 318 319
300 301 301 301 302 302 301 300 300 300 299 299 299 299 297 299 302 302 302 303 303 304 304 304 305 304 305 306 307 308 308 306 309 309 307 310 314 316 317 318 315 314 318 318 318 319 320

GFSGBSN_925_thetae_084.txt.gz
Theta_e
306 304 304 304 303 304 304 305 304 304 304 304 304 304 303 303 303 303 304 304 303 303 303 301 300 306 307 309 306 306 304 309 318 315 314 316 317 316 316 316 315 316 315 316 317 317 317
304 304 305 303 304 304 304 304 303 303 303 303 303 303 302 302 302 301 301 300 301 302 303 303 302 304 308 308 304 306 307 313 313 316 317 314 317 317 317 317 317 317 317 317 317 317 316
305 304 302 303 302 303 303 303 303 303 303 303 303 303 302 303 303 303 302 302 300 300 302 302 306 305 307 307 304 307 308 311 313 312 314 314 314 314 316 316 317 317 317 318 318 318 318
305 305 304 304 303 302 302 302 302 302 302 302 302 302 303 304 304 304 303 303 302 299 300 303 306 306 308 305 306 306 305 306 306 308 309 312 312 314 315 316 317 317 318 320 319 317 316
302 303 303 304 304 302 301 301 302 302 302 302 302 302 304 304 304 304 304 303 302 300 305 305 307 308 306 305 307 307 306 306 309 307 306 308 313 314 314 316 317 317 319 320 319 318 317
303 304 302 303 304 302 302 301 301 301 301 301 301 302 303 303 304 304 304 304 302 306 307 307 307 308 307 304 309 312 313 314 314 312 308 308 314 315 316 316 317 317 320 320 320 319 316
300 301 302 302 303 303 302 301 301 301 301 301 301 302 303 302 303 304 305 304 306 308 306 309 307 307 306 309 308 311 315 316 313 313 309 310 315 315 315 317 317 318 319 320 320 317 317
301 301 301 301 301 302 302 302 301 300 300 300 300 302 302 302 303 304 305 304 305 304 307 307 306 306 306 307 307 308 313 315 315 315 311 312 315 314 314 316 318 319 318 319 318 317 317
300 300 300 299 300 302 301 299 301 300 300 299 300 301 301 302 303 305 305 303 305 305 307 308 307 307 308 306 306 307 311 314 314 315 314 314 314 313 316 317 318 318 319 319 318 318 318
298 299 300 301 300 300 301 299 298 298 299 298 300 301 301 302 304 305 305 304 304 304 310 307 307 308 307 307 307 306 305 312 314 314 314 314 313 315 315 317 316 318 317 317 318 318 319
297 298 299 300 301 299 299 298 297 297 298 298 298 300 300 302 305 305 305 304 304 307 307 303 308 308 308 307 306 311 306 306 309 315 315 316 315 314 316 317 316 316 316 315 317 319 320
297 297 298 298 299 298 299 298 298 298 297 297 297 297 300 303 304 304 305 306 306 311 306 304 311 311 309 308 308 311 309 307 307 305 307 313 313 314 315 314 315 317 317 318 319 320 322
298 298 298 299 299 299 299 298 298 298 297 297 297 297 300 303 304 305 305 306 311 309 305 306 310 309 308 312 313 312 311 311 312 308 306 304 309 312 314 315 315 317 318 322 324 324 323
296 296 296 298 298 298 298 298 297 296 297 297 297 297 301 302 304 303 305 308 310 305 307 307 308 308 308 310 313 313 314 313 312 311 310 307 306 306 308 312 314 317 319 322 323 324 324
296 295 296 296 297 298 298 296 297 296 297 297 297 299 301 302 303 303 305 309 304 306 307 308 307 308 309 310 312 314 313 313 314 312 312 310 310 310 310 311 311 316 319 319 321 320 324
295 295 296 297 297 297 296 296 297 296 297 297 299 300 301 302 304 303 306 306 305 306 307 307 307 309 309 309 309 312 315 313 314 315 316 313 313 312 312 313 313 313 316 319 320 321 323
295 296 297 297 297 297 297 297 297 295 295 297 299 301 301 302 304 304 306 306 305 304 304 307 308 308 309 309 309 309 311 313 313 314 316 315 314 315 315 314 314 315 317 318 319 320 322
296 296 296 296 296 296 296 297 297 296 296 297 299 302 301 303 303 303 307 305 304 304 304 304 306 308 308 308 308 308 308 311 312 312 315 317 319 316 314 315 315 315 316 318 321 318 321
296 296 296 296 297 297 296 297 297 296 296 299 300 300 301 303 305 304 305 307 305 304 305 305 304 305 306 307 307 308 308 310 310 310 312 313 320 320 316 315 314 315 315 316 318 319 322
295 295 296 296 297 297 297 297 296 297 297 298 300 302 302 303 303 306 305 305 309 305 304 305 306 306 307 308 308 307 308 307 309 308 310 309 311 317 321 320 320 320 318 317 318 323 320
296 296 296 296 297 297 298 297 297 297 297 298 299 301 301 304 303 303 305 305 306 307 304 304 305 306 307 308 308 309 308 308 307 308 310 311 311 310 311 313 314 316 318 319 319 318 322
297 297 297 298 298 299 299 298 299 298 298 299 299 301 302 302 303 304 305 305 306 304 306 305 305 305 306 308 308 308 308 308 308 308 309 309 315 315 316 314 315 318 317 318 319 318 318
298 298 298 298 297 296 298 299 299 298 299 300 298 299 303 303 304 305 306 307 306 306 305 305 305 306 306 306 306 307 307 307 307 307 309 310 312 313 315 315 316 318 319 320 319 318 318
298 299 299 298 297 298 298 297 297 299 299 299 298 300 302 303 304 304 304 305 305 305 306 306 305 306 305 305 306 306 307 307 307 308 308 309 311 313 314 316 319 317 318 321 320 318 317
297 296 297 297 297 298 298 298 298 297 298 300 299 301 302 304 304 305 304 306 305 307 307 306 306 305 305 305 308 308 309 308 308 308 309 309 310 312 313 317 316 317 314 320 323 320 318
296 296 296 296 296 296 297 297 297 298 298 297 300 300 303 305 306 303 305 305 306 307 308 306 305 305 305 307 310 309 309 309 309 311 309 308 309 312 313 318 316 315 314 317 317 325 321
296 296 297 298 298 298 298 298 298 298 298 297 295 298 300 303 302 303 304 306 306 307 307 306 307 305 305 308 310 309 308 307 309 311 312 311 311 313 313 317 316 317 317 317 326 326 321
298 299 298 299 299 300 300 299 299 298 298 298 297 297 297 301 303 303 304 304 305 307 307 307 307 305 305 310 309 309 308 307 307 307 316 313 312 313 312 318 317 315 316 319 319 321 320
300 300 300 300 300 299 299 300 301 299 299 298 298 297 296 299 302 302 302 304 304 305 306 307 306 307 307 308 309 309 311 311 308 310 307 309 316 318 316 314 313 312 314 315 315 317 317

GFSGBSN_925_thetae_087.txt.gz
Theta_e
306 305 305 305 304 303 304 304 304 304 304 303 303 303 303 304 304 303 302 302 302 301 300 301 303 303 307 311 312 310 306 310 317 317 316 317 319 319 320 319 319 319 319 319 318 319 318
306 306 304 303 303 303 303 304 304 303 303 303 303 303 303 302 303 304 303 303 303 303 301 300 303 305 307 310 308 306 308 310 311 317 317 317 319 319 319 319 319 319 318 319 319 319 320
304 305 305 303 303 303 302 303 302 302 302 303 303 303 303 303 304 304 304 304 304 303 303 300 302 306 307 308 307 307 310 308 312 313 317 318 318 318 319 320 319 318 319 320 320 320 320
305 304 304 304 305 304 303 302 301 302 302 302 302 302 302 302 304 304 304 304 304 304 303 300 304 308 309 307 306 308 308 307 310 313 314 316 316 318 319 319 319 319 320 321 321 322 321
304 304 304 304 303 304 304 302 301 301 302 302 301 301 301 302 303 303 304 304 304 305 303 305 309 309 309 307 307 307 307 307 307 308 309 308 311 316 318 319 320 320 321 322 322 322 320
302 303 303 303 302 301 303 303 302 301 301 301 301 301 301 302 303 302 303 304 306 305 309 309 309 311 311 307 308 312 315 307 308 311 309 308 308 312 313 316 320 320 321 320 321 323 323
301 302 301 302 303 303 303 302 303 301 301 300 300 300 300 302 302 302 304 307 309 312 310 311 311 311 309 309 308 308 316 317 317 317 312 310 307 313 314 314 316 318 319 320 322 323 321
300 301 302 302 301 302 302 302 302 299 300 300 300 300 300 302 301 302 305 309 308 306 309 308 308 308 308 308 308 309 312 316 317 318 316 312 310 313 316 315 316 317 318 320 320 321 321
301 301 300 301 301 301 301 302 302 300 300 299 299 298 300 301 302 304 307 306 306 307 310 308 309 310 310 309 309 309 310 316 317 317 315 316 316 314 314 315 317 317 319 321 321 321 321
299 300 299 299 300 301 301 301 301 299 298 297 299 298 299 300 303 306 307 306 306 307 311 308 309 310 309 309 309 309 308 312 314 314 313 315 315 316 316 316 316 319 319 319 319 321 322
298 298 298 298 300 300 300 299 299 299 299 298 297 298 298 299 304 307 306 306 307 308 305 308 308 310 311 310 309 311 310 308 311 313 313 314 315 315 316 316 315 318 318 318 319 320 320
298 297 298 298 299 298 300 298 299 298 298 298 297 297 298 301 303 305 305 307 308 312 306 306 310 311 311 311 309 313 310 307 307 308 312 315 316 315 315 315 317 317 317 318 319 319 323
297 298 298 298 298 298 300 299 299 298 298 297 297 297 298 302 305 306 307 308 311 308 306 306 311 312 311 313 313 313 311 309 310 307 309 310 311 314 315 316 316 316 318 322 325 325 326
297 297 297 297 297 297 298 299 299 298 297 297 297 297 299 301 303 305 307 310 310 306 307 308 309 310 309 311 314 315 315 315 313 312 312 309 309 307 313 314 316 317 318 322 325 328 327
296 296 297 297 296 297 298 299 298 296 296 297 297 298 299 302 303 305 307 309 307 306 307 308 309 309 309 311 313 315 316 316 315 314 314 313 312 311 308 309 312 315 318 318 320 322 326
296 296 296 296 296 297 298 297 297 297 297 297 299 300 300 301 303 304 306 307 306 307 308 308 310 310 310 311 312 313 315 315 315 317 316 315 316 313 311 311 309 310 311 316 318 321 324
295 295 296 296 297 297 297 298 297 297 297 295 299 300 300 302 304 304 307 307 305 306 306 308 309 309 310 310 310 310 311 315 314 315 318 317 316 316 314 313 314 312 313 315 317 320 320
295 295 295 296 296 297 297 297 298 296 295 296 299 301 301 303 305 304 304 306 305 307 305 305 307 309 309 308 309 309 310 311 312 313 316 318 320 318 315 315 315 315 315 315 318 320 320
296 296 297 297 296 297 297 297 297 297 296 298 299 301 301 303 305 305 303 304 307 306 306 305 305 305 306 307 308 309 309 310 310 310 312 311 319 319 317 315 315 316 317 317 318 319 320
296 296 296 296 296 297 297 297 296 296 296 298 301 303 302 304 304 306 305 304 305 307 308 305 306 306 306 307 308 310 309 309 310 309 308 309 310 313 318 320 318 318 316 317 318 322 320
295 296 296 296 296 297 297 297 297 297 295 298 300 302 302 305 304 304 304 305 306 305 307 306 307 307 307 307 308 310 310 310 310 309 309 310 311 311 311 311 312 316 316 317 318 318 320
297 298 298 298 297 298 298 298 297 297 297 298 299 300 301 302 302 304 304 304 304 306 308 307 307 306 306 307 307 310 311 311 311 310 311 312 314 313 314 312 313 313 314 315 316 317 318
298 298 298 298 298 298 298 298 299 298 297 298 298 299 302 302 303 303 304 305 304 305 305 306 306 306 306 307 307 308 308 309 309 310 311 312 313 314 314 311 316 318 314 315 318 319 319
298 298 298 299 298 298 298 297 298 299 298 297 297 299 301 304 304 305 303 303 304 305 306 307 306 306 307 308 307 308 308 308 309 309 308 311 311 312 315 312 313 312 318 318 320 320 322
297 297 297 297 297 298 298 296 297 297 298 299 298 300 302 304 303 303 304 304 304 305 306 308 307 307 307 308 308 309 310 309 310 310 310 309 311 315 315 314 312 311 315 315 317 317 322
296 296 295 296 297 297 297 297 297 298 297 299 298 299 303 304 305 302 303 303 306 306 307 307 307 307 307 308 311 310 312 311 312 311 310 310 310 313 313 313 316 319 316 317 318 324 321
298 297 296 296 296 296 297 297 297 297 298 298 297 297 301 305 304 304 305 305 306 307 307 309 308 307 307 310 311 311 312 309 311 311 315 313 313 313 313 313 314 317 317 318 322 323 316
301 300 299 298 298 297 297 298 297 297 297 298 299 297 298 301 304 305 304 304 305 307 309 309 308 307 306 310 310 310 311 309 309 309 315 314 314 315 313 312 315 314 317 321 318 318 318
301 301 301 300 299 299 299 299 299 298 298 298 299 298 297 299 302 303 304 305 305 304 307 307 306 307 308 310 309 310 311 311 309 311 311 315 313 315 312 312 316 313 317 314 313 315 316

GFSGBSN_925_thetae_090.txt.gz
Theta_e
307 307 306 306 305 304 305 305 305 305 304 304 303 304 303 304 306 305 305 304 304 304 303 303 302 304 305 309 311 310 310 309 312 315 317 318 318 319 321 321 321 321 320 320 320 320 319
306 306 306 306 305 306 305 305 303 303 302 302 303 303 303 303 303 303 304 305 304 304 304 304 304 303 307 307 307 309 308 309 311 316 318 318 318 318 320 320 321 321 320 320 320 320 319
306 306 306 305 304 304 305 303 302 302 302 303 302 302 302 302 302 302 303 304 304 304 304 304 305 306 307 307 307 307 309 310 309 312 315 317 318 319 320 321 321 321 321 320 320 320 320
304 304 305 305 304 304 304 304 303 301 301 302 302 302 301 301 301 302 303 302 302 302 304 305 304 307 308 307 307 308 308 308 309 310 314 314 316 319 320 320 320 320 320 321 320 320 321
304 303 303 304 304 304 303 302 304 303 302 301 301 301 301 301 301 302 302 301 301 302 306 305 308 309 309 309 309 309 308 308 309 309 311 314 313 317 318 319 320 320 322 322 322 322 322
302 303 302 303 303 303 302 303 302 303 302 301 301 301 300 300 301 302 301 301 301 306 308 310 308 312 312 311 308 309 313 314 310 309 309 309 309 310 312 316 321 320 321 322 322 321 321
301 301 302 302 303 303 304 303 303 302 302 301 301 300 300 300 301 302 303 306 310 311 311 313 313 311 312 310 310 310 309 315 309 309 309 309 309 309 310 314 315 318 318 320 320 322 322
300 301 301 302 302 302 302 302 302 302 301 300 300 300 300 299 300 301 302 309 308 307 309 308 309 310 310 309 309 310 309 316 317 318 317 313 310 309 309 312 315 316 316 317 319 321 320
300 300 301 301 301 301 302 302 302 301 302 301 299 298 299 298 300 301 305 308 306 308 309 308 308 308 308 309 308 309 310 310 314 317 317 317 316 312 311 310 312 317 318 318 320 321 321
300 300 299 300 300 300 301 301 301 301 301 299 300 299 298 298 300 306 308 307 307 308 311 307 310 310 310 311 311 311 310 310 311 315 317 317 315 315 316 315 312 316 317 318 320 322 325
298 299 299 299 299 299 300 300 298 299 300 299 299 298 298 298 301 305 307 306 307 309 309 311 310 310 311 310 311 311 310 310 310 315 314 315 314 314 315 315 316 316 317 318 321 322 322
297 298 297 298 299 298 298 299 298 298 299 298 298 298 297 299 301 302 304 306 308 311 307 306 311 310 311 311 310 313 313 311 309 309 311 313 314 315 315 316 316 317 317 318 320 321 325
296 297 298 297 297 298 298 298 300 299 299 298 298 297 298 299 302 305 306 308 311 309 306 306 309 311 312 313 312 311 313 311 309 308 309 309 311 313 316 316 316 316 318 321 324 325 327
297 295 296 297 297 297 298 298 298 299 299 298 297 297 299 299 300 302 305 309 312 308 308 307 309 312 312 311 314 313 314 312 310 310 309 311 310 312 314 315 316 316 319 320 322 330 331
296 296 297 297 296 297 297 297 298 299 297 297 297 298 299 299 301 302 306 307 306 307 308 308 309 308 311 310 312 315 315 315 314 313 314 314 313 312 310 311 315 317 318 317 320 321 325
296 296 297 296 297 297 297 297 298 298 297 297 298 299 301 300 301 303 305 305 305 305 307 310 310 309 309 310 311 314 314 314 317 315 317 315 317 315 311 309 311 314 317 319 319 321 319
296 296 295 296 296 297 296 296 297 298 297 297 297 300 299 300 303 305 305 304 305 304 307 310 309 312 313 314 311 313 316 317 315 315 316 319 317 315 314 309 310 309 310 311 312 315 319
295 296 296 296 296 297 297 296 297 296 297 296 298 301 300 301 305 305 306 303 304 304 306 307 309 309 312 311 311 311 310 314 313 313 314 316 319 320 315 314 313 313 311 311 314 317 320
296 296 296 297 297 297 296 297 296 296 296 297 299 300 300 304 305 304 303 303 303 304 306 306 309 306 307 306 308 308 310 311 311 311 311 310 315 318 316 315 315 316 316 315 315 316 318
296 296 296 296 296 297 297 297 296 296 296 297 300 302 301 304 304 304 304 303 303 303 306 307 308 308 306 305 306 308 309 310 311 310 308 308 310 312 316 319 316 318 319 315 317 320 319
296 296 296 297 297 297 297 297 296 296 296 297 299 302 301 304 305 303 303 303 306 305 304 306 309 309 307 305 305 307 308 309 311 311 310 310 311 310 310 309 310 311 312 317 318 317 319
296 297 298 298 298 298 298 297 297 296 296 297 299 299 300 301 303 303 303 303 303 303 306 307 307 308 307 309 308 308 310 311 312 311 311 312 316 313 313 312 312 311 311 312 315 315 315
297 298 298 298 298 298 298 298 298 297 296 298 298 297 300 301 302 303 304 304 303 303 303 305 308 308 307 308 307 309 309 310 311 310 311 312 313 314 314 312 312 315 314 312 312 314 315
298 298 298 298 298 298 298 298 298 298 297 297 297 298 300 301 302 302 302 302 303 304 304 305 307 309 308 308 309 308 308 308 308 309 309 311 311 313 315 314 314 312 311 317 316 317 318
297 296 297 297 297 297 298 299 298 298 298 297 297 298 301 302 301 302 303 305 304 304 304 305 306 308 308 309 309 308 309 309 309 310 309 310 310 314 315 314 312 312 311 314 317 317 319
298 298 298 296 296 296 297 298 299 297 297 299 296 297 301 302 302 300 302 302 305 306 306 306 308 308 309 309 309 309 311 311 312 311 310 310 310 313 314 314 314 316 319 318 317 320 319
298 299 299 299 297 296 296 297 297 297 297 297 298 297 299 301 302 302 304 304 304 305 307 307 308 309 308 309 309 309 309 309 313 314 313 313 314 314 315 314 313 314 316 316 321 320 317
299 300 300 301 299 297 296 296 297 297 297 298 299 297 298 298 302 302 303 305 306 307 308 308 309 307 306 309 309 309 311 313 310 310 316 314 315 315 314 313 314 317 316 320 317 316 316
300 300 300 302 301 300 298 296 296 297 297 298 299 298 298 298 300 300 303 304 305 305 307 307 309 307 308 308 309 310 312 314 310 311 312 316 313 316 312 313 316 313 315 312 312 312 311

GFSGBSN_925_thetae_093.txt.gz
Theta_e
307 307 307 306 306 307 306 306 305 304 303 303 302 303 303 303 303 303 302 303 304 304 304 304 305 307 303 307 309 307 309 310 310 312 316 316 313 313 314 317 317 318 318 318 318 317 316
305 306 306 306 306 306 307 306 305 303 302 302 302 302 302 302 301 302 302 302 303 303 303 303 304 307 306 305 304 306 308 308 311 314 315 316 316 316 316 317 317 319 319 319 317 316 317
305 305 305 305 304 305 305 303 305 304 302 302 302 302 302 302 301 301 301 301 302 302 301 302 304 308 306 304 303 304 305 307 309 309 309 312 318 316 316 317 317 318 318 318 318 317 317
304 304 304 304 303 303 305 304 303 304 304 302 302 301 301 301 301 300 301 301 301 301 300 301 306 307 306 302 303 306 307 308 308 308 308 309 314 315 317 317 318 318 318 319 318 317 317
303 303 303 304 303 302 303 304 302 302 302 303 302 301 301 301 300 300 300 301 300 298 300 304 308 307 309 308 308 308 308 308 308 308 309 309 312 313 315 317 317 317 319 319 318 318 318
303 303 303 302 302 303 303 303 303 303 302 303 302 301 301 300 300 299 300 300 299 305 307 308 308 310 310 311 310 309 309 309 307 306 308 307 307 308 310 314 319 317 318 316 318 317 319
301 302 301 301 301 302 303 303 303 303 302 301 302 300 300 300 299 299 300 301 306 309 310 312 312 310 310 312 311 310 309 309 311 308 306 306 305 306 306 308 312 314 316 317 316 315 317
301 301 301 301 301 301 302 302 302 302 301 301 302 300 300 298 298 299 299 303 308 307 307 307 307 308 311 312 312 311 309 310 317 307 306 307 307 307 307 307 308 310 312 313 313 314 316
299 299 299 300 300 301 300 301 301 300 300 301 302 299 298 298 298 298 301 304 307 307 307 306 306 307 307 308 309 309 307 307 310 317 315 311 314 311 309 308 307 307 310 313 315 316 317
298 299 299 298 300 299 299 299 299 300 299 301 300 299 299 297 299 302 306 307 307 307 307 306 308 307 307 307 309 307 307 307 309 308 314 316 316 316 313 309 309 308 308 310 314 319 321
298 298 298 298 298 299 299 299 298 298 298 299 300 299 298 297 297 300 304 304 307 307 306 308 310 310 308 309 310 310 309 308 308 309 312 313 315 314 315 313 312 312 310 312 318 320 321
297 298 297 298 297 298 297 297 297 298 299 298 299 298 298 297 299 299 302 304 306 308 308 307 310 309 310 310 309 310 310 309 309 308 308 309 309 310 312 313 313 314 316 318 319 321 325
297 297 297 296 297 297 296 297 298 297 298 299 299 298 298 298 298 299 301 306 307 310 306 306 310 310 311 311 310 311 313 311 307 306 307 307 307 308 310 311 314 315 316 319 322 323 322
296 297 297 296 297 298 298 298 298 296 297 298 298 298 297 298 299 299 300 307 309 308 306 309 309 310 310 311 311 310 312 310 309 307 307 307 308 307 308 310 314 315 316 320 323 326 329
296 296 296 297 296 297 297 296 297 298 296 298 297 297 298 298 299 299 303 306 307 305 306 306 308 310 309 311 310 312 310 312 310 307 309 313 312 314 308 308 314 315 316 316 320 319 325
296 296 296 296 296 296 297 296 297 297 297 298 297 298 299 298 300 301 303 304 304 303 304 306 309 311 312 313 313 309 314 314 315 316 312 315 317 316 314 310 311 313 315 318 319 320 319
295 295 296 296 296 296 296 297 296 296 297 297 298 297 298 299 301 301 302 301 301 303 304 305 309 311 312 312 313 313 313 316 316 316 317 318 319 317 316 308 308 310 313 315 314 317 319
295 295 296 296 297 297 297 297 297 296 297 297 297 297 299 300 301 300 301 302 302 302 303 304 308 308 313 311 311 313 314 316 314 312 314 310 318 319 318 316 315 310 309 310 311 313 314
295 296 296 297 297 296 296 296 295 296 297 297 298 296 298 301 297 300 302 303 303 303 302 304 307 308 308 308 309 310 311 312 312 311 309 309 313 318 315 315 317 318 312 311 311 311 312
296 296 296 297 297 297 297 297 296 295 296 296 297 295 297 300 301 304 303 304 303 302 302 302 305 306 307 308 307 308 308 311 311 309 309 309 310 311 314 314 313 312 312 313 318 317 314
296 297 297 297 297 297 297 297 297 296 295 296 295 297 300 299 300 303 302 303 304 304 304 303 306 306 307 309 309 306 308 311 311 311 311 310 310 311 311 310 310 310 310 310 310 319 321
296 296 297 297 298 298 298 297 297 296 295 296 296 298 299 299 300 303 303 302 303 303 305 305 305 305 307 307 309 309 309 311 313 311 312 313 315 315 315 313 313 312 312 311 311 311 313
297 297 298 298 297 298 298 298 298 297 296 296 296 297 298 298 300 301 302 304 304 303 303 304 305 306 307 308 308 308 307 309 310 311 310 312 313 313 315 313 313 313 312 312 312 312 311
297 297 298 298 298 298 299 299 298 298 297 296 297 297 298 297 298 298 299 301 302 303 304 304 306 306 306 308 307 307 307 308 310 310 309 310 312 311 314 312 313 313 311 312 318 319 319
297 297 297 298 298 297 297 298 299 298 298 297 296 297 298 297 298 299 300 302 303 304 304 305 306 306 306 308 308 307 307 308 309 308 308 309 310 309 313 313 313 312 318 319 319 321 318
297 297 298 298 298 298 297 296 297 299 298 298 296 297 298 299 298 299 300 300 303 303 303 305 306 305 307 306 304 307 308 311 311 310 309 309 309 310 310 314 312 317 315 316 316 321 317
297 298 298 299 300 299 299 296 296 298 298 297 296 297 297 299 299 299 299 300 302 303 303 304 307 307 306 307 305 306 307 307 311 315 311 311 311 310 310 313 312 316 315 316 322 318 314
298 298 298 300 301 300 301 298 296 297 298 298 297 296 296 297 299 301 302 302 302 302 304 304 304 305 306 305 305 304 304 309 312 312 312 311 314 311 309 313 312 313 315 318 312 311 310
298 298 299 300 300 300 301 299 297 296 297 298 298 298 297 297 299 298 299 300 302 304 305 304 306 305 304 304 305 306 305 306 312 310 312 313 311 310 310 311 312 312 311 310 309 308 307

GFSGBSN_925_thetae_096.txt.gz
Theta_e
306 306 306 306 306 306 307 307 306 306 305 303 302 302 302 302 303 303 301 301 301 301 302 302 303 306 305 305 305 307 308 310 309 310 314 313 311 309 310 311 313 316 317 317 316 315 314
305 305 305 305 305 305 306 306 305 304 305 303 302 302 302 302 302 301 301 301 301 300 300 301 302 306 306 304 302 304 304 306 307 315 316 315 314 312 313 314 314 317 317 316 316 316 315
304 305 304 304 304 304 304 303 305 304 303 304 304 302 302 302 301 301 300 300 300 300 300 301 302 307 306 304 302 303 302 302 306 310 308 310 314 315 315 315 315 315 315 316 316 316 316
304 303 303 303 303 302 302 301 303 304 303 302 303 303 302 301 301 301 300 299 299 300 300 300 304 307 306 303 301 303 303 305 307 307 307 308 308 310 314 315 317 317 317 318 317 316 316
303 303 304 304 303 301 301 302 302 304 303 302 301 302 302 301 300 300 299 299 299 299 300 302 306 306 306 305 309 310 308 307 307 307 307 308 308 311 313 315 316 316 319 318 317 317 316
302 302 302 302 302 301 302 302 302 302 302 303 302 301 302 300 299 299 298 298 300 305 306 307 308 308 307 310 310 310 309 308 308 306 306 307 305 308 309 313 317 317 317 316 317 316 316
301 301 301 301 301 302 302 302 302 302 302 302 302 301 301 300 298 298 298 298 306 306 308 310 310 308 308 310 311 310 310 308 307 306 305 306 304 305 307 312 314 315 315 314 314 314 313
300 300 300 300 300 300 301 301 301 301 300 300 300 300 301 298 298 298 297 300 306 306 307 306 306 309 309 310 311 310 310 308 312 309 306 306 305 305 306 307 307 308 309 311 311 311 311
298 299 299 299 300 300 300 300 300 299 298 299 300 300 301 298 298 297 300 301 305 306 304 305 305 306 306 306 308 307 308 306 307 312 307 306 308 307 306 306 306 306 306 307 308 310 313
297 297 298 298 299 299 299 300 300 300 300 298 299 301 300 298 297 298 298 301 303 306 303 303 306 305 306 306 307 305 306 305 306 307 314 314 311 308 310 307 307 307 307 306 306 307 310
297 296 297 298 298 298 298 299 298 298 298 299 298 298 299 298 298 299 299 301 305 305 297 304 307 306 306 306 308 308 306 304 305 307 307 310 314 315 316 316 309 308 308 308 307 314 318
297 297 297 297 298 297 298 298 297 297 297 297 298 299 299 298 298 298 298 302 304 304 302 306 309 309 307 307 309 310 308 306 305 306 306 307 307 307 310 311 311 312 312 314 316 317 320
296 296 297 297 297 297 296 298 297 298 298 296 297 299 298 298 297 297 299 302 304 307 305 308 307 307 309 310 309 309 312 309 306 307 307 307 307 307 307 308 309 312 313 315 318 320 321
295 296 296 297 297 297 297 297 297 297 297 296 298 298 298 297 297 297 299 303 306 306 306 306 307 308 310 311 311 310 312 310 309 305 305 307 308 306 307 308 309 311 313 316 320 321 320
296 296 296 296 297 297 297 297 297 297 297 297 298 297 297 298 298 298 301 306 306 305 304 305 306 310 311 312 313 311 310 311 310 309 308 307 307 308 307 308 309 311 314 314 317 318 319
295 296 296 296 296 296 296 296 297 296 296 297 297 297 297 297 298 299 303 303 303 302 302 304 305 310 311 311 311 314 311 312 311 309 307 312 314 314 314 306 308 312 313 316 315 319 320
296 296 295 296 296 296 297 295 297 296 296 297 297 294 297 298 298 301 299 300 300 300 301 305 307 307 307 309 310 313 314 315 315 316 312 316 317 315 315 309 308 310 310 315 316 317 319
295 295 295 296 296 297 297 296 295 297 297 297 296 291 297 299 299 301 296 301 301 301 301 302 305 306 308 312 310 311 312 312 311 312 314 311 317 319 317 316 315 313 310 314 317 318 317
296 296 296 296 297 297 297 295 295 296 297 297 296 293 298 300 299 299 300 302 301 302 302 302 305 306 307 308 311 310 311 309 309 311 313 310 313 317 315 318 316 317 316 312 317 310 311
295 296 296 297 297 297 297 296 296 296 296 296 296 294 293 297 300 302 300 300 301 302 302 302 302 303 306 306 308 308 309 308 308 310 313 309 309 311 314 311 313 315 315 311 313 318 316
295 296 296 297 297 297 297 297 297 296 296 296 294 292 295 300 298 301 300 303 302 302 303 303 303 304 304 307 307 308 309 309 310 311 312 311 309 312 313 311 310 310 312 311 311 312 317
295 296 296 297 298 298 298 298 297 296 295 296 293 291 295 298 299 301 301 303 301 301 302 304 304 305 304 306 307 307 309 309 310 311 310 312 313 313 313 312 312 313 312 311 312 311 312
295 296 296 297 298 298 298 298 298 297 296 295 295 296 296 297 299 298 300 302 302 302 303 303 303 304 306 305 307 308 308 308 309 310 309 310 312 310 314 312 312 313 312 312 311 319 319
296 296 297 297 297 298 298 298 298 298 297 295 296 295 295 296 296 297 297 298 299 299 303 304 304 305 305 306 306 306 308 308 309 309 308 309 310 309 313 309 310 312 314 318 319 319 317
296 296 297 297 298 298 298 297 297 299 298 296 296 296 296 294 296 297 298 299 299 301 302 302 303 304 305 307 307 307 306 307 307 308 308 308 309 309 311 310 311 312 316 318 318 319 317
295 296 297 297 298 298 299 299 297 297 299 298 296 296 297 297 297 297 298 299 299 299 300 302 304 304 305 303 306 307 308 309 311 310 307 308 308 309 309 313 312 317 316 314 316 321 312
295 296 296 298 299 299 300 300 299 296 298 299 297 296 297 298 297 298 298 299 299 301 301 301 302 305 305 304 307 306 306 307 308 313 311 309 308 310 310 311 312 315 315 314 314 315 310
295 295 297 298 298 299 300 300 299 297 297 299 296 296 296 297 298 299 298 299 300 301 302 301 302 303 305 308 305 303 302 306 310 312 313 311 311 311 310 311 312 312 313 314 311 310 308
294 295 297 297 298 299 299 300 300 298 296 298 297 297 296 297 298 297 298 298 299 301 302 304 304 305 304 303 303 303 303 304 310 311 310 313 311 310 310 309 312 309 309 308 307 306 305

GFSGBSN_925_thetae_099.txt.gz
Theta_e
305 305 305 305 305 305 305 306 305 305 304 304 305 303 302 302 304 304 302 301 301 300 300 301 305 306 305 304 302 305 308 307 308 311 311 311 309 307 307 308 310 315 316 315 315 314 313
304 304 304 304 303 304 305 304 304 302 304 303 303 304 304 302 303 303 301 301 300 300 300 303 304 305 305 306 301 302 303 305 304 313 316 312 311 309 309 309 310 313 313 314 314 315 315
304 304 304 304 303 302 301 301 301 303 302 303 303 302 302 303 302 301 300 299 299 299 301 303 305 305 306 305 301 302 303 303 302 305 312 310 314 314 313 315 314 314 315 313 313 314 315
302 302 302 303 303 302 301 301 302 303 303 303 303 302 301 302 302 301 299 299 299 299 301 303 304 306 305 304 304 303 302 302 301 304 307 308 307 306 311 312 315 316 316 317 316 315 315
302 302 302 302 302 302 302 302 302 302 303 302 302 302 302 301 302 300 298 298 298 297 299 303 304 306 306 305 306 307 308 305 306 305 306 307 307 307 311 313 313 314 315 317 317 316 316
301 301 301 301 301 302 302 302 301 301 301 302 301 301 301 301 301 300 297 298 298 305 305 305 306 306 307 308 310 310 308 306 307 305 306 305 304 306 308 311 315 314 316 315 316 315 315
299 300 299 299 300 300 301 301 301 301 300 300 300 300 300 300 301 298 298 297 303 304 307 309 308 308 307 308 310 310 309 307 307 305 304 304 304 305 306 311 312 314 315 315 313 313 311
298 298 298 299 298 299 300 300 301 301 301 300 298 299 300 300 301 299 298 299 300 302 305 306 306 307 308 308 309 308 309 309 308 307 305 305 305 304 306 309 309 309 311 311 310 311 311
298 297 297 297 298 299 299 299 300 300 300 300 300 300 299 301 300 298 299 299 301 301 307 305 305 306 305 306 308 307 308 306 307 312 306 307 307 305 305 305 306 305 307 306 309 307 307
297 297 297 297 298 298 298 298 299 299 298 298 299 298 298 299 298 297 297 300 299 301 305 304 304 304 305 305 306 305 305 305 305 306 307 309 306 306 305 305 305 305 305 306 305 305 305
296 297 297 297 297 298 298 298 298 298 298 297 297 297 298 298 299 298 298 298 301 303 299 301 305 304 305 306 306 306 304 304 303 306 308 311 313 310 306 307 305 306 307 306 306 305 306
296 296 296 297 297 297 298 298 298 298 297 298 297 297 298 298 298 297 298 299 302 303 303 305 307 307 306 306 307 305 304 304 303 304 305 306 306 307 311 311 312 311 309 310 309 308 315
295 295 296 296 297 297 297 298 298 298 298 297 296 298 299 298 297 297 297 301 305 304 302 307 305 306 307 309 308 308 307 307 305 304 304 304 304 305 307 307 307 310 311 315 317 321 317
295 295 296 296 297 297 297 297 297 297 296 296 296 298 298 298 298 297 299 302 302 304 304 304 304 308 311 310 311 309 311 308 307 304 304 306 307 305 305 306 306 307 309 314 318 318 316
295 295 296 297 296 296 296 296 297 297 296 296 296 297 297 297 297 297 301 300 305 304 302 303 305 310 310 308 309 312 309 310 308 305 306 306 306 305 305 306 306 308 312 310 313 316 318
297 296 296 296 295 296 296 297 296 297 296 296 297 296 296 297 298 298 299 304 303 300 300 304 308 308 308 307 310 310 313 314 313 312 308 307 310 311 313 306 306 308 309 313 313 318 319
294 295 295 295 296 296 297 297 296 295 296 296 296 294 296 297 298 295 293 297 300 300 300 303 304 306 306 310 311 310 314 312 310 311 311 309 313 311 313 309 306 308 310 313 313 314 317
295 296 297 296 296 296 297 297 295 295 296 297 295 291 296 299 294 294 291 300 300 301 300 301 304 305 309 307 308 310 315 313 309 311 313 310 314 312 311 315 315 308 310 313 315 315 315
296 295 295 296 296 297 297 296 295 296 296 296 296 295 297 299 301 298 299 301 300 300 301 302 303 305 307 307 305 310 309 308 308 309 312 310 313 315 315 317 313 317 315 311 314 310 313
296 295 296 296 296 297 297 297 296 295 296 296 295 294 292 295 298 300 301 299 299 301 302 301 302 301 302 306 306 307 308 308 308 309 310 311 312 313 314 312 313 313 315 314 312 316 315
295 295 295 296 296 296 297 297 297 296 295 295 295 290 293 297 300 300 300 300 300 301 302 303 303 302 302 304 307 306 309 310 309 309 312 313 312 313 314 312 310 311 312 314 311 311 313
294 294 295 296 296 297 298 298 297 297 296 295 291 290 293 294 296 299 299 301 301 303 301 302 303 303 304 306 306 305 307 308 309 310 310 312 314 312 312 310 310 312 311 311 311 311 312
293 294 295 296 296 297 298 298 298 298 296 295 294 294 293 295 296 297 300 300 301 299 299 302 303 304 304 304 304 305 306 307 308 308 309 309 311 310 312 311 309 312 311 311 318 317 319
293 294 295 296 297 297 298 298 298 298 297 295 295 293 292 294 296 297 297 298 298 298 299 300 301 304 304 305 305 306 306 307 308 308 308 308 309 308 310 308 307 312 317 316 318 317 316
293 294 295 296 297 297 297 298 298 297 299 296 295 294 293 292 295 296 297 297 297 298 300 300 301 302 304 306 307 307 305 306 306 308 308 308 308 307 308 309 308 315 315 317 318 316 313
292 293 295 295 296 297 297 298 298 298 297 297 295 295 295 295 295 296 296 297 298 298 299 300 300 303 304 303 302 308 307 308 309 309 307 307 306 306 307 311 309 314 315 313 315 319 311
292 294 294 295 296 296 298 299 299 300 298 299 297 295 296 297 296 296 296 298 298 298 300 299 302 302 303 304 304 306 307 305 307 310 311 308 307 309 308 308 309 312 313 312 314 312 309
292 293 294 295 295 297 298 298 299 300 299 297 298 297 295 296 296 297 297 296 298 299 298 298 298 299 302 305 305 304 304 305 308 310 311 311 310 310 310 308 310 310 312 310 308 309 307
292 293 294 294 295 297 298 298 299 301 298 297 297 297 296 297 298 296 297 297 297 299 299 300 301 301 304 305 303 303 304 300 308 309 309 313 311 308 308 309 310 306 307 306 305 304 304

GFSGBSN_925_thetae_102.txt.gz
Theta_e
305 304 304 304 304 304 304 304 303 302 301 301 303 303 303 303 305 305 304 302 301 301 302 303 304 304 305 304 303 301 301 301 309 311 309 308 307 306 306 305 307 312 315 313 313 313 312
304 304 304 304 304 303 303 301 300 301 302 303 301 302 303 302 302 304 303 302 301 299 300 303 303 304 304 304 301 301 302 303 305 312 312 309 308 306 308 307 307 309 310 311 312 314 313
303 302 303 303 303 303 303 302 302 302 302 303 303 303 303 302 301 301 301 301 300 299 299 302 303 303 303 303 300 301 301 302 303 304 313 313 310 313 309 311 310 311 311 311 311 313 313
302 302 302 302 302 302 302 302 302 302 303 302 301 301 301 301 302 301 301 301 299 299 298 301 303 303 303 301 302 304 303 303 302 302 301 308 308 309 309 309 312 315 314 315 314 312 314
300 301 301 301 301 301 302 302 302 302 302 302 302 302 301 300 300 300 301 301 299 299 298 303 303 304 303 302 306 304 305 304 304 302 302 306 305 305 309 307 311 311 313 315 316 314 315
299 300 300 299 299 300 300 301 301 301 301 301 301 301 300 300 299 300 301 300 299 301 304 304 303 302 302 302 308 309 307 305 305 304 305 304 303 304 306 309 312 313 315 314 315 315 315
298 298 298 298 299 299 299 300 300 300 300 301 301 301 301 299 299 301 300 299 297 303 305 306 305 305 304 308 308 309 307 306 306 304 304 304 305 304 305 309 311 312 312 314 313 313 312
298 298 297 297 298 298 298 298 299 300 300 300 300 300 300 300 299 300 300 297 298 300 301 302 303 304 306 306 309 307 308 309 307 306 304 304 305 304 304 307 310 311 312 312 310 310 311
297 297 297 297 297 298 298 298 299 299 299 299 299 299 299 298 298 298 298 298 298 299 304 305 305 305 305 305 307 306 306 307 308 308 305 306 307 305 305 306 308 307 310 308 310 306 304
296 296 297 296 297 298 298 298 299 299 299 299 299 299 297 297 298 297 298 298 298 298 303 304 304 304 305 305 306 305 305 306 305 310 310 307 308 306 304 305 306 307 304 306 305 304 303
296 296 296 296 297 297 297 298 298 298 299 299 298 297 296 297 298 296 297 297 298 300 304 300 304 303 304 303 304 305 304 304 305 305 308 311 312 308 308 305 304 304 304 304 304 303 304
296 295 295 297 297 297 297 297 298 298 298 298 298 296 298 298 298 298 297 297 299 306 302 305 305 305 305 305 306 303 304 303 302 304 304 306 305 308 309 307 304 307 308 307 307 305 309
295 295 295 297 297 297 297 297 297 297 297 298 297 297 298 298 297 298 298 298 303 303 301 304 304 304 306 308 307 307 305 305 302 302 302 303 303 305 306 306 306 307 308 313 316 316 314
295 295 295 296 297 296 296 297 297 297 297 297 297 296 296 296 297 297 297 301 303 304 302 302 304 309 308 308 309 309 307 307 306 304 304 305 306 303 304 306 306 306 307 312 317 317 314
296 297 297 296 296 296 296 297 297 297 297 297 296 296 296 297 297 297 298 301 303 305 301 301 305 307 307 307 309 310 311 315 311 310 307 305 305 304 304 304 306 307 308 308 311 312 315
296 295 295 296 296 296 296 297 297 296 295 296 297 296 295 296 297 297 291 300 301 301 300 302 304 305 306 308 309 309 314 311 311 311 310 307 307 309 312 305 305 306 307 311 312 317 316
295 294 295 296 296 296 296 297 297 295 295 296 296 293 296 297 298 294 287 297 299 299 300 301 303 304 306 306 308 310 314 312 309 310 311 310 310 309 308 309 307 307 307 310 310 312 314
294 294 296 296 296 296 297 297 296 295 295 296 293 290 295 298 296 294 291 297 298 299 299 300 302 304 307 306 306 309 310 309 308 308 314 310 312 313 309 310 314 307 309 308 312 313 314
293 294 296 295 296 296 297 297 296 295 296 296 294 294 295 298 293 298 297 300 300 300 300 301 301 303 305 305 303 307 308 308 308 309 310 310 312 316 314 314 312 314 314 311 312 310 313
294 294 295 295 296 296 297 297 297 296 295 296 293 293 290 294 298 299 300 300 299 300 301 301 301 301 301 304 304 304 307 308 308 309 311 310 311 311 314 311 310 313 313 314 312 313 312
294 294 294 295 295 296 297 297 297 297 296 295 295 291 292 292 299 298 300 299 300 301 300 301 301 303 303 304 303 306 307 307 307 308 310 312 310 311 312 313 312 312 313 313 312 311 312
293 293 294 294 295 296 297 297 298 297 296 294 294 289 291 294 295 297 298 299 301 299 301 303 301 301 303 304 304 305 305 306 308 309 310 310 313 312 312 312 310 311 313 312 312 313 312
293 292 293 294 295 296 297 297 298 298 297 295 293 293 293 293 294 295 296 299 300 298 298 301 299 300 302 304 303 303 302 304 306 308 309 309 311 310 311 311 309 311 310 312 316 316 317
292 293 293 294 295 296 297 297 298 298 298 295 294 293 294 293 294 296 296 297 297 297 298 298 299 301 302 303 303 304 305 306 306 307 307 309 309 307 311 309 306 314 315 314 316 315 316
292 293 293 293 295 296 296 297 297 298 298 295 294 294 294 290 294 295 296 296 296 296 297 298 299 300 302 304 305 306 305 305 306 307 308 308 307 308 310 310 307 315 315 316 317 316 313
292 293 292 293 295 295 295 296 297 298 298 297 295 294 295 294 294 295 295 295 296 297 298 299 299 299 303 303 304 307 307 307 308 309 306 307 306 307 309 311 308 310 314 312 314 318 311
292 293 292 293 295 295 295 296 298 299 299 298 296 295 295 296 295 296 295 296 297 297 299 298 300 299 301 302 307 305 307 305 306 309 309 308 308 309 309 309 309 309 310 311 313 310 308
292 293 292 292 294 295 295 296 298 298 299 299 298 297 295 296 295 296 296 296 297 298 298 297 296 300 301 304 305 305 304 304 307 308 305 309 308 308 308 309 309 306 310 309 306 305 305
292 292 291 292 294 294 295 296 297 298 299 300 297 297 296 296 297 297 296 296 296 297 296 298 298 301 300 305 305 305 305 302 305 307 307 311 310 310 308 307 306 303 304 303 302 301 301

GFSGBSN_925_thetae_105.txt.gz
Theta_e
304 304 304 304 304 304 304 303 302 302 302 302 303 303 304 304 305 304 303 301 300 301 301 301 303 304 302 304 304 300 300 300 302 310 309 308 311 311 312 310 313 316 315 315 315 315 315
303 303 303 303 303 304 304 303 302 303 303 303 303 301 301 301 302 302 301 301 301 301 300 300 303 303 303 301 301 301 301 301 302 312 310 308 310 310 310 309 309 309 311 313 314 315 315
302 302 301 302 302 302 302 302 302 302 302 302 302 302 302 302 301 300 300 300 300 301 300 300 303 303 302 302 300 300 301 301 301 302 311 311 309 309 309 310 310 311 312 311 311 312 314
300 300 301 301 301 301 301 302 302 302 302 302 302 302 301 301 300 299 299 299 300 300 300 301 302 302 301 301 299 301 301 302 302 300 302 302 303 311 312 311 310 315 315 315 315 314 314
299 300 300 299 299 300 300 301 301 301 301 301 301 301 301 300 299 298 299 300 300 299 300 301 303 302 302 301 303 301 303 303 304 303 302 302 306 307 308 310 313 313 316 316 316 314 316
299 299 299 298 298 299 299 299 299 300 300 300 300 300 300 300 299 299 299 299 298 300 304 303 302 302 300 300 305 307 307 305 305 303 303 303 305 309 308 309 310 311 315 315 316 316 315
298 298 298 298 298 298 298 298 298 299 300 300 300 300 300 300 300 299 298 299 298 299 300 302 302 301 303 305 306 308 306 306 306 304 303 304 306 308 308 309 309 312 312 314 315 314 315
297 298 297 297 297 297 298 298 298 299 299 299 299 299 299 299 299 298 298 298 298 298 298 299 300 301 302 303 305 306 306 308 307 305 305 305 308 308 306 308 309 311 312 313 313 312 313
297 297 297 297 297 297 297 298 298 298 299 299 299 299 299 299 296 298 297 297 297 297 300 299 300 303 303 303 304 304 306 307 308 307 305 307 307 307 305 306 309 310 312 312 312 310 307
296 296 296 296 296 297 297 297 298 298 299 299 299 299 298 297 298 297 297 297 297 297 300 300 305 305 305 305 305 304 304 304 308 309 306 306 306 306 306 306 307 307 308 310 311 310 310
296 295 295 295 296 297 297 297 297 298 298 298 298 298 298 297 298 297 298 297 297 297 302 301 304 303 304 304 304 305 304 305 305 309 310 311 311 309 307 306 306 306 307 309 309 308 306
295 295 295 295 297 297 297 297 297 297 297 297 298 297 298 297 298 298 298 297 298 299 303 305 306 305 305 305 305 303 305 304 304 306 305 309 305 309 310 307 306 306 307 307 307 308 312
295 295 295 296 297 297 296 296 297 297 297 297 297 295 296 297 297 297 297 297 298 302 302 303 305 307 308 308 308 306 304 304 303 306 306 304 305 306 307 307 306 309 312 314 317 314 315
294 296 296 295 297 296 296 296 297 297 297 297 296 295 296 296 296 296 297 299 301 305 300 300 303 308 309 308 309 310 304 307 312 308 302 302 302 304 305 308 309 309 312 313 314 318 315
295 296 296 296 296 296 296 296 297 297 295 295 295 295 296 296 296 297 297 298 300 303 301 301 301 305 307 307 309 312 312 313 312 312 308 307 306 303 304 305 308 308 309 311 313 313 315
295 296 295 295 296 296 296 297 297 297 295 295 296 295 295 296 297 295 294 298 300 301 300 300 301 303 306 305 309 313 313 311 312 309 311 310 310 309 308 305 306 309 310 312 312 314 314
294 294 295 296 297 296 296 297 297 296 295 295 295 294 295 297 297 293 294 296 298 298 298 300 301 303 306 305 306 311 310 309 308 309 311 311 311 310 309 309 307 307 307 310 312 313 312
294 295 295 296 295 296 296 296 296 296 295 295 293 293 294 297 296 295 296 297 298 297 299 301 301 304 304 305 305 307 309 308 308 309 312 311 313 314 311 309 313 309 309 308 310 313 314
294 295 294 296 295 296 296 297 296 296 295 296 293 293 294 297 295 297 298 298 299 300 300 302 301 302 302 303 304 306 306 308 308 309 311 310 313 316 314 316 311 314 313 310 312 312 312
294 296 294 295 295 296 296 296 297 297 295 295 291 292 291 296 297 297 298 298 300 299 300 302 302 302 303 303 305 305 306 307 307 309 310 310 311 312 313 312 312 313 313 313 314 315 313
293 295 294 294 294 295 296 297 298 297 296 294 294 292 292 292 298 297 298 298 300 301 301 301 301 300 302 304 304 305 306 305 305 308 310 310 312 311 311 312 313 312 312 312 313 312 314
294 295 293 293 294 295 296 297 298 298 296 294 291 293 292 295 295 296 297 297 300 298 299 302 299 299 300 303 304 305 304 304 306 307 309 308 311 310 313 312 312 310 310 313 314 313 314
294 293 293 293 294 295 296 296 297 298 296 295 292 292 294 294 294 296 297 298 299 298 297 299 299 299 300 302 303 304 304 304 304 305 308 310 311 311 310 311 309 308 309 312 313 316 317
294 293 293 293 294 294 296 296 297 298 298 295 294 294 295 295 294 295 295 296 296 296 296 297 298 299 301 302 304 304 304 305 305 306 306 309 309 309 310 310 309 315 315 314 315 315 314
293 293 293 294 293 294 295 296 296 297 298 296 294 294 295 294 294 295 295 296 296 296 296 296 298 299 301 305 305 306 306 306 307 306 307 307 308 310 309 310 308 313 315 316 317 315 313
293 293 292 294 293 294 295 295 296 297 298 297 296 294 295 296 295 295 295 295 296 297 298 298 299 299 303 303 306 307 307 306 307 309 307 308 308 309 309 309 310 312 314 312 314 315 311
292 292 293 293 293 293 294 295 295 296 298 298 297 295 294 297 295 296 296 297 297 298 299 299 299 300 300 304 306 307 307 305 306 308 310 308 310 311 308 308 308 309 309 311 315 313 309
292 292 292 293 292 292 294 295 295 296 298 299 297 296 295 296 296 296 296 296 296 298 299 298 299 301 302 304 305 307 307 306 307 308 308 309 309 310 309 308 307 305 309 312 308 304 304
292 291 292 293 292 292 293 294 294 296 297 298 298 297 295 296 297 296 296 296 295 296 297 297 299 301 301 301 303 306 306 305 306 307 307 310 309 311 308 309 305 303 303 301 302 301 299

GFSGBSN_925_thetae_108.txt.gz
Theta_e
304 304 304 304 304 304 304 304 303 303 302 303 303 303 303 304 304 304 302 301 300 300 300 299 304 304 303 305 306 303 303 302 303 309 309 310 310 312 313 313 315 317 318 318 317 317 317
303 303 303 302 303 303 303 302 303 302 302 302 302 303 303 303 303 303 301 299 299 299 299 299 304 304 304 305 303 302 302 302 304 311 308 309 310 311 312 312 313 316 316 317 317 317 317
302 302 301 301 302 302 302 302 302 302 302 302 302 302 302 302 301 301 299 298 298 298 298 299 304 304 303 304 303 303 303 303 303 305 310 309 309 312 312 312 313 313 314 314 314 315 315
300 301 301 300 300 300 301 301 301 301 301 301 302 301 301 300 300 300 299 298 297 297 296 298 303 304 304 302 301 302 302 303 302 302 304 307 307 311 313 313 313 313 314 315 316 316 315
300 300 300 299 299 299 299 300 300 300 301 301 300 300 300 299 298 297 297 297 297 297 299 302 305 304 303 302 302 302 302 303 303 303 303 303 306 311 313 313 314 315 317 317 318 318 318
299 299 299 298 298 299 299 299 299 299 300 300 300 300 300 300 299 297 297 298 298 299 302 304 303 304 304 303 304 307 309 305 307 306 305 304 305 307 312 313 315 315 317 317 318 318 318
299 298 298 298 298 298 298 299 298 299 299 299 300 300 300 300 299 298 299 299 300 301 299 300 300 303 303 301 302 305 308 308 309 307 304 303 305 308 309 312 313 313 312 313 313 315 317
298 298 298 297 297 298 298 298 298 298 299 300 300 299 299 299 297 298 299 300 298 298 300 299 300 300 299 299 301 303 306 310 310 309 305 305 306 307 308 309 310 310 311 312 310 314 316
297 297 297 297 297 297 297 297 298 298 299 299 299 299 299 296 297 299 299 299 299 299 300 300 301 302 302 300 301 302 305 310 310 309 306 306 306 306 307 308 310 311 311 310 309 311 313
296 296 296 296 297 296 297 297 298 298 298 298 298 298 298 295 299 299 300 299 299 299 302 301 305 306 305 303 305 304 303 309 311 310 307 307 308 307 308 308 309 310 310 309 310 313 312
296 296 295 295 297 297 297 297 297 297 298 298 298 298 297 296 299 300 299 299 299 300 303 304 305 305 305 305 305 306 303 305 308 311 310 310 307 309 309 309 308 309 308 308 310 311 310
295 295 295 296 297 296 297 297 297 297 298 297 297 298 297 299 299 299 298 299 300 306 305 304 303 304 309 307 306 307 305 305 305 309 310 311 312 309 309 309 308 309 308 309 309 309 310
295 294 295 296 296 297 297 296 297 297 297 295 296 296 297 298 300 298 299 300 306 305 303 302 301 304 308 311 308 307 307 306 305 306 308 308 311 311 312 310 309 308 310 315 316 315 314
295 295 296 295 297 296 296 296 297 297 296 294 295 295 297 298 297 298 299 304 304 303 302 301 301 303 309 309 312 307 306 308 309 307 306 308 309 309 310 312 311 309 311 312 314 316 315
294 296 296 295 295 296 296 297 297 297 296 295 296 298 298 298 297 299 301 303 302 303 299 299 301 303 307 306 310 312 312 313 312 313 309 307 306 307 308 310 310 311 313 312 314 314 316
295 297 295 294 295 296 295 296 297 296 295 295 298 298 299 298 298 298 300 299 300 300 299 299 302 303 307 305 309 313 313 311 312 311 313 311 309 306 306 306 308 309 310 313 313 312 312
294 295 294 295 296 296 296 296 296 295 294 295 297 298 297 297 299 300 299 296 297 298 301 301 302 303 304 303 306 311 311 310 310 312 314 314 313 312 310 309 307 307 311 311 311 312 311
294 295 294 295 295 295 295 295 296 296 294 296 297 299 297 299 301 301 300 300 299 300 301 303 303 303 303 304 305 306 307 309 308 309 315 313 316 313 312 314 310 307 307 310 311 312 313
293 295 295 294 295 295 295 297 296 296 295 297 298 297 297 299 300 299 300 300 301 301 301 303 304 304 304 304 305 305 306 307 307 311 314 312 316 312 313 315 314 314 313 310 312 313 315
295 294 295 294 294 295 295 296 297 297 296 297 299 299 298 300 299 299 299 301 301 302 302 302 303 303 303 304 305 305 307 306 306 310 310 312 313 315 313 314 314 315 315 314 314 316 314
295 293 295 293 293 293 294 296 297 298 296 296 298 298 297 298 299 298 298 299 301 301 301 302 302 301 302 304 305 305 305 306 306 309 311 312 314 313 313 313 314 314 314 314 314 315 315
295 294 295 294 293 293 294 297 297 298 296 296 301 299 297 297 297 298 297 299 299 300 299 301 303 302 301 303 305 306 305 306 307 308 309 311 313 311 312 311 313 313 312 313 313 314 314
295 294 294 293 293 294 295 296 297 298 296 297 296 296 298 297 297 297 297 298 299 298 298 299 300 300 301 303 304 304 306 306 307 308 307 310 312 311 311 311 311 311 312 312 313 315 316
294 293 294 293 293 294 295 296 297 298 297 296 296 297 298 300 298 298 297 296 297 297 298 298 299 300 301 302 304 306 307 307 307 308 307 310 310 310 311 310 311 316 316 314 313 315 315
294 293 293 293 293 294 294 295 296 297 298 296 295 297 298 300 299 298 298 298 298 298 298 299 300 301 302 305 307 306 307 308 308 308 308 308 309 311 311 310 308 309 316 316 315 317 315
294 293 293 293 293 293 293 295 295 296 297 298 296 295 296 298 300 298 298 298 300 300 300 300 300 301 304 306 307 307 307 307 307 309 309 309 308 310 309 309 310 316 313 313 316 317 313
293 293 293 293 293 293 293 294 295 295 296 298 297 296 294 299 298 298 300 300 299 300 301 300 300 301 304 303 307 307 307 307 307 308 310 311 312 312 310 309 307 310 309 311 317 315 308
293 293 293 292 293 293 293 293 294 295 295 297 297 297 296 298 299 298 298 299 300 300 301 301 301 303 304 306 307 307 308 307 308 308 311 309 311 311 310 310 309 307 312 314 309 306 306
293 293 292 292 292 292 292 291 294 294 295 297 298 297 295 295 300 298 298 298 298 299 299 299 301 301 302 304 304 305 308 308 308 308 309 311 310 311 312 313 305 303 303 303 305 305 303

GFSGBSN_925_thetae_111.txt.gz
Theta_e
305 305 305 305 305 305 305 303 302 301 302 302 303 303 303 303 303 303 301 299 298 298 298 298 301 305 304 307 308 306 305 304 305 306 311 313 313 315 316 317 319 320 321 321 321 321 321
305 304 304 303 303 303 303 301 302 302 303 303 303 302 302 302 302 301 299 298 297 296 297 298 303 304 305 307 305 305 305 304 305 305 305 309 312 314 315 317 319 319 321 320 321 321 320
304 303 303 302 302 302 302 301 302 302 302 302 302 301 299 299 299 298 297 296 296 296 298 300 302 303 305 306 304 304 305 305 305 306 310 310 309 313 314 315 316 316 317 318 319 319 321
302 302 302 301 301 301 301 302 302 301 301 301 301 300 299 298 297 297 296 296 296 297 297 297 299 303 306 304 304 304 304 304 305 305 305 308 310 312 313 315 315 316 317 318 318 318 318
301 302 301 300 300 300 300 300 300 300 300 301 301 299 298 298 298 296 295 296 298 298 298 300 305 306 307 304 304 305 304 304 304 305 305 305 308 312 312 314 316 317 318 319 319 319 318
301 301 300 299 299 299 299 299 299 299 299 300 300 300 300 298 296 295 296 299 300 300 302 302 304 306 305 304 303 304 304 307 307 306 307 306 307 308 310 314 318 319 319 319 320 321 320
300 300 299 299 299 299 299 299 298 298 299 300 300 300 299 296 295 295 300 302 302 303 302 301 301 301 302 302 302 303 302 305 309 305 306 307 305 307 309 312 316 317 318 319 319 320 321
300 299 298 298 298 298 298 298 298 298 299 300 299 298 297 295 294 297 301 302 301 300 302 301 302 303 305 306 308 305 302 302 309 311 308 307 306 308 310 311 313 316 317 318 319 318 316
299 298 298 298 298 298 298 298 298 299 299 299 299 298 296 294 295 300 302 301 301 300 302 302 305 306 305 306 307 305 303 302 305 312 310 307 306 307 310 310 311 314 316 316 316 314 314
298 297 297 297 297 297 297 298 298 298 298 298 298 297 297 294 299 301 302 301 300 301 305 306 305 306 305 305 309 306 302 304 307 314 311 307 307 308 308 310 311 313 313 313 313 313 316
297 297 296 296 298 297 296 297 297 297 297 298 298 296 298 297 300 302 300 300 300 301 307 305 304 303 304 308 308 304 305 306 307 312 311 310 308 309 309 309 311 312 313 313 313 313 314
297 296 296 296 297 296 296 297 297 297 297 297 296 297 297 301 302 301 301 301 302 308 307 304 303 304 306 309 311 308 306 306 308 309 311 310 310 310 310 310 311 311 310 311 311 312 315
296 295 296 297 297 296 296 296 296 295 296 295 295 296 297 299 302 300 301 303 310 309 304 303 302 304 306 308 310 308 306 305 308 309 313 313 315 311 311 312 312 311 313 314 314 314 316
296 295 296 295 297 296 295 296 295 295 296 295 295 296 300 300 301 301 302 306 308 305 304 302 302 303 308 307 308 311 308 305 305 306 308 309 312 313 313 311 312 312 312 319 319 318 315
296 296 298 297 296 295 295 296 296 296 295 295 297 300 301 301 301 301 304 308 304 304 301 302 303 304 305 304 307 310 312 314 311 311 312 308 310 311 313 312 313 312 312 313 315 317 320
295 297 296 295 294 295 294 295 296 295 294 295 299 300 300 300 301 302 304 301 300 300 301 303 302 303 305 304 307 310 314 311 312 312 314 314 309 309 309 312 311 312 312 313 314 314 315
295 296 295 295 296 297 295 295 296 295 294 295 300 302 300 299 302 304 305 301 301 301 302 303 304 305 304 304 306 310 311 311 310 313 314 315 315 309 308 308 309 310 312 312 312 312 313
295 295 295 295 296 294 295 295 296 295 295 298 300 303 299 301 305 304 304 301 301 302 302 304 305 304 306 305 305 307 308 307 307 312 314 315 317 313 312 311 311 308 310 312 312 312 312
295 294 295 295 295 294 295 296 296 296 295 300 301 300 299 302 305 302 302 302 302 303 303 303 304 303 304 306 307 305 306 307 307 311 313 313 316 319 319 315 311 308 308 311 312 313 315
294 294 296 294 295 294 295 296 297 297 296 298 302 303 301 301 301 302 302 302 303 303 304 303 304 303 304 305 305 306 306 305 307 310 310 313 315 317 320 319 314 315 311 309 311 313 313
294 295 295 295 294 293 293 295 297 298 297 298 302 302 299 302 302 300 301 301 302 303 302 303 304 304 303 304 305 305 305 305 306 309 310 312 315 314 314 314 315 316 316 314 314 314 315
294 295 295 295 293 293 292 295 297 298 297 299 299 303 301 301 299 299 299 301 301 302 301 302 303 303 303 304 305 306 305 306 307 308 310 310 315 313 312 311 313 313 312 313 312 312 312
295 294 294 295 294 293 292 295 296 298 297 299 299 299 301 300 301 301 300 300 300 300 300 301 301 302 303 304 304 304 305 306 306 307 309 310 312 313 312 311 311 312 312 312 312 312 313
295 295 294 294 294 292 294 295 296 298 298 299 299 299 300 302 300 300 300 300 300 300 300 300 301 302 303 304 305 306 307 308 308 308 308 311 311 311 313 310 312 314 314 313 312 316 316
295 295 295 294 293 293 294 295 296 297 298 299 299 299 300 302 300 300 301 300 301 301 301 301 301 302 303 304 307 307 308 308 308 308 308 308 311 312 313 312 311 310 317 318 318 318 316
294 295 294 294 293 292 294 294 295 296 297 297 297 299 300 301 302 301 301 301 302 301 302 303 302 302 304 306 307 309 308 307 309 310 308 309 309 311 313 311 313 315 311 311 313 321 313
294 294 294 294 293 293 293 293 294 295 296 298 297 297 297 300 301 301 301 302 302 302 302 303 303 303 304 305 307 308 308 307 308 310 312 311 312 313 311 311 313 310 311 310 318 315 310
294 294 293 294 293 293 293 293 293 295 295 297 298 297 297 299 301 301 301 301 301 302 303 303 303 305 305 306 307 308 309 309 308 308 310 311 312 314 313 313 314 308 311 312 307 307 307
294 293 293 292 292 293 292 292 293 294 295 296 298 297 296 297 299 299 300 301 301 300 302 301 302 302 303 305 306 306 307 309 308 310 309 311 310 310 314 311 305 303 303 302 304 305 304